[[{"header":{"parameterUnit":"m.s-1","parameterCategory":1,"la1":30.6,"la2":28.766,"lo1":-90.7593,"lo2":-88.6598,"dy":0.0162,"dx":0.0183,"nx":116,"ny":114,"refTime":"2023-11-10T18:00:00:Z","depth":0,"parameterNumber":2,"parameterNumberName":"U-component_of_WINDS"},"data":[0.0,0.0,0.0,0.0,0.0,0.0,0.0,0.0,0.0,0.0,0.0,0.0,0.0,0.0,0.0,0.0,0.0,0.0,0.0,0.0,0.0,0.0,0.0,0.0,0.0,0.0,0.0,0.0,0.0,0.0,0.0,0.0,0.0,0.0,0.0,0.0,0.0,0.0,0.0,0.0,0.0,0.0,0.0,0.0,0.0,0.0,0.0,0.0,0.0,0.0,0.0,0.0,0.0,0.0,0.0,0.0,0.0,0.0,0.0,0.0,0.0,0.0,0.0,0.0,0.0,0.0,0.0,0.0,0.0,0.0,0.0,0.0,0.0,0.0,0.0,0.0,0.0,0.0,0.0,0.0,0.0,0.0,0.0,0.0,0.0,0.0,0.0,0.0,0.0,0.0,0.0,0.0,0.0,0.0,0.0,0.0,0.0,0.0,0.0,0.0,0.0,0.0,0.0,0.0,0.0,0.0,0.0,0.0,0.0,0.0,0.0,0.0,0.0,0.0,0.0,0.0,0.0,0.0,0.0,0.0,0.0,0.0,0.0,0.0,0.0,0.0,0.0,0.0,0.0,0.0,0.0,0.0,0.0,0.0,0.0,0.0,0.0,0.0,0.0,0.0,0.0,0.0,0.0,0.0,0.0,0.0,0.0,0.0,0.0,0.0,0.0,0.0,0.0,0.0,0.0,0.0,0.0,0.0,0.0,0.0,0.0,0.0,0.0,0.0,0.0,0.0,0.0,0.0,0.0,0.0,0.0,0.0,0.0,0.0,0.0,0.0,0.0,0.0,0.0,0.0,0.0,0.0,0.0,0.0,0.0,0.0,0.0,0.0,0.0,0.0,0.0,0.0,0.0,0.0,0.0,0.0,0.0,0.0,0.0,0.0,0.0,0.0,0.0,0.0,0.0,0.0,0.0,0.0,0.0,0.0,0.0,0.0,0.0,0.0,0.0,0.0,0.0,0.0,0.0,0.0,0.0,0.0,0.0,0.0,0.0,0.0,0.0,0.0,0.0,0.0,0.0,0.0,0.0,0.0,0.0,0.0,0.0,0.0,0.0,0.0,0.0,0.0,0.0,0.0,0.0,0.0,0.0,0.0,0.0,0.0,0.0,0.0,0.0,0.0,0.0,0.0,0.0,0.0,0.0,0.0,0.0,0.0,0.0,0.0,0.0,0.0,0.0,0.0,0.0,0.0,0.0,0.0,0.0,0.0,0.0,0.0,0.0,0.0,0.0,0.0,0.0,0.0,0.0,0.0,0.0,0.0,0.0,0.0,0.0,0.0,0.0,0.0,0.0,0.0,0.0,0.0,0.0,0.0,0.0,0.0,0.0,0.0,0.0,0.0,0.0,0.0,0.0,0.0,0.0,0.0,0.0,0.0,0.0,0.0,0.0,0.0,0.0,0.0,0.0,0.0,0.0,0.0,0.0,0.0,0.0,0.0,0.0,0.0,0.0,0.0,0.0,0.0,0.0,0.0,0.0,0.0,0.0,0.0,0.0,0.0,0.0,0.0,0.0,0.0,0.0,0.0,0.0,0.0,0.0,0.0,0.0,0.0,0.0,0.0,0.0,0.0,0.0,0.0,0.0,0.0,0.0,0.0,0.0,0.0,0.0,0.0,0.0,0.0,0.0,0.0,0.0,0.0,0.0,0.0,0.0,0.0,0.0,0.0,0.0,0.0,0.0,0.0,0.0,0.0,0.0,0.0,0.0,0.0,0.0,0.0,0.0,0.0,0.0,0.0,0.0,0.0,0.0,0.0,0.0,0.0,0.0,0.0,0.0,0.0,0.0,0.0,0.0,0.0,0.0,0.0,0.0,0.0,0.0,0.0,0.0,0.0,0.0,0.0,0.0,0.0,0.0,0.0,0.0,0.0,0.0,0.0,0.0,0.0,0.0,0.0,0.0,0.0,0.0,0.0,0.0,0.0,0.0,0.0,0.0,0.0,0.0,0.0,0.0,0.0,0.0,0.0,0.0,0.0,0.0,0.0,0.0,0.0,0.0,0.0,0.0,0.0,0.0,0.0,0.0,0.0,0.0,0.0,0.0,0.0,0.0,0.0,0.0,0.0,0.0,0.0,0.0,0.0,0.0,0.0,0.0,0.0,0.0,0.0,0.0,0.0,0.0,0.0,0.0,0.0,0.0,0.0,0.0,0.0,0.0,0.0,0.0,0.0,0.0,0.0,0.0,0.0,0.0,0.0,0.0,0.0,0.0,0.0,0.0,0.0,0.0,0.0,0.0,0.0,0.0,0.0,0.0,0.0,0.0,0.0,0.0,0.0,0.0,0.0,0.0,0.0,0.0,0.0,0.0,0.0,0.0,0.0,0.0,0.0,0.0,0.0,0.0,0.0,0.0,0.0,0.0,0.0,0.0,0.0,0.0,0.0,0.0,0.0,0.0,0.0,0.0,0.0,0.0,0.0,0.0,0.0,0.0,0.0,0.0,0.0,0.0,0.0,0.0,0.0,0.0,0.0,0.0,0.0,0.0,0.0,0.0,0.0,0.0,0.0,0.0,0.0,0.0,0.0,0.0,0.0,0.0,0.0,0.0,0.0,0.0,0.0,0.0,0.0,0.0,0.0,0.0,0.0,0.0,0.0,0.0,0.0,0.0,0.0,0.0,0.0,0.0,0.0,0.0,0.0,0.0,0.0,0.0,0.0,0.0,0.0,0.0,0.0,0.0,0.0,0.0,0.0,0.0,0.0,0.0,0.0,0.0,0.0,0.0,0.0,0.0,0.0,0.0,0.0,0.0,0.0,0.0,0.0,0.0,0.0,0.0,0.0,0.0,0.0,0.0,0.0,0.0,0.0,0.0,0.0,0.0,0.0,0.0,0.0,0.0,0.0,0.0,0.0,0.0,0.0,0.0,0.0,0.0,0.0,0.0,0.0,0.0,0.0,0.0,0.0,0.0,0.0,0.0,0.0,0.0,0.0,0.0,0.0,0.0,0.0,0.0,0.0,0.0,0.0,0.0,0.0,0.0,0.0,0.0,0.0,0.0,0.0,0.0,0.0,0.0,0.0,0.0,0.0,0.0,0.0,0.0,0.0,0.0,0.0,0.0,0.0,0.0,0.0,0.0,0.0,0.0,0.0,0.0,0.0,0.0,0.0,0.0,0.0,0.0,0.0,0.0,0.0,0.0,0.0,0.0,0.0,0.0,0.0,0.0,0.0,0.0,0.0,0.0,0.0,0.0,0.0,0.0,0.0,0.0,0.0,0.0,0.0,0.0,0.0,0.0,0.0,0.0,0.0,0.0,0.0,0.0,0.0,0.0,0.0,0.0,0.0,0.0,0.0,0.0,0.0,0.0,0.0,0.0,0.0,0.0,0.0,0.0,0.0,0.0,0.0,0.0,0.0,0.0,0.0,0.0,0.0,0.0,0.0,0.0,0.0,0.0,0.0,0.0,0.0,0.0,0.0,0.0,0.0,0.0,0.0,0.0,0.0,0.0,0.0,0.0,0.0,0.0,0.0,0.0,0.0,0.0,0.0,0.0,0.0,0.0,0.0,0.0,0.0,0.0,0.0,0.0,0.0,0.0,0.0,0.0,0.0,0.0,0.0,0.0,0.0,0.0,0.0,0.0,0.0,0.0,0.0,0.0,0.0,0.0,0.0,0.0,0.0,0.0,0.0,0.0,0.0,0.0,0.0,0.0,0.0,0.0,0.0,0.0,0.0,0.0,0.0,0.0,0.0,0.0,0.0,0.0,0.0,0.0,0.0,0.0,0.0,0.0,0.0,0.0,0.0,0.0,0.0,0.0,0.0,0.0,0.0,0.0,0.0,0.0,0.0,0.0,0.0,0.0,0.0,0.0,0.0,0.0,0.0,0.0,0.0,0.0,0.0,0.0,0.0,0.0,0.0,0.0,0.0,0.0,0.0,0.0,0.0,0.0,0.0,0.0,0.0,0.0,0.0,0.0,0.0,0.0,0.0,0.0,0.0,0.0,0.0,0.0,0.0,0.0,0.0,0.0,0.0,0.0,0.0,0.0,0.0,0.0,0.0,0.0,0.0,0.0,0.0,0.0,0.0,0.0,0.0,0.0,0.0,0.0,0.0,0.0,0.0,0.0,0.0,0.0,0.0,0.0,0.0,0.0,0.0,0.0,0.0,0.0,0.0,0.0,0.0,0.0,0.0,0.0,0.0,0.0,0.0,0.0,0.0,0.0,0.0,0.0,0.0,0.0,0.0,0.0,0.0,0.0,0.0,0.0,0.0,0.0,0.0,0.0,0.0,0.0,0.0,0.0,0.0,0.0,0.0,0.0,0.0,0.0,0.0,0.0,0.0,0.0,0.0,0.0,0.0,0.0,0.0,0.0,0.0,0.0,0.0,0.0,0.0,0.0,0.0,0.0,0.0,0.0,0.0,0.0,0.0,0.0,0.0,0.0,0.0,0.0,0.0,0.0,0.0,0.0,0.0,0.0,0.0,0.0,0.0,0.0,0.0,0.0,0.0,0.0,0.0,0.0,0.0,0.0,0.0,0.0,0.0,0.0,0.0,0.0,0.0,0.0,0.0,0.0,0.0,0.0,0.0,0.0,0.0,0.0,0.0,0.0,0.0,0.0,0.0,0.0,0.0,0.0,0.0,0.0,0.0,0.0,0.0,0.0,0.0,0.0,0.0,0.0,0.0,0.0,0.0,0.0,0.0,0.0,0.0,0.0,0.0,0.0,0.0,0.0,0.0,0.0,0.0,0.0,0.0,0.0,0.0,0.0,0.0,0.0,0.0,0.0,0.0,0.0,0.0,0.0,0.0,0.0,0.0,0.0,0.0,0.0,0.0,0.0,0.0,0.0,0.0,0.0,0.0,0.0,0.0,0.0,0.0,0.0,0.0,0.0,0.0,0.0,0.0,0.0,0.0,0.0,0.0,0.0,0.0,0.0,0.0,0.0,0.0,0.0,0.0,0.0,0.0,0.0,0.0,0.0,0.0,0.0,0.0,0.0,0.0,0.0,0.0,0.0,0.0,0.0,0.0,0.0,0.0,0.0,0.0,0.0,0.0,0.0,0.0,0.0,0.0,0.0,0.0,0.0,0.0,0.0,0.0,0.0,0.0,0.0,0.0,0.0,0.0,0.0,0.0,0.0,0.0,0.0,0.0,0.0,0.0,0.0,0.0,0.0,0.0,0.0,0.0,0.0,0.0,0.0,0.0,0.0,0.0,0.0,0.0,0.0,0.0,0.0,0.0,0.0,0.0,0.0,0.0,0.0,0.0,0.0,0.0,0.0,0.0,0.0,0.0,0.0,0.0,0.0,0.0,0.0,0.0,0.0,0.0,0.0,0.0,0.0,0.0,0.0,0.0,0.0,0.0,0.0,0.0,0.0,0.0,0.0,0.0,0.0,0.0,0.0,0.0,0.0,0.0,0.0,0.0,0.0,0.0,0.0,0.0,0.0,0.0,0.0,0.0,0.0,0.0,0.0,0.0,0.0,0.0,0.0,0.0,0.0,0.0,0.0,0.0,0.0,0.0,0.0,0.0,0.0,0.0,0.0,0.0,0.0,0.0,0.0,0.0,0.0,0.0,0.0,0.0,0.0,0.0,0.0,0.0,0.0,0.0,0.0,0.0,0.0,0.0,0.0,0.0,0.0,0.0,0.0,0.0,0.0,0.0,0.0,0.0,0.0,0.0,0.0,0.0,0.0,0.0,0.0,0.0,0.0,0.0,0.0,0.0,0.0,0.0,0.0,0.0,0.0,0.0,0.0,0.0,0.0,0.0,0.0,0.0,0.0,0.0,0.0,0.0,0.0,0.0,0.0,0.0,0.0,0.0,0.0,0.0,0.0,0.0,0.0,0.0,0.0,0.0,0.0,0.0,0.0,0.0,0.0,0.0,0.0,0.0,0.0,0.0,0.0,0.0,0.0,0.0,0.0,0.0,0.0,0.0,0.0,0.0,0.0,0.0,0.0,0.0,0.0,0.0,0.0,0.0,0.0,0.0,0.0,0.0,0.0,0.0,0.0,0.0,0.0,0.0,0.0,0.0,0.0,0.0,0.0,0.0,0.0,0.0,0.0,0.0,0.0,0.0,0.0,0.0,0.0,0.0,0.0,0.0,0.0,0.0,0.0,0.0,0.0,0.0,0.0,0.0,0.0,0.0,3.3938,3.3381,0.0,0.0,0.0,0.0,0.0,0.0,0.0,0.0,0.0,0.0,0.0,0.0,0.0,0.0,0.0,0.0,0.0,0.0,0.0,0.0,0.0,0.0,0.0,0.0,0.0,0.0,0.0,0.0,0.0,0.0,0.0,0.0,0.0,0.0,0.0,0.0,0.0,0.0,3.1182,3.1521,3.271,3.2731,3.2515,3.2128,0.0,0.0,0.0,0.0,0.0,0.0,0.0,0.0,0.0,0.0,0.0,0.0,0.0,0.0,0.0,0.0,0.0,0.0,0.0,0.0,0.0,0.0,0.0,0.0,0.0,0.0,0.0,0.0,0.0,0.0,0.0,0.0,0.0,0.0,0.0,0.0,0.0,0.0,0.0,0.0,0.0,0.0,0.0,0.0,0.0,0.0,0.0,0.0,0.0,0.0,0.0,0.0,0.0,0.0,0.0,0.0,0.0,0.0,0.0,0.0,0.0,0.0,0.0,0.0,0.0,0.0,0.0,0.0,0.0,0.0,3.6497,3.4956,0.0,0.0,0.0,0.0,0.0,0.0,0.0,0.0,0.0,0.0,0.0,0.0,0.0,0.0,0.0,0.0,0.0,0.0,0.0,0.0,0.0,0.0,0.0,0.0,2.9887,3.0099,2.9926,0.0,0.0,0.0,0.0,0.0,0.0,0.0,0.0,0.0,0.0,0.0,3.2084,3.269,3.4223,3.5433,3.5007,3.3296,3.3917,0.0,0.0,0.0,0.0,0.0,0.0,0.0,0.0,0.0,0.0,0.0,0.0,0.0,0.0,0.0,0.0,0.0,0.0,0.0,0.0,0.0,0.0,0.0,0.0,0.0,0.0,0.0,0.0,0.0,0.0,0.0,0.0,0.0,0.0,0.0,0.0,0.0,0.0,0.0,0.0,0.0,0.0,0.0,0.0,0.0,0.0,0.0,0.0,0.0,0.0,0.0,0.0,0.0,0.0,0.0,0.0,0.0,0.0,0.0,0.0,0.0,0.0,0.0,4.2699,4.3466,4.4282,4.4282,4.3936,4.3165,4.0634,3.8103,3.5852,3.6381,0.0,0.0,0.0,0.0,0.0,0.0,0.0,0.0,0.0,0.0,0.0,0.0,0.0,0.0,0.0,0.0,0.0,0.0,0.0,0.0,0.0,2.9804,3.0246,3.1332,3.0438,3.0265,0.0,0.0,0.0,0.0,0.0,0.0,0.0,3.0266,3.056,3.1823,3.4564,3.645,3.7455,3.9892,3.9946,3.7877,3.4696,3.434,3.594,0.0,0.0,0.0,0.0,0.0,0.0,0.0,0.0,0.0,0.0,0.0,0.0,0.0,0.0,0.0,0.0,0.0,0.0,0.0,0.0,0.0,0.0,0.0,0.0,0.0,0.0,0.0,0.0,0.0,0.0,0.0,0.0,0.0,0.0,0.0,0.0,0.0,0.0,0.0,0.0,0.0,3.4443,3.3767,0.0,0.0,0.0,0.0,0.0,0.0,0.0,0.0,0.0,0.0,0.0,0.0,0.0,4.117,4.268,4.4147,4.4962,4.5193,4.6501,4.6955,4.6651,4.6651,4.6591,4.6476,4.6036,0.0,3.8558,3.722,0.0,0.0,0.0,0.0,0.0,0.0,0.0,0.0,0.0,0.0,0.0,0.0,0.0,0.0,0.0,0.0,0.0,0.0,0.0,0.0,0.0,3.1281,3.2003,3.2867,3.3842,3.3723,3.2097,0.0,0.0,0.0,0.0,0.0,3.0266,3.0553,3.2049,3.478,3.8759,4.0893,4.1331,4.3429,4.3757,4.2537,4.0475,3.8086,3.5488,3.4301,0.0,0.0,0.0,0.0,0.0,0.0,0.0,0.0,0.0,0.0,0.0,0.0,0.0,0.0,0.0,0.0,0.0,0.0,0.0,0.0,0.0,0.0,0.0,0.0,0.0,0.0,0.0,0.0,0.0,0.0,0.0,0.0,0.0,0.0,0.0,0.0,0.0,0.0,0.0,3.5526,3.6646,3.5817,3.6975,3.7205,0.0,0.0,0.0,0.0,0.0,0.0,0.0,0.0,0.0,4.2446,4.3598,4.4685,4.5579,4.7809,4.9044,4.9374,5.091,5.1523,5.1322,5.1624,5.1423,5.082,5.082,4.8598,4.4789,4.1698,3.9429,3.7783,0.0,0.0,0.0,0.0,3.4674,3.5293,0.0,0.0,0.0,0.0,0.0,0.0,0.0,0.0,0.0,0.0,0.0,0.0,3.1884,3.3043,3.4223,3.5479,3.6935,3.6684,3.4073,3.3897,0.0,0.0,0.0,2.9804,2.9804,3.1708,3.4597,3.8492,4.261,4.4945,4.5522,4.6928,4.7355,4.6928,4.6225,4.276,3.741,3.6464,3.467,3.2407,0.0,0.0,0.0,0.0,0.0,0.0,0.0,0.0,0.0,0.0,0.0,0.0,0.0,0.0,0.0,0.0,0.0,0.0,0.0,0.0,0.0,0.0,0.0,0.0,0.0,0.0,0.0,0.0,0.0,0.0,0.0,0.0,0.0,0.0,0.0,0.0,0.0,3.7573,3.854,3.749,3.8789,3.8921,0.0,0.0,0.0,0.0,0.0,0.0,4.1847,4.304,4.4436,4.6074,4.7475,4.8598,4.9407,5.1523,5.2829,5.3381,5.4461,5.5024,5.5024,5.5265,5.4762,5.3708,5.3708,5.2377,4.9931,4.5915,4.3055,4.0952,3.8798,3.8031,3.8089,3.7739,3.7817,3.8492,0.0,0.0,0.0,0.0,0.0,0.0,0.0,0.0,0.0,0.0,0.0,3.0809,3.347,3.4728,3.6661,3.9872,3.8366,3.7612,3.8492,3.417,3.1712,3.2043,3.0608,2.9804,2.9804,3.3969,3.8064,4.1961,4.5296,4.8002,5.006,5.0745,5.1021,5.0946,4.9841,4.7707,4.4673,3.9875,3.7787,3.7262,3.3061,0.0,0.0,0.0,0.0,0.0,0.0,0.0,0.0,0.0,0.0,0.0,0.0,0.0,0.0,0.0,0.0,0.0,0.0,0.0,0.0,0.0,0.0,0.0,0.0,0.0,0.0,0.0,0.0,0.0,0.0,0.0,0.0,0.0,0.0,0.0,0.0,0.0,0.0,3.7815,4.1213,0.0,0.0,0.0,0.0,4.17,4.2906,4.4414,4.6368,4.7555,4.924,5.1624,5.226,5.3617,5.5742,5.5892,5.6207,5.6734,5.6308,5.6118,5.6118,5.5616,5.4762,5.3708,5.3708,5.3055,5.1724,4.8316,4.5904,4.4166,4.2152,4.1665,4.2007,4.1093,4.1696,4.2846,0.0,0.0,0.0,0.0,0.0,0.0,0.0,0.0,0.0,2.9679,3.1055,3.2964,3.5705,3.8291,4.0852,4.3489,4.3639,4.2682,4.0575,3.7437,3.5253,3.4354,3.2394,3.2867,3.6081,3.8768,4.2361,4.6984,4.8862,5.0921,5.308,5.2929,5.303,5.3391,5.2578,5.1322,4.9364,4.3639,4.02,3.8241,3.45,3.2483,0.0,0.0,0.0,0.0,0.0,0.0,0.0,0.0,0.0,0.0,0.0,0.0,0.0,0.0,0.0,0.0,0.0,0.0,0.0,0.0,0.0,0.0,0.0,0.0,0.0,0.0,0.0,0.0,0.0,0.0,0.0,0.0,0.0,0.0,0.0,0.0,0.0,4.3835,4.5947,0.0,4.39,4.3307,4.3677,4.501,4.6323,4.7982,5.0104,5.1626,5.3307,5.5214,5.5842,5.6495,5.7298,5.7976,5.8077,5.76,5.7812,5.7361,5.6339,5.6228,5.5361,5.4036,5.4036,5.3615,5.2812,5.1278,4.951,4.7626,4.585,4.5116,4.5057,4.4709,4.5014,4.5613,0.0,0.0,0.0,0.0,0.0,0.0,0.0,0.0,2.8524,2.9654,3.2039,3.4751,3.7713,4.1356,4.4647,4.7205,4.7079,4.5668,4.2883,3.922,3.6585,3.5282,3.4,3.5481,4.0149,4.261,4.5954,5.0167,5.1883,5.3507,5.515,5.4536,5.4662,5.5365,5.4411,5.3607,5.2628,4.8008,4.3944,4.0276,3.7111,3.5303,3.4048,0.0,0.0,0.0,0.0,0.0,0.0,0.0,0.0,0.0,0.0,0.0,0.0,0.0,0.0,0.0,0.0,0.0,0.0,0.0,0.0,0.0,0.0,0.0,0.0,0.0,0.0,0.0,0.0,0.0,0.0,0.0,0.0,0.0,0.0,4.3992,4.6664,4.8351,5.017,5.0604,4.8904,4.8114,4.8268,4.9603,5.05,5.19,5.3959,5.5089,5.6369,5.7826,5.8077,5.8353,5.8704,5.9116,5.8939,5.8263,5.8365,5.7712,5.6462,5.637,5.5569,5.4193,5.4193,5.3898,5.3358,5.3014,5.2064,5.0747,4.9288,4.8531,4.8156,4.8223,4.8363,4.8631,0.0,0.0,0.0,0.0,0.0,0.0,0.0,2.843,2.8524,2.9654,3.2721,3.6058,3.9396,4.374,4.7732,5.1054,4.8259,4.61,4.5522,3.922,3.5282,3.4828,3.5382,3.7564,4.1503,4.5292,4.8579,5.1431,5.4059,5.5641,5.6194,5.5641,5.5968,5.6935,5.534,5.4672,5.4572,5.2904,4.9088,4.3865,4.1003,3.9496,3.8492,0.0,0.0,0.0,0.0,0.0,0.0,0.0,0.0,0.0,0.0,0.0,0.0,0.0,0.0,0.0,0.0,0.0,0.0,0.0,0.0,0.0,0.0,0.0,0.0,0.0,0.0,0.0,0.0,0.0,0.0,0.0,0.0,0.0,4.3152,4.7229,5.0307,5.0966,5.3687,5.4587,5.2186,5.2624,5.3748,5.5365,5.5516,5.6244,5.7901,5.7976,5.8453,5.9508,5.9018,5.9243,6.0297,5.9381,5.8912,5.8912,5.79,5.7127,5.6611,5.6071,5.5237,5.423,5.423,5.3936,5.342,5.342,5.3395,5.3286,5.24,5.1722,5.1263,5.1464,5.1741,5.193,0.0,0.0,0.0,0.0,0.0,0.0,0.0,2.843,2.8649,3.0161,3.4276,3.8216,4.118,4.5828,4.954,5.1699,4.8805,4.6502,4.5547,3.922,3.5983,3.7061,3.9572,4.3137,4.7801,4.893,5.1071,5.426,5.4647,5.529,5.6194,5.5641,5.5968,5.696,5.6143,5.5993,5.6257,5.544,5.3507,5.0519,4.5347,4.2181,4.0273,0.0,0.0,0.0,0.0,0.0,0.0,0.0,0.0,0.0,0.0,0.0,0.0,0.0,0.0,0.0,0.0,0.0,0.0,0.0,0.0,0.0,0.0,0.0,0.0,0.0,0.0,0.0,0.0,0.0,0.0,0.0,4.362,4.6969,4.7415,5.0845,5.4119,5.629,5.7608,5.8114,5.7406,5.7184,5.7298,5.7763,5.8504,5.9156,5.9633,5.9659,5.9985,6.0688,5.9872,5.9765,6.0438,5.9519,5.9207,5.9537,5.8167,5.7457,5.7311,5.6464,5.5718,5.5065,5.5065,5.4751,5.4243,5.3856,5.3469,5.3156,5.3058,5.274,5.2343,5.2405,5.2369,5.2152,0.0,0.0,0.0,0.0,0.0,0.0,0.0,2.8304,2.8775,3.0683,3.568,3.9948,4.2286,4.6954,5.0243,5.0996,4.8234,4.5472,4.3212,3.8994,3.7488,3.9673,4.3416,4.7205,5.1046,5.2026,5.3683,5.6068,5.5993,5.652,5.7575,5.7047,5.7374,5.834,5.7374,5.7223,5.7663,5.7148,5.6219,5.4762,5.0963,4.7851,4.5066,4.1379,3.9998,3.9671,3.686,3.6584,3.7186,3.4876,0.0,0.0,0.0,0.0,0.0,0.0,0.0,0.0,0.0,0.0,0.0,0.0,0.0,0.0,0.0,0.0,0.0,0.0,0.0,0.0,0.0,0.0,0.0,0.0,4.7483,5.1085,5.3165,5.5309,5.7436,5.9521,6.0638,6.1165,6.0914,6.0613,6.0437,6.0412,6.0788,6.0935,6.0736,6.0736,6.0807,6.0995,6.0193,6.0008,6.0567,5.9386,5.8925,5.9218,5.7925,5.7339,5.7314,5.6546,5.602,5.5722,5.5506,5.5217,5.4904,5.4375,5.3966,5.3705,0.0,0.0,0.0,0.0,5.2816,5.2608,0.0,0.0,0.0,0.0,0.0,0.0,0.0,2.8072,2.8875,3.1035,3.6508,4.0852,4.2462,4.6954,4.969,4.9264,4.6702,4.3589,4.0023,3.9094,3.9948,4.2916,4.7034,5.0343,5.2703,5.4612,5.6093,5.7085,5.765,5.8378,5.9307,5.8855,5.9156,6.0085,5.8629,5.8328,5.8842,5.8378,5.7876,5.7311,5.6796,5.4536,5.0971,4.6376,4.5447,4.605,4.1856,3.9898,3.9019,3.7087,0.0,0.0,0.0,0.0,0.0,0.0,0.0,0.0,0.0,0.0,0.0,0.0,0.0,0.0,0.0,0.0,0.0,0.0,0.0,0.0,0.0,0.0,0.0,0.0,5.1324,5.4465,5.9131,5.9846,6.0297,6.1341,6.2731,6.3434,6.2932,6.275,6.2659,6.2741,6.2249,6.1771,6.134,6.134,0.0,0.0,0.0,6.0204,6.0809,5.9236,5.8435,5.8483,5.7493,5.7005,5.7053,5.6524,5.6308,5.6332,5.5818,5.5554,5.5458,5.4904,5.4616,5.4423,5.351,5.2897,5.2524,5.3017,5.3162,5.309,0.0,0.0,0.0,0.0,0.0,0.0,0.0,2.7821,2.875,3.0512,3.5278,3.8969,4.0199,4.3991,4.6577,4.6928,4.4421,4.2135,4.045,4.1806,4.4317,4.8008,5.0695,5.3582,5.6696,5.6746,5.701,5.7725,5.7851,5.8001,5.8202,5.8102,5.8403,5.9006,5.8704,5.9068,6.001,5.9885,5.9784,5.9595,5.9081,5.6344,5.2402,5.0544,4.922,4.7989,4.5351,4.5648,4.6828,4.3363,4.2283,4.1854,3.8994,3.5855,0.0,0.0,0.0,0.0,0.0,0.0,0.0,0.0,0.0,0.0,0.0,0.0,0.0,0.0,0.0,0.0,0.0,0.0,0.0,5.0377,5.4659,5.8522,6.115,6.2011,6.2579,6.3133,6.3186,6.3253,6.3484,6.2456,6.1895,6.229,6.1862,6.1565,6.1482,6.1441,6.1597,6.1956,6.1108,6.0876,6.1411,5.9515,5.8779,5.9189,5.7734,0.0,5.7646,5.7117,5.7093,5.7478,5.6949,5.6468,5.5996,5.5482,5.4736,5.3942,5.375,5.3606,5.3534,5.363,5.3413,5.3041,0.0,0.0,0.0,0.0,0.0,0.0,0.0,2.7745,2.8699,3.0387,3.4427,3.7513,3.8366,4.1178,4.2785,4.2208,4.0124,3.9446,4.08,4.3761,4.733,5.1473,5.4587,5.7123,5.9056,5.883,5.8956,5.9533,5.9257,5.9408,5.9935,5.9684,5.9684,5.996,5.996,6.0236,6.0763,6.104,6.1165,6.114,6.0864,5.893,5.6068,5.4687,5.3306,5.1858,4.9891,4.9565,4.954,4.6502,4.5066,4.4163,4.1733,3.8869,3.6006,0.0,0.0,0.0,0.0,0.0,0.0,0.0,0.0,0.0,0.0,0.0,0.0,0.0,0.0,4.1505,4.3438,0.0,5.123,5.4802,5.7574,6.0045,6.2179,6.2804,6.3153,6.3635,6.3777,6.3791,6.3727,6.3342,6.2826,6.2307,6.2257,6.1926,6.1199,6.1133,6.1293,6.1619,6.0899,6.0894,6.1716,6.0177,5.9522,5.9762,5.844,5.7959,5.8175,5.7646,5.755,5.779,5.7526,5.7117,5.6524,5.5746,5.4784,5.3785,5.3785,5.3785,5.3785,5.3785,5.3654,5.3413,0.0,0.0,0.0,0.0,0.0,0.0,0.0,2.7695,2.8605,3.0086,3.347,3.5931,3.6356,3.8191,3.8793,3.7337,3.666,3.799,4.1854,4.5844,5.0085,5.4637,5.8027,6.0085,6.0638,6.0537,6.0713,6.119,6.0814,6.1065,6.1843,6.1492,6.1291,6.119,6.119,6.124,6.1366,6.1818,6.2069,6.2169,6.2169,6.1215,5.9659,5.819,5.6846,5.5491,5.3833,5.195,4.9992,4.8178,4.6396,4.4715,4.3542,4.1708,3.9446,3.651,3.5002,0.0,0.0,0.0,0.0,0.0,0.0,0.0,0.0,3.7839,3.9647,4.1555,4.4041,4.6853,4.9992,5.2176,5.4848,5.8864,5.9746,6.0583,6.2465,6.2704,6.2953,6.3536,6.3931,6.4023,6.3705,6.3807,6.3372,6.2118,6.2295,6.1956,6.0886,6.0819,6.0936,6.1152,6.0646,6.0748,6.1638,6.0652,6.0165,6.0045,5.9161,5.8704,5.8584,5.8151,5.7959,5.7959,5.7742,5.7285,5.6636,5.565,5.4688,5.3785,5.3785,5.3785,5.3785,5.3785,5.375,5.3678,0.0,0.0,0.0,0.0,0.0,0.0,0.0,0.0,0.0,2.8988,3.1637,3.3492,3.3542,3.4625,3.5079,3.4424,3.7337,4.0877,4.4769,4.9113,5.3733,5.8629,6.0236,6.124,6.1793,6.1341,6.1115,6.119,6.1617,6.1642,6.1291,6.1718,6.1642,6.119,6.119,6.1441,6.1918,6.1969,6.2295,6.2706,6.2706,6.2044,6.0914,6.0211,5.8616,5.6584,5.4988,5.2386,4.964,4.9389,4.7883,4.6175,4.6446,4.5342,4.331,4.0099,3.7313,3.5079,3.3872,3.3671,3.4274,3.618,3.681,3.8517,0.0,4.5819,4.6747,4.9439,5.1833,5.3517,5.3969,5.6313,5.8514,5.9522,6.0252,6.0896,6.158,6.1771,6.2152,6.3084,6.294,6.2861,6.3146,6.2099,6.1274,6.1004,6.0687,6.0646,6.0972,6.0996,6.1218,6.1686,6.12,6.0983,6.1104,6.0526,5.9972,5.9474,5.9353,5.9065,5.8608,5.8536,5.8512,5.8464,5.7526,5.6516,5.553,5.4928,5.4351,5.3785,5.3785,5.3785,5.3785,5.3785,5.3534,5.3186,0.0,0.0,0.0,0.0,0.0,0.0,0.0,0.0,0.0,0.0,3.0487,3.1512,3.1231,3.1587,3.1763,3.1537,3.5029,3.9195,4.3768,4.9088,5.4461,5.9759,6.1366,6.2546,6.3425,6.2596,6.2295,6.2647,6.2546,6.237,6.2144,6.237,6.2195,6.1667,6.1994,6.2094,6.2019,6.2345,6.2621,6.2781,6.2781,6.2169,6.1065,5.9859,5.7223,5.3984,5.2628,5.0444,0.0,4.6652,4.5623,4.4945,4.5468,4.4062,4.1804,3.9798,3.7688,3.5981,3.5855,3.6533,3.7638,3.922,4.1781,4.4773,4.7857,4.9816,5.1406,5.2969,5.5271,5.6999,5.7159,5.8713,6.0224,6.1088,6.0971,6.1199,6.2318,6.1704,6.1334,6.1802,6.1728,6.2056,6.3093,6.2379,6.1734,6.1389,6.1202,6.119,6.1465,6.0887,6.0935,6.1758,6.0965,6.0839,6.1446,6.0959,6.0574,6.0333,6.0003,5.957,5.9041,5.8728,5.844,5.8079,5.6981,5.6107,5.5361,5.4832,5.4303,5.3785,5.3785,5.3785,5.3785,5.3785,5.3678,5.351,0.0,0.0,0.0,0.0,0.0,0.0,0.0,0.0,0.0,0.0,2.9659,3.0231,2.9829,2.9804,2.9804,2.9804,3.3147,3.7338,4.2208,4.8234,5.4034,5.9408,6.1542,6.3124,6.427,6.3475,6.3274,6.3701,6.3425,6.3124,6.2781,6.2957,6.2772,6.2245,6.2647,6.2556,6.227,6.2647,6.2781,6.2781,6.2631,6.1768,6.0286,5.8152,5.4587,5.0586,4.9816,4.7375,4.4364,4.2936,4.2133,4.1932,4.2936,4.198,4.0325,3.9371,3.7939,3.6708,3.711,3.8768,4.0777,4.2482,4.6451,5.0218,5.1373,5.3553,5.5674,5.6701,5.8284,5.9601,6.0027,6.0457,6.098,6.1764,6.1314,6.1238,6.2444,6.1311,6.0476,6.0568,6.0069,6.0315,6.1862,6.2032,6.1952,6.1609,6.1547,6.1662,6.2018,6.1133,6.0989,6.1782,6.0893,6.07,6.135,6.1128,6.0935,6.0791,6.055,6.0165,5.9594,5.8897,5.8392,5.7959,5.6861,5.6059,5.5361,5.4977,5.4423,5.3785,5.3785,5.3785,5.3785,5.3785,5.3785,5.3785,0.0,0.0,0.0,0.0,0.0,0.0,0.0,0.0,0.0,0.0,0.0,0.0,0.0,2.9804,2.9804,2.9804,3.2821,3.661,4.1076,4.7048,5.2703,5.775,6.0588,6.2571,6.3701,6.3676,6.3676,6.3701,6.4178,6.3877,6.2807,6.34,6.335,6.2756,6.2781,6.2781,6.2756,6.2781,6.2781,6.2731,6.2245,6.0738,5.8428,5.5114,5.1122,4.7249,4.7224,4.3335,3.8366,3.8869,3.7965,3.701,3.917,4.0149,4.04,3.9848,3.8492,3.7185,3.721,3.9597,4.2889,4.612,4.9859,5.3472,5.6157,5.8211,6.0124,6.2148,6.1976,6.168,6.2705,6.1718,6.0817,6.0841,6.0942,6.1007,6.1055,6.0117,5.9467,5.9426,5.7622,5.6997,5.8601,6.0141,6.1031,6.1031,6.1007,6.1465,6.2504,6.2047,6.1758,6.1807,6.1272,6.0743,6.0261,6.0767,6.0743,6.0237,6.0743,6.0694,6.0165,5.9065,5.8584,5.8512,5.7454,5.6395,5.5385,5.5385,5.476,5.3785,5.3785,5.3785,5.3785,5.3785,5.3785,5.3785,0.0,0.0,0.0,0.0,0.0,0.0,0.0,0.0,0.0,0.0,0.0,0.0,0.0,0.0,0.0,0.0,3.1788,3.4625,3.8341,4.3966,4.9063,5.3331,5.7575,6.0337,6.1441,6.2195,6.2747,6.3124,6.3299,6.3199,6.2781,6.2647,6.2672,6.2781,6.2446,6.2496,6.2756,6.2446,6.2496,6.2581,6.0236,5.883,5.765,5.2804,4.7914,4.3394,0.0,3.8417,3.5494,3.4705,3.4009,3.3698,3.5332,3.5454,3.5127,3.568,3.7034,3.8718,4.0552,4.4019,4.7914,5.1222,5.4498,5.7398,5.9391,6.0905,6.1721,6.1072,6.0619,5.9993,5.8716,5.806,5.7916,5.8684,5.9725,6.0863,6.1879,6.2023,6.1085,5.8632,5.8632,5.8079,5.6131,5.7405,5.9065,6.0863,6.067,6.1061,6.2504,6.2095,6.1951,6.2312,6.1807,6.1253,6.0743,6.1229,6.1061,6.0213,6.0406,6.0021,5.9113,5.8752,5.8223,5.7502,5.6765,5.626,5.589,5.5169,5.4664,5.4303,5.3942,5.3785,5.3785,5.3785,5.3785,5.3785,0.0,0.0,0.0,0.0,0.0,0.0,0.0,0.0,0.0,0.0,0.0,0.0,0.0,0.0,0.0,0.0,0.0,3.2893,3.583,4.0275,4.4543,4.8435,5.2076,5.4687,5.6168,5.652,5.7148,5.8102,5.8504,5.8905,5.9269,5.9533,5.9834,6.0161,6.0211,6.0373,6.0674,6.0161,5.9784,5.9307,5.6194,5.421,5.2628,4.7657,4.305,0.0,3.611,3.395,3.2296,3.1481,3.1111,3.1203,3.2268,3.2828,3.3319,3.4449,3.7436,4.1028,4.4019,4.7914,5.1904,5.5093,5.7845,6.0025,6.1119,6.1663,6.1425,5.9772,5.8325,5.6892,5.5093,5.4111,5.4135,5.5833,5.7285,5.9089,6.1638,6.1638,6.0676,5.8872,5.8728,5.8055,5.6203,5.6636,5.7959,6.0261,6.067,6.1301,6.2528,6.2432,6.2432,6.2576,6.2263,6.1807,6.132,6.1614,6.135,6.0502,6.0117,5.9546,5.8872,5.8488,5.7935,5.7285,5.6717,5.638,5.6116,5.5265,5.4784,5.4544,5.4015,5.3785,5.3785,5.3785,5.3785,5.3785,0.0,0.0,0.0,0.0,0.0,0.0,0.0,0.0,0.0,0.0,0.0,0.0,0.0,0.0,0.0,0.0,0.0,0.0,3.3596,3.6307,3.9496,4.3212,4.4618,4.6301,4.8416,4.7531,4.7776,4.9389,5.0494,5.1574,5.2619,5.4175,5.4963,5.5028,5.6032,5.6472,5.6446,5.5906,5.4752,5.3096,5.026,4.7274,4.4009,4.0224,3.6915,3.406,3.2152,3.0307,2.8831,2.9307,2.9543,2.9717,3.0333,3.2546,3.518,3.6383,3.9873,4.4077,4.7469,5.1247,5.4878,5.7661,5.9844,6.1333,6.1367,6.0547,5.9417,5.8276,5.5262,5.2586,5.1879,5.0239,4.9913,5.2584,5.4063,5.6347,6.0574,5.9474,5.8752,6.0165,5.8103,5.7101,5.8512,5.7766,5.7814,5.9353,6.0869,6.1975,6.2552,6.3081,6.3085,6.2648,6.2624,6.2384,6.1855,6.1782,6.1494,6.1031,5.9931,5.9402,5.9305,5.8319,5.7814,5.7742,5.7197,5.6692,5.6188,5.565,5.5097,5.4592,5.4039,5.3785,5.3785,5.3785,5.3785,5.3785,0.0,0.0,0.0,0.0,0.0,0.0,0.0,0.0,0.0,0.0,0.0,0.0,0.0,0.0,0.0,0.0,0.0,0.0,3.1366,3.4,3.6158,3.7563,4.1078,4.3291,4.3869,4.5196,4.6125,4.6527,4.723,4.7839,4.8332,4.8326,4.8711,4.9353,4.9172,4.9346,4.9644,4.87,4.8334,4.8011,4.4426,4.2708,4.1889,3.8216,3.5361,3.3258,3.2325,3.0527,2.875,2.9896,3.1405,3.2814,3.3124,3.5598,3.8843,4.0933,4.4634,4.8707,5.1603,5.5285,5.8508,5.9767,6.0736,6.1179,6.0106,5.8707,5.6838,5.3847,5.0912,4.8203,4.611,4.6922,4.8772,5.1465,5.5746,5.981,6.2889,6.3875,6.3706,6.2167,6.171,6.0874,5.9329,5.9305,5.969,6.055,6.0622,6.1181,6.2528,6.3081,6.3229,6.3109,6.3109,6.2913,6.2384,6.1633,6.1368,6.1566,6.0484,5.957,5.8776,5.8512,5.7959,5.7213,5.7069,5.6909,5.6717,5.5794,5.5313,5.5097,5.4183,5.3785,5.3785,5.3785,5.3785,5.3785,0.0,0.0,0.0,0.0,0.0,0.0,0.0,0.0,0.0,0.0,0.0,0.0,0.0,0.0,0.0,0.0,0.0,0.0,0.0,3.1692,3.2896,3.3674,3.5655,3.6984,3.7436,3.8215,3.9069,4.0075,4.0601,4.1422,4.2454,4.2572,4.2882,4.3305,4.3478,4.3701,4.3948,4.3082,4.2517,0.0,0.0,3.7196,3.6529,3.4092,3.2377,3.128,3.1182,3.0774,3.0517,3.1992,3.3809,3.57,3.7244,4.0117,4.3482,4.634,4.961,5.2893,5.546,5.828,6.0638,6.1081,6.1196,6.0505,5.7837,5.5974,5.3363,4.8344,4.5554,4.3154,4.0503,4.2423,4.5477,4.8844,5.3894,5.88,6.2889,6.4211,6.45,6.3706,6.3614,6.3061,6.1614,6.1518,6.1879,6.2648,6.1566,6.1494,6.2841,6.3133,6.3398,6.3638,6.3422,6.3157,6.2913,6.1855,6.1494,6.1782,6.046,5.9402,5.8584,5.8367,5.779,5.6981,5.6981,5.6981,5.6949,5.6107,5.5626,5.5313,5.4496,5.4015,5.3709,5.2982,5.2717,5.2603,0.0,0.0,0.0,0.0,0.0,0.0,0.0,0.0,0.0,0.0,0.0,0.0,0.0,0.0,0.0,0.0,0.0,0.0,0.0,0.0,3.0226,3.1155,3.0301,3.0231,3.118,3.0236,3.0693,3.262,3.3054,3.4172,3.5929,3.6898,3.7246,3.717,3.8157,3.8576,3.8551,3.8034,3.6949,3.5446,3.3455,3.1786,3.0409,0.0,0.0,2.9111,2.9546,3.0812,3.2612,3.4774,3.6702,3.8755,4.1993,4.5342,4.873,5.189,5.4384,5.6636,5.8743,6.0497,6.1735,6.1834,6.125,5.9527,5.5357,5.272,4.9344,4.2801,4.0066,3.8142,3.5737,3.8094,4.1846,4.6295,5.0997,5.6227,6.2263,6.3105,6.3682,6.527,6.4909,6.4503,6.4503,6.3902,6.3902,6.4957,6.3153,6.2432,6.3349,6.3398,6.359,6.3974,6.3542,6.3301,6.3301,6.2384,6.1879,6.1782,6.0291,5.9281,5.868,5.8223,5.7742,5.7237,5.7165,5.7117,5.7069,5.6428,5.5938,5.5458,5.4832,5.4175,5.3404,5.1877,5.1139,5.0753,0.0,0.0,0.0,0.0,0.0,0.0,0.0,0.0,0.0,0.0,0.0,0.0,0.0,0.0,0.0,0.0,0.0,0.0,0.0,0.0,0.0,3.0055,2.9905,2.9899,3.0055,2.9679,2.9656,3.005,2.997,3.0237,3.0859,3.1076,3.1266,3.1511,3.1702,3.1799,3.175,3.1218,3.081,3.0495,2.9677,2.9169,2.8903,2.8904,0.0,0.0,2.9131,2.9806,3.1435,3.6822,4.0278,4.2907,4.6201,5.0014,5.3728,5.5918,5.7777,5.9383,6.0719,6.1646,6.2282,6.236,6.0945,5.8475,5.4296,4.9707,4.4842,3.9733,3.6723,3.4703,3.3861,3.7372,4.2206,4.7762,5.2692,5.811,6.4885,6.5823,6.6424,6.8035,6.7338,6.6737,6.6737,6.5462,6.4909,6.551,6.4019,6.3301,6.3902,6.395,6.3782,6.3446,6.3349,6.3301,6.3301,6.2744,6.2239,6.1782,6.108,6.0213,5.9257,5.9161,5.8824,5.8295,5.7862,5.767,5.7598,5.6596,5.614,5.5947,5.5001,5.3717,5.2295,5.157,5.042,4.9209,0.0,0.0,0.0,0.0,0.0,0.0,0.0,0.0,0.0,0.0,3.4321,3.3115,0.0,0.0,0.0,0.0,0.0,0.0,0.0,0.0,0.0,0.0,0.0,0.0,2.9804,2.9682,2.9749,3.0004,0.0,2.9441,2.98,2.9386,2.9205,2.9268,2.9268,2.9268,2.9244,2.9003,2.8944,2.902,2.8659,2.8558,2.8677,0.0,0.0,0.0,2.9204,3.0193,3.2013,3.5783,4.025,4.5132,5.0348,5.438,5.7475,5.9292,6.0626,6.1801,6.3161,6.3619,6.3719,6.374,6.091,5.6719,5.1417,4.6271,4.1076,3.5473,3.3501,3.2563,3.1791,3.5737,4.0623,4.51,4.9109,5.4399,6.2119,6.3201,6.4404,6.7675,6.7867,6.7602,6.7314,6.6352,6.5847,6.6087,6.5414,6.4981,6.4957,6.4692,6.4119,6.3325,6.3301,6.3301,6.3301,6.2841,6.2312,6.1782,6.1272,6.0454,5.9378,5.9378,5.9089,5.8584,5.8319,5.8223,5.8175,5.767,5.7269,5.6853,5.5146,5.3759,5.2502,4.9968,4.851,4.7646,0.0,0.0,0.0,0.0,0.0,0.0,0.0,3.2893,3.4,3.7613,3.7764,3.6658,3.4246,3.1989,0.0,0.0,0.0,0.0,0.0,0.0,0.0,0.0,0.0,0.0,2.9804,0.0,0.0,3.0273,2.9603,0.0,0.0,0.0,0.0,0.0,2.8502,2.8502,2.8522,2.8619,2.8767,0.0,0.0,2.8767,2.8902,0.0,0.0,0.0,0.0,3.0577,3.235,3.4644,3.9008,4.4677,5.1356,5.6068,5.9408,6.062,6.1985,6.3435,6.4827,6.5086,6.49,6.4873,6.0711,5.5073,4.8916,4.3457,3.807,3.2273,3.1214,3.1165,3.0564,3.4102,3.8334,4.2019,4.5261,5.0263,5.8697,6.0436,6.2528,6.7097,6.8011,6.8107,6.7675,6.7049,6.6616,6.6496,6.6496,6.6256,6.5727,6.5101,6.4311,6.3494,6.3349,6.3301,6.3301,6.2937,6.248,6.1975,6.1518,6.0791,5.9714,5.9714,5.9426,5.8921,5.8824,5.8752,5.8711,5.8222,5.7748,5.7156,5.4659,5.3216,5.209,4.8392,4.6784,4.6268,0.0,0.0,0.0,0.0,0.0,0.0,0.0,3.3872,3.6033,4.0374,3.9647,3.824,3.6959,3.4851,0.0,0.0,0.0,0.0,0.0,0.0,0.0,0.0,0.0,0.0,0.0,0.0,0.0,2.9224,2.8998,0.0,0.0,0.0,0.0,0.0,0.0,2.8502,2.8526,2.9027,0.0,0.0,0.0,0.0,0.0,0.0,0.0,0.0,0.0,2.991,3.0789,3.5408,3.7715,3.962,4.5317,5.2176,5.8001,5.7709,6.0255,6.3337,6.4399,6.4793,6.4894,6.4807,6.0153,5.4135,4.8724,4.2303,3.6362,3.244,3.0877,3.0516,3.1382,3.3092,3.6049,4.1249,4.4708,4.9589,5.7622,6.1229,6.4431,6.83,6.8805,6.8805,6.8757,6.7819,6.7001,6.652,6.6496,6.6256,6.5727,6.4741,6.4119,6.4022,6.3542,6.3301,6.3301,6.3253,6.3009,6.2528,6.2456,6.1922,6.0863,6.0863,6.0574,6.0045,5.9522,5.9305,5.9157,5.6949,5.6026,5.5679,5.2847,5.08,4.9236,4.7941,4.6462,4.5153,0.0,0.0,0.0,0.0,0.0,0.0,0.0,3.3671,3.5805,4.158,4.1178,4.0148,3.9721,3.7713,3.46,0.0,0.0,0.0,0.0,0.0,0.0,0.0,0.0,0.0,0.0,0.0,2.9605,2.9527,2.9287,0.0,0.0,0.0,0.0,0.0,0.0,2.8502,2.8502,2.8739,0.0,0.0,0.0,0.0,0.0,0.0,0.0,0.0,0.0,0.0,3.0512,3.1993,3.4287,3.6686,3.7816,4.3354,5.0235,5.4398,5.8166,6.168,6.4739,6.6145,6.6448,6.5173,5.9624,5.298,4.732,4.0711,3.4895,3.1839,3.0612,3.0347,3.1069,3.225,3.4294,3.8022,3.9152,4.2321,5.0311,5.2812,5.6492,6.3754,6.5173,6.6568,6.9117,6.842,6.7554,6.7001,6.6664,6.64,6.6183,6.5173,6.4308,6.3638,6.3398,6.3301,6.3301,6.3301,6.3037,6.2576,6.2576,6.2191,6.1446,6.1152,6.108,6.1066,5.9054,5.8351,5.8415,5.6018,5.5039,5.4799,5.2217,5.0685,4.9593,4.7526,4.6207,4.5371,0.0,0.0,0.0,0.0,0.0,0.0,3.3093,3.3746,3.583,4.1505,4.1403,4.0876,4.1051,3.8492,3.5228,3.1336,0.0,0.0,0.0,0.0,0.0,0.0,0.0,0.0,0.0,0.0,2.976,2.9682,2.9671,2.9475,0.0,0.0,2.8882,2.8578,0.0,0.0,0.0,0.0,0.0,0.0,0.0,0.0,0.0,0.0,0.0,0.0,0.0,0.0,0.0,0.0,0.0,3.3881,3.2921,3.6414,4.2333,4.9748,5.5115,5.9464,6.3466,6.5764,6.6583,6.4679,5.883,5.2078,4.6383,3.9894,3.4294,3.1671,3.0708,3.0492,3.1021,3.1887,3.3212,3.5328,3.5856,3.8428,4.5469,4.7738,5.1658,5.9666,6.1398,6.361,6.7867,6.8324,6.8059,6.7338,6.6929,6.652,6.6039,6.5318,6.4527,6.3782,6.347,6.3301,6.3301,6.3301,6.3037,6.2576,6.2576,6.2215,6.1542,6.1176,6.0858,6.0541,5.835,5.7327,5.7058,5.4652,5.3659,5.3439,5.1146,5.0038,4.9494,4.7465,4.6484,4.6172,0.0,0.0,0.0,0.0,0.0,0.0,0.0,3.4474,3.6686,4.0073,4.0049,3.9923,4.0449,3.6584,3.3922,3.3872,0.0,0.0,0.0,0.0,0.0,0.0,0.0,0.0,0.0,0.0,2.9682,2.9399,3.001,2.9891,2.9116,2.9451,2.9302,2.8791,0.0,0.0,0.0,0.0,0.0,0.0,0.0,0.0,0.0,0.0,0.0,0.0,0.0,0.0,0.0,0.0,0.0,0.0,0.0,3.3043,3.5529,4.3313,5.068,5.6922,5.9777,6.2651,6.4469,6.2884,5.7741,5.1622,4.631,4.0158,3.4847,3.2224,3.1262,3.1045,3.1575,3.2152,3.2828,3.3862,3.6698,4.0423,4.5229,4.9109,5.3053,5.7333,5.8319,6.0315,6.4548,6.7338,6.8444,6.7362,6.7266,6.6592,6.5005,6.4933,6.4909,6.4909,6.383,6.3301,6.3301,6.3301,6.3037,6.2576,6.2576,6.2023,6.1007,6.1007,5.9934,5.8023,5.7605,5.6587,5.5063,5.2686,5.1733,5.1511,4.9159,4.8249,4.819,4.7715,4.7558,4.75,0.0,0.0,0.0,0.0,0.0,0.0,0.0,3.1512,3.2921,3.661,3.6307,3.6508,3.8567,3.5855,3.3897,3.3897,0.0,0.0,0.0,0.0,0.0,0.0,0.0,0.0,0.0,0.0,0.0,0.0,0.0,3.1385,3.1005,3.0745,3.0273,2.9616,2.9184,2.8895,0.0,0.0,0.0,0.0,0.0,0.0,2.9321,0.0,0.0,0.0,0.0,0.0,0.0,0.0,0.0,0.0,0.0,0.0,0.0,3.696,4.3604,5.0413,5.3813,5.6243,5.7345,5.5234,5.1402,4.6935,4.2369,3.8067,3.4438,3.2152,3.1262,3.119,3.2082,3.237,3.3428,3.6266,3.7589,3.9537,4.3271,4.6968,5.1297,5.6636,6.2865,6.6953,6.7578,6.8083,6.8059,6.7338,6.6953,6.6376,6.5486,6.5101,6.4527,6.3806,6.347,6.3301,6.3301,6.3009,6.2744,6.2576,6.2215,6.1181,5.9561,5.9541,5.8486,5.662,5.475,5.3677,5.3149,5.0454,4.929,4.9225,4.847,4.8027,4.7754,4.7637,4.7383,4.707,0.0,0.0,0.0,0.0,0.0,0.0,0.0,3.0357,3.1336,3.3925,3.352,3.4098,3.7086,3.4374,3.2767,3.3796,0.0,0.0,0.0,0.0,0.0,0.0,0.0,0.0,0.0,0.0,0.0,0.0,0.0,0.0,0.0,3.2863,3.2059,3.0404,3.0013,2.946,0.0,0.0,0.0,0.0,0.0,0.0,2.956,0.0,0.0,0.0,0.0,0.0,0.0,0.0,0.0,0.0,0.0,0.0,0.0,0.0,3.7967,4.3346,4.8308,5.1334,5.2664,5.0909,4.7989,4.4446,4.0503,3.7106,3.4198,3.2128,3.143,3.1478,3.2346,3.2659,3.3621,3.6098,3.7156,3.877,4.1779,4.5557,5.0239,5.626,6.3562,6.7747,6.6881,6.7963,6.8324,6.7362,6.6785,6.6183,6.5438,6.4909,6.4167,6.3325,6.3301,6.3205,6.3057,6.2744,6.248,6.2287,6.0995,5.9756,5.8549,5.7618,5.6242,5.4594,5.281,5.1836,0.0,4.9104,4.8203,4.8183,4.8027,4.7812,4.7578,4.7578,4.7402,4.7109,0.0,0.0,0.0,0.0,0.0,0.0,0.0,0.0,0.0,0.0,3.1587,3.2466,3.5604,3.2265,3.0834,0.0,0.0,0.0,0.0,0.0,0.0,0.0,0.0,0.0,0.0,0.0,0.0,3.2244,3.3975,3.4577,3.4173,0.0,0.0,3.1299,3.1224,3.033,0.0,0.0,0.0,0.0,0.0,0.0,0.0,0.0,0.0,0.0,0.0,0.0,0.0,0.0,0.0,0.0,0.0,0.0,0.0,0.0,0.0,0.0,0.0,4.7176,4.9438,4.8701,4.6277,4.3208,3.9905,3.6818,0.0,3.2104,3.1717,3.1887,3.2539,3.2996,3.3549,3.4342,3.6146,3.8359,4.1076,4.5381,5.0527,5.6692,6.1547,6.4119,6.3518,6.7145,6.8877,6.7338,6.6761,6.6039,6.4981,6.4452,6.3854,6.3253,6.3253,6.3057,6.26,6.2397,6.2089,6.1495,5.9038,5.778,5.7561,5.5358,5.3513,5.2055,5.1689,5.0767,4.9367,4.8535,4.8183,4.8164,4.7754,4.7578,4.7578,4.7617,4.7598,4.7519,0.0,0.0,0.0,0.0,0.0,0.0,0.0,0.0,0.0,0.0,0.0,3.0482,3.126,3.0407,0.0,0.0,0.0,0.0,0.0,0.0,0.0,0.0,0.0,0.0,0.0,0.0,0.0,3.2889,3.4977,3.6157,3.6431,3.6786,0.0,0.0,0.0,0.0,0.0,0.0,0.0,0.0,0.0,0.0,0.0,0.0,0.0,0.0,2.9721,3.0016,0.0,0.0,0.0,0.0,0.0,0.0,0.0,0.0,3.2628,3.3514,3.6467,0.0,3.9854,3.9049,3.7979,3.6728,0.0,3.4198,3.326,3.196,3.1717,3.2224,3.3934,3.3741,3.4511,3.8286,3.932,4.0715,4.3739,5.0672,5.6997,6.1307,6.496,6.664,6.527,6.6785,6.753,6.6737,6.6568,6.6039,6.4981,6.4789,6.4115,6.2817,6.2768,6.2696,6.2576,6.0722,5.9505,5.8927,5.6502,5.4586,5.3183,5.2963,5.1692,4.9697,4.9934,4.9637,4.8945,4.8086,4.791,4.8164,4.7754,4.7578,4.7617,4.7949,4.7851,4.7558,0.0,0.0,0.0,0.0,0.0,0.0,0.0,0.0,0.0,0.0,0.0,0.0,0.0,0.0,0.0,0.0,0.0,0.0,0.0,0.0,0.0,0.0,0.0,0.0,0.0,0.0,0.0,0.0,0.0,3.7161,0.0,0.0,0.0,0.0,0.0,0.0,0.0,0.0,0.0,0.0,3.0055,0.0,0.0,0.0,0.0,0.0,3.008,3.0206,0.0,3.1758,3.1834,3.1562,0.0,0.0,0.0,0.0,3.1838,3.2089,3.3222,3.5136,3.6726,3.6407,3.5844,3.5114,3.4198,3.3428,3.2706,3.1863,3.1887,3.2489,3.3861,3.4054,3.5088,3.8383,3.9753,4.2279,4.7666,5.3376,5.8687,6.3133,6.5438,6.6592,6.6448,6.6953,6.7049,6.652,6.6039,6.551,6.4957,6.4235,6.3042,6.1322,6.1019,6.076,6.0568,5.9191,5.7947,5.6773,5.4385,5.2806,5.2064,5.1169,4.9959,4.8574,4.8808,4.8672,4.8288,4.7773,4.7715,4.7891,4.7676,4.7578,4.7617,4.7832,4.7773,4.7578,0.0,0.0,0.0,0.0,0.0,0.0,0.0,0.0,0.0,0.0,0.0,0.0,0.0,0.0,0.0,0.0,0.0,0.0,0.0,0.0,0.0,0.0,0.0,0.0,0.0,0.0,0.0,0.0,0.0,0.0,0.0,0.0,3.8191,0.0,0.0,0.0,0.0,0.0,0.0,0.0,3.0432,0.0,0.0,0.0,0.0,0.0,0.0,0.0,0.0,3.221,3.2311,3.1884,3.3119,0.0,0.0,0.0,0.0,0.0,3.2553,3.4805,3.6899,3.6555,3.6088,3.5502,3.4631,3.3501,3.2491,3.2032,3.2346,3.2947,3.3645,3.4607,3.5905,3.7757,4.0186,4.4443,5.1946,5.5217,5.8615,6.3494,6.4741,6.5654,6.6929,6.7121,6.6977,6.652,6.5582,6.4821,6.4381,6.3042,6.1299,5.913,5.8607,5.7952,5.71,5.719,5.6419,5.4709,5.2395,5.1507,5.1877,4.9835,4.8613,4.8203,4.8203,4.7969,4.7578,4.75,4.7558,4.7676,4.7598,4.7617,4.7676,4.7676,4.7637,4.7578,0.0,0.0,0.0,0.0,0.0,0.0,0.0,0.0,0.0,0.0,0.0,0.0,0.0,0.0,0.0,0.0,0.0,0.0,0.0,0.0,0.0,0.0,0.0,0.0,0.0,0.0,0.0,0.0,0.0,0.0,4.0325,4.2707,4.0775,3.5157,0.0,0.0,0.0,0.0,0.0,0.0,3.0563,0.0,0.0,0.0,0.0,0.0,0.0,0.0,0.0,3.1557,3.2185,3.2713,3.2009,0.0,0.0,0.0,0.0,0.0,3.4732,3.6505,3.6996,3.3924,3.3728,3.4053,3.3068,3.302,3.314,3.3091,3.3452,3.4222,3.5665,3.6795,3.8482,4.1466,4.5605,5.0298,5.5554,5.8175,6.07,6.371,6.539,6.6159,6.5967,6.6352,6.6568,6.6496,6.5919,6.4465,6.1992,6.1228,5.936,5.6108,5.5909,5.482,5.2716,5.3117,5.3002,5.2222,5.0271,4.9374,4.9453,4.9071,4.8613,4.8203,4.8203,4.7969,4.7558,4.7187,4.7461,4.8066,4.7715,4.7793,4.8105,4.8105,4.7891,4.7578,0.0,0.0,0.0,0.0,0.0,0.0,0.0,0.0,0.0,0.0,0.0,0.0,0.0,0.0,0.0,0.0,0.0,0.0,0.0,0.0,0.0,0.0,0.0,0.0,0.0,0.0,0.0,0.0,0.0,4.2308,4.3162,4.1731,3.8893,3.4979,0.0,0.0,2.9804,0.0,0.0,0.0,0.0,0.0,0.0,0.0,0.0,0.0,0.0,0.0,0.0,0.0,3.2411,3.2964,3.2089,0.0,0.0,0.0,0.0,0.0,3.3992,3.5242,3.5843,3.4443,3.5357,3.6169,3.4535,3.415,3.4198,3.4487,3.5184,3.605,3.706,3.9296,4.2399,4.6808,5.0768,5.4375,5.743,5.9209,6.1157,6.3803,6.4765,6.5462,6.6063,6.6352,6.6376,6.6087,6.4354,6.2614,6.0935,5.8842,5.6506,5.3847,5.3291,5.1992,4.9824,4.9849,4.9849,4.9778,4.919,4.8776,4.8516,4.8516,4.8398,4.8183,4.7715,4.7402,4.7226,4.7266,4.7519,4.7891,4.8209,4.8444,4.86,4.86,4.8483,4.8307,0.0,0.0,0.0,0.0,0.0,0.0,0.0,0.0,0.0,0.0,0.0,0.0,0.0,0.0,0.0,0.0,0.0,0.0,0.0,0.0,0.0,0.0,0.0,0.0,0.0,0.0,3.7865,4.1103,4.3137,4.4794,4.5949,4.1204,3.7663,0.0,0.0,0.0,3.0156,3.0156,3.0482,0.0,0.0,0.0,0.0,0.0,0.0,0.0,0.0,0.0,0.0,0.0,0.0,0.0,0.0,0.0,0.0,3.2867,3.2528,3.271,3.3617,3.4525,3.5281,3.5624,3.6882,3.7803,3.694,3.6313,3.6169,3.7108,3.8022,3.8767,3.9083,4.2327,4.6559,5.1273,5.4808,5.7574,5.9281,6.0436,6.1999,6.4404,6.4668,6.5197,6.6544,6.6448,6.6087,6.5558,6.2798,6.0616,5.9544,5.6393,5.3653,5.1555,5.0813,4.9662,4.8066,4.7734,4.7793,4.8203,4.8457,4.8483,4.8203,4.8105,4.8008,4.7871,4.7162,4.6889,4.6909,4.7187,4.7402,4.7637,4.8183,4.8522,4.86,4.86,4.8659,4.8757,0.0,0.0,0.0,0.0,0.0,0.0,0.0,0.0,0.0,0.0,0.0,0.0,0.0,0.0,0.0,0.0,0.0,0.0,0.0,0.0,0.0,0.0,0.0,0.0,0.0,3.8592,4.0024,4.2838,4.5999,4.7606,4.7657,4.3743,4.015,3.6934,3.4675,3.2767,3.126,3.126,3.1587,3.2068,0.0,0.0,0.0,0.0,0.0,0.0,0.0,0.0,0.0,0.0,0.0,0.0,0.0,0.0,3.3872,3.3796,3.3595,3.3799,3.5667,3.6406,3.6595,3.6392,3.6099,3.6553,3.9417,3.9633,3.9826,4.1851,4.2687,4.2928,4.2525,4.6271,5.0383,5.3197,5.6756,5.9907,6.1999,6.3201,6.4452,6.6135,6.6328,6.6568,6.7169,6.6328,6.5534,6.5005,6.2213,5.9363,5.6569,5.4032,5.1427,4.8594,4.845,4.8144,4.7682,4.7598,4.7793,4.8203,4.7851,4.7851,4.8203,4.7793,4.7402,4.6967,4.6909,4.6889,4.685,4.6543,4.6855,4.7539,4.7207,4.7324,4.7676,4.7676,4.791,4.8262,0.0,0.0,0.0,0.0,0.0,0.0,0.0,0.0,0.0,0.0,0.0,0.0,0.0,0.0,0.0,0.0,0.0,0.0,0.0,0.0,0.0,0.0,0.0,3.6183,3.8291,4.0401,4.314,4.6607,4.8184,4.8259,4.6828,4.261,0.0,0.0,3.3997,3.2491,3.1888,3.1537,3.1934,3.2717,3.2365,0.0,0.0,0.0,0.0,0.0,0.0,0.0,0.0,0.0,3.2566,3.3119,3.2311,3.337,3.4753,3.4098,3.372,3.3672,3.44,3.5451,3.6425,3.6979,3.7597,3.8575,4.0451,4.1749,4.3114,4.5261,4.6655,4.7617,4.8132,5.1008,5.3966,5.5987,5.9426,6.236,6.3827,6.438,6.5077,6.6352,6.5919,6.5727,6.6256,6.563,6.4338,6.2304,5.9977,5.725,5.4029,5.1586,4.9636,4.8223,4.7695,4.7344,4.7187,4.6914,4.6992,4.7402,4.7519,4.7656,4.7793,4.7363,4.7226,4.7305,4.6777,4.6699,4.687,4.6758,4.6875,4.7207,4.7578,4.7832,4.8008,4.8327,4.8522,4.8659,0.0,0.0,0.0,0.0,0.0,0.0,0.0,0.0,0.0,0.0,0.0,0.0,0.0,0.0,0.0,0.0,0.0,0.0,0.0,0.0,0.0,0.0,0.0,3.5857,3.7713,4.1205,4.4572,4.7763,4.8611,4.7933,4.5668,0.0,0.0,0.0,3.45,3.3448,3.3721,3.2817,3.2792,3.3316,3.2717,3.2491,0.0,0.0,0.0,0.0,0.0,0.0,0.0,0.0,3.2717,3.3298,3.2957,3.3856,3.4908,3.4547,3.4065,3.3608,3.3345,3.4206,3.5454,3.664,3.842,4.0475,4.288,4.4683,4.6551,4.9205,5.0215,5.0948,5.1862,5.3726,5.5674,5.7309,6.0676,6.3466,6.4524,6.4668,6.5005,6.5895,6.5366,6.5053,6.5414,6.4837,6.3328,6.0658,5.8071,5.5323,5.2408,4.9877,4.8262,4.7812,4.7182,4.6831,4.6738,4.6445,4.6504,4.6889,4.7109,4.7246,4.7363,4.707,4.7012,4.7148,4.6699,4.666,4.687,4.6733,4.6816,4.6948,4.7578,4.7969,4.8242,4.8535,4.8828,4.9062,0.0,0.0,0.0,0.0,0.0,0.0,0.0,0.0,0.0,0.0,0.0,0.0,0.0,0.0,0.0,0.0,0.0,0.0,0.0,0.0,0.0,0.0,0.0,3.4901,3.7086,4.0954,4.3793,4.5497,4.7104,4.6753,4.4489,4.1229,0.0,0.0,3.6761,3.6133,3.7085,3.538,3.4377,3.3847,3.3316,3.3115,0.0,0.0,0.0,0.0,0.0,0.0,0.0,0.0,3.3144,3.2674,3.5178,3.5046,3.4159,3.5247,3.4857,3.385,3.304,3.3057,3.3693,3.5256,3.807,4.1822,4.7112,4.8758,5.0202,5.3894,5.3413,5.2536,5.3041,5.3966,5.5193,5.678,6.0171,6.2961,6.3971,6.407,6.4287,6.4861,6.4909,6.4909,6.4909,6.3902,6.2455,6.0499,5.6821,5.3814,5.1757,4.9092,4.7383,4.6889,4.6889,4.6674,4.6308,4.6289,4.6504,4.687,4.6504,4.6523,4.6889,4.6889,4.6699,4.6328,4.6738,4.687,4.685,4.6465,4.6543,4.687,4.6889,4.7441,4.8203,4.8203,4.8769,4.9484,0.0,0.0,0.0,0.0,0.0,0.0,0.0,0.0,0.0,0.0,0.0,0.0,0.0,0.0,0.0,0.0,0.0,0.0,0.0,0.0,0.0,0.0,3.2562,3.3467,3.3671,0.0,4.1254,4.6075,4.5748,4.4238,0.0,0.0,0.0,3.7386,0.0,0.0,3.5429,3.4904,3.4603,3.4424,3.3872,3.3646,0.0,0.0,0.0,0.0,0.0,0.0,0.0,0.0,0.0,0.0,3.3834,3.5257,3.6512,3.5135,3.522,3.5399,3.3797,3.4099,3.5497,3.7829,4.1071,4.502,4.9974,5.1261,5.2596,5.7045,5.7309,5.654,5.5963,5.7309,5.844,5.8175,6.0941,6.3301,6.3974,6.407,6.4287,6.4861,6.4215,6.3758,6.3758,6.1933,5.9693,5.6999,5.4564,5.1985,4.9401,4.8187,4.7383,4.6889,4.6641,4.6426,4.6308,4.6016,4.6074,4.6484,4.6055,4.623,4.687,4.6621,4.6426,4.6308,4.6426,4.6484,4.6484,4.6348,4.6367,4.6523,4.6772,4.7266,4.7793,4.8105,4.8769,4.9484,0.0,0.0,0.0,0.0,0.0,0.0,0.0,0.0,0.0,0.0,0.0,0.0,0.0,0.0,0.0,0.0,0.0,0.0,0.0,0.0,0.0,0.0,0.0,0.0,0.0,3.6709,3.9672,0.0,0.0,0.0,0.0,0.0,0.0,3.9371,0.0,3.9546,3.7638,3.6985,3.6033,3.5004,3.4678,3.4527,3.4502,0.0,0.0,0.0,0.0,0.0,0.0,0.0,0.0,0.0,3.3586,3.4792,3.597,3.4774,3.4858,3.511,3.4047,3.4969,3.6988,4.009,4.3649,4.781,5.3245,5.5121,5.6732,6.0243,5.9859,5.8848,5.8632,5.9281,5.9828,5.957,6.1662,6.3398,6.3734,6.3758,6.3806,6.3971,6.3418,6.2629,6.1641,5.9898,5.7555,5.4433,5.2473,5.0409,4.8105,4.7402,4.6875,4.6445,4.6191,4.5976,4.5801,4.5547,4.5547,4.5801,4.5547,4.5781,4.6426,4.6504,4.6465,4.6308,4.6308,4.6308,4.6308,4.6308,4.6406,4.6582,4.6792,4.7187,4.7637,4.8047,4.8652,4.9277,0.0,0.0,0.0,0.0,0.0,0.0,0.0,0.0,0.0,0.0,0.0,0.0,0.0,0.0,0.0,0.0,0.0,0.0,0.0,0.0,0.0,0.0,0.0,0.0,0.0,0.0,0.0,0.0,0.0,0.0,0.0,0.0,4.2055,4.3614,0.0,4.3489,4.181,4.0049,3.7789,3.5433,3.5433,3.5458,3.5433,3.4904,0.0,0.0,0.0,0.0,0.0,0.0,0.0,0.0,3.4033,3.4018,3.3803,3.4184,3.4068,3.3901,3.4149,3.5736,3.8286,4.2308,4.6303,5.0792,5.6804,5.969,6.1561,6.2869,6.135,6.0027,6.0983,6.0364,6.0051,6.1007,6.2336,6.3253,6.3277,6.3253,6.3105,6.2648,6.2445,6.1414,5.9022,5.7709,5.5664,5.2486,5.0526,4.8868,4.7517,4.6621,4.6016,4.5625,4.5668,4.543,4.4996,4.4938,4.4938,4.4977,4.4938,4.5215,4.5703,4.6465,4.6621,4.6308,4.6308,4.6328,4.6367,4.6367,4.6582,4.6889,4.6889,4.7168,4.7578,4.7988,4.8457,4.8972,0.0,0.0,0.0,0.0,0.0,0.0,0.0,0.0,0.0,0.0,0.0,0.0,0.0,0.0,0.0,0.0,0.0,0.0,0.0,0.0,0.0,0.0,0.0,0.0,0.0,0.0,0.0,0.0,0.0,0.0,0.0,0.0,0.0,4.1879,0.0,4.1959,3.9472,3.7337,3.5807,3.4879,3.4879,3.5107,3.5433,3.4904,3.4374,0.0,0.0,0.0,0.0,0.0,0.0,0.0,3.3931,3.4672,3.5186,3.385,3.4475,3.5624,3.5836,3.713,3.985,4.5669,5.1778,5.7189,6.0243,6.1614,6.2215,6.2143,6.2312,6.2432,6.2263,6.2384,6.2432,6.2263,6.2528,6.2889,6.3253,6.3009,6.2696,6.26,6.1231,5.9654,5.7964,5.4895,5.2278,5.0497,4.8335,4.6809,4.6137,4.5586,4.5254,4.5176,4.5176,4.5117,4.4977,4.4707,4.4707,4.5019,4.4687,4.4941,4.5727,4.5859,4.6074,4.6308,4.6308,4.6484,4.6753,4.6753,4.6811,4.6889,4.6889,4.6948,4.7129,4.7558,4.8249,4.8972,0.0,0.0,0.0,0.0,0.0,0.0,0.0,0.0,0.0,0.0,0.0,0.0,0.0,0.0,0.0,0.0,0.0,0.0,0.0,0.0,0.0,0.0,0.0,0.0,0.0,0.0,0.0,0.0,0.0,0.0,0.0,0.0,0.0,4.2933,0.0,4.3065,4.0326,3.809,3.6508,3.5504,3.5504,3.583,3.6208,3.5406,3.4904,3.4552,3.3771,0.0,0.0,0.0,0.0,0.0,0.0,0.0,3.4479,3.3638,3.4213,3.5332,3.6485,3.8888,4.2784,4.9902,5.5169,5.9089,6.0965,6.1831,6.2143,6.1855,6.258,6.3133,6.2672,6.3009,6.3037,6.2336,6.2432,6.26,6.26,6.2384,6.1791,6.0588,5.9389,5.7544,5.4697,5.2057,4.9831,4.8261,4.6599,4.5605,4.5371,4.5156,4.4899,4.4726,4.4726,4.4609,4.4394,4.418,4.418,4.4394,4.418,4.4414,4.5078,4.5488,4.5801,4.5996,4.5996,4.623,4.6621,4.6621,4.6621,4.6621,4.6621,4.6621,4.668,4.7109,4.7558,4.7982,0.0,0.0,0.0,0.0,0.0,0.0,0.0,0.0,0.0,0.0,0.0,0.0,0.0,0.0,0.0,0.0,0.0,0.0,0.0,0.0,0.0,0.0,0.0,0.0,0.0,0.0,0.0,0.0,0.0,0.0,0.0,0.0,0.0,4.4916,0.0,4.4342,4.1884,3.9371,3.7512,3.623,3.623,3.6582,3.6959,0.0,0.0,3.5357,3.4377,3.4377,3.4828,3.4683,0.0,0.0,0.0,0.0,3.324,3.3477,3.3711,3.4342,3.6483,4.0691,4.6223,5.3558,5.7021,5.9017,6.0646,6.1326,6.1686,6.1782,6.2552,6.3057,6.2552,6.2793,6.2749,6.1951,6.2095,6.2191,6.1855,6.1451,6.0364,5.8282,5.7129,5.5024,5.1133,4.9465,4.7885,4.6126,4.5312,4.484,4.4805,4.4805,4.4629,4.4297,4.4277,4.4082,4.3711,4.3711,4.3711,4.3711,4.3789,4.3984,4.4316,4.5098,4.559,4.5727,4.5727,4.5957,4.6406,4.6406,4.6406,4.6406,4.6406,4.6367,4.6348,4.6733,4.6884,4.6925,0.0,0.0,0.0,0.0,0.0,0.0,0.0,0.0,0.0,0.0,2.9804,0.0,0.0,0.0,0.0,0.0,0.0,0.0,2.9804,0.0,0.0,3.3596,3.45,3.5278,0.0,0.0,0.0,0.0,0.0,0.0,0.0,0.0,0.0,4.5999,0.0,0.0,4.1177,3.7513,3.5809,3.5631,3.5631,3.5981,0.0,0.0,0.0,0.0,3.4803,3.4954,3.5284,3.4581,3.4821,0.0,0.0,0.0,3.3211,3.324,3.3339,3.3837,3.5954,4.2303,4.9469,5.4207,5.7021,5.9017,6.0646,6.1055,6.1248,6.171,6.2263,6.2528,6.1999,6.1951,6.1951,6.1831,6.1446,6.1368,6.1734,5.9966,5.8345,5.7665,5.4631,5.1736,4.9583,4.7742,4.6099,4.4769,4.4551,4.4297,4.3906,4.3887,4.3848,4.3789,4.3789,4.3769,4.3711,4.3711,4.3711,4.3711,4.4121,4.4121,4.3808,4.4336,4.498,4.5727,4.5727,4.6113,4.6792,4.6792,4.6792,4.6792,4.6792,4.6621,4.6348,4.6733,4.6836,4.6864,0.0,0.0,0.0,0.0,0.0,0.0,0.0,0.0,0.0,0.0,0.0,2.9804,0.0,0.0,0.0,2.9804,2.9804,2.993,3.0231,3.126,3.2315,3.3416,3.3972,3.45,3.4999,0.0,0.0,0.0,0.0,0.0,0.0,4.2783,4.4589,0.0,0.0,0.0,0.0,3.7789,3.6006,3.5981,3.5656,3.5939,0.0,0.0,0.0,0.0,0.0,0.0,3.5747,3.5567,3.5619,3.57,3.5193,0.0,0.0,0.0,3.3276,3.4294,3.877,4.3553,4.8531,5.3678,5.589,5.7381,5.9611,6.0358,6.0622,6.0845,6.1085,6.1296,6.1326,6.1368,6.1133,6.0556,6.0243,6.0051,6.0003,5.8202,5.6436,5.5182,5.2238,4.954,4.7721,4.6161,4.5,4.4433,4.416,4.3926,4.3711,4.3711,4.3711,4.3711,4.3711,4.3711,4.3711,4.3711,4.3711,4.3711,4.3906,4.3906,4.3711,4.3926,4.4355,4.498,4.5215,4.5664,4.6206,4.6177,4.6185,4.6141,4.5876,4.5672,4.5538,4.5711,4.577,4.5795,0.0,0.0,0.0,0.0,0.0,0.0,0.0,0.0,0.0,0.0,0.0,0.0,0.0,0.0,0.0,0.0,2.9804,3.008,3.0758,3.1667,3.2466,3.3065,3.347,3.3696,3.3696,0.0,0.0,0.0,0.0,0.0,4.4242,4.4794,4.6798,0.0,4.7129,4.4869,0.0,0.0,0.0,3.7537,0.0,0.0,0.0,0.0,0.0,0.0,0.0,0.0,3.6202,3.6123,3.6051,3.5931,3.5596,3.4862,0.0,0.0,0.0,3.4318,3.9877,4.2904,4.5782,5.1249,5.3606,5.5265,5.779,5.8993,5.9618,5.9738,5.9762,5.9859,6.0165,6.0213,5.9997,5.9281,5.9065,5.8725,5.7908,5.6156,5.4218,5.2194,4.9739,4.7594,4.597,4.4961,4.4355,4.4238,4.3808,4.3555,4.3555,4.3437,4.3437,4.3535,4.3437,4.3437,4.3555,4.3437,4.3437,4.3555,4.3555,4.3594,4.3711,4.3711,4.3887,4.4258,4.4687,4.509,4.553,4.5493,4.5423,4.5387,4.5034,4.4902,4.4902,4.4902,4.4946,4.5076,0.0,0.0,0.0,0.0,0.0,0.0,0.0,0.0,0.0,0.0,0.0,0.0,0.0,2.9804,2.9804,2.9804,2.9804,3.0231,3.1286,3.1888,3.2466,3.3065,3.3115,0.0,3.314,3.314,0.0,0.0,0.0,0.0,4.5422,4.5974,4.964,5.5591,5.1272,4.7255,4.3614,0.0,0.0,0.0,0.0,0.0,0.0,0.0,0.0,0.0,0.0,3.6529,3.6601,3.5599,3.5596,3.5908,3.5404,3.4846,3.4263,0.0,0.0,0.0,3.6579,3.9056,4.1725,4.603,4.9806,5.3004,5.5121,5.6804,5.8079,5.8584,5.868,5.8536,5.8055,5.7983,5.8127,5.856,5.8223,5.7336,5.5687,5.3815,5.1653,4.907,4.7057,4.5519,4.457,4.4433,4.4219,4.3769,4.3359,4.3105,4.3105,4.2715,4.2676,4.3105,4.2715,4.2695,4.3146,4.2695,4.2695,4.3105,4.3105,4.332,4.3711,4.3711,4.3711,4.3769,4.4238,4.4647,4.5035,4.501,4.4979,4.4946,4.4902,4.4902,4.4902,4.4902,4.5081,4.5376,0.0,0.0,0.0,0.0,0.0,0.0,0.0,0.0,0.0,0.0,0.0,0.0,0.0,2.9804,2.993,3.0281,3.0959,3.1512,3.1888,3.2441,3.2889,3.309,3.309,3.309,3.309,3.3442,0.0,0.0,0.0,3.8191,4.3416,4.502,4.7606,5.0795,4.8887,4.7631,4.6657,4.1204,0.0,4.0048,0.0,0.0,0.0,0.0,0.0,3.7114,3.6603,3.6579,3.6749,3.6578,3.6284,3.5966,3.577,3.5114,3.4264,3.3592,3.3427,3.3934,3.6098,3.7757,3.9874,4.41,4.6935,4.9445,5.2259,5.4375,5.5914,5.6444,5.6828,5.6981,5.6789,5.7029,5.7261,5.7053,5.6612,5.5676,5.3997,5.2153,5.0255,4.8254,4.6123,4.4726,4.4433,4.3887,4.3476,4.332,4.291,4.2656,4.2656,4.25,4.25,4.2656,4.25,4.246,4.2656,4.2246,4.2246,4.2656,4.2949,4.3205,4.3301,4.3574,4.3711,4.367,4.3596,4.3948,4.4525,4.3965,4.4015,4.4396,4.3851,4.3774,4.4015,4.4015,4.4234,4.4597,0.0,0.0,0.0,0.0,0.0,0.0,0.0,0.0,0.0,0.0,0.0,0.0,0.0,0.0,3.0482,3.0834,3.1667,3.2194,3.2194,3.2742,3.309,3.309,3.309,3.319,3.3366,0.0,0.0,0.0,0.0,0.0,0.0,4.3693,4.5849,4.8385,4.6376,4.6903,0.0,4.3815,4.1831,4.193,3.896,3.8306,3.9034,3.8507,3.8737,3.9282,3.8741,3.8376,3.8056,3.7403,3.6793,3.6232,3.5938,3.5139,3.4171,3.3692,3.3621,3.403,3.5256,3.6266,3.8022,4.2663,4.4202,4.5766,5.0215,5.1874,5.2884,5.4327,5.5049,5.5443,5.5611,5.5923,5.5935,5.5194,5.4641,5.3522,5.1241,4.9875,4.843,4.6576,4.5068,4.4101,4.3965,4.3418,4.3008,4.2871,4.2461,4.2207,4.2207,4.1894,4.1738,4.1738,4.1738,4.1894,4.2207,4.1797,4.1875,4.2401,4.2871,4.3127,4.3086,4.3516,4.3628,4.3463,4.3068,4.3262,4.3828,4.3058,4.3156,4.3704,4.3144,4.3177,4.3499,4.3499,4.3738,4.4123,0.0,0.0,0.0,0.0,0.0,0.0,0.0,0.0,0.0,0.0,0.0,0.0,0.0,0.0,0.0,3.1486,3.1964,3.2269,3.2244,3.2792,3.3115,3.3115,3.314,3.3391,3.3922,0.0,0.0,0.0,0.0,0.0,0.0,0.0,4.4723,4.9163,4.4396,4.525,5.0135,4.8962,4.7933,4.6692,4.1703,4.0419,4.1489,4.1842,4.2332,4.2837,4.2789,4.1972,4.0522,3.815,3.7168,3.6789,3.5908,0.0,0.0,0.0,0.0,3.3428,0.0,0.0,0.0,4.1273,4.1442,4.2062,4.882,4.9181,4.9012,5.2247,5.3293,5.3822,5.4399,5.452,5.4128,5.2901,5.2366,5.0866,4.7457,4.6967,4.6168,4.3956,4.3691,4.3535,4.3166,4.3087,4.2871,4.2401,4.2012,4.1777,4.1758,4.0957,4.0469,4.0469,4.0488,4.0879,4.1738,4.1348,4.1562,4.2362,4.2851,4.3066,4.3086,4.3516,4.3463,4.3068,4.2569,4.2587,4.2904,4.2457,4.2512,4.2901,4.2901,4.3158,4.3499,4.3499,4.3738,4.4086,0.0,0.0,0.0,0.0,0.0,0.0,0.0,0.0,0.0,0.0,0.0,0.0,0.0,0.0,0.0,3.3749,3.3925,3.3825,3.347,3.3596,3.3671,3.3671,3.4048,3.4349,3.4477,0.0,0.0,0.0,0.0,0.0,0.0,0.0,0.0,0.0,4.4016,4.4794,4.5969,4.2484,4.3363,4.6692,4.1897,4.1889,4.4563,4.254,4.2654,4.3787,4.3078,4.3036,4.3108,4.1706,4.0704,3.9551,3.6989,0.0,0.0,0.0,0.0,0.0,3.4078,0.0,0.0,0.0,0.0,0.0,4.1485,4.2952,4.4546,4.7329,4.8916,5.0215,5.1537,5.2403,5.1923,4.8834,5.0152,5.035,4.6956,4.647,4.58,4.3917,4.3437,4.3203,4.3127,4.2519,4.2109,4.1992,4.1582,4.1211,4.0898,4.0371,4.0078,4.0078,3.9746,3.9844,4.041,4.0605,4.0976,4.1523,4.2578,4.2903,4.2596,4.3063,4.3026,4.2569,4.2091,4.198,4.205,4.1605,4.1996,4.2883,4.2589,4.2876,4.3499,4.3499,4.3738,4.4086,0.0,0.0,0.0,0.0,0.0,0.0,0.0,0.0,0.0,0.0,0.0,0.0,0.0,0.0,0.0,0.0,3.4904,3.4803,3.4274,3.4226,3.4226,3.4226,3.4527,3.4803,0.0,0.0,0.0,0.0,0.0,0.0,0.0,0.0,0.0,0.0,0.0,0.0,4.2657,3.937,4.1128,4.5889,4.3776,4.462,4.6988,4.5879,4.6215,4.7224,4.6631,4.6655,4.6671,4.4732,4.2784,4.0696,3.7685,3.6314,0.0,0.0,0.0,0.0,0.0,0.0,0.0,3.6673,0.0,0.0,3.9152,3.9729,4.0523,4.3625,4.5188,4.664,4.8676,4.9541,4.9003,4.6117,4.7187,4.7514,4.5023,4.4664,4.4321,4.3286,4.2949,4.2734,4.2558,4.1933,4.1465,4.1289,4.0879,4.0449,4.0,3.9746,3.9609,3.9609,3.918,3.9336,4.0156,4.0372,4.082,4.1445,4.2558,4.2822,4.2392,4.2875,4.2735,4.2091,4.184,4.1612,4.142,4.1187,4.1616,4.2406,4.2351,4.2674,4.3261,4.3426,4.3646,4.3829,0.0,0.0,0.0,0.0,0.0,0.0,0.0,0.0,0.0,0.0,0.0,0.0,0.0,0.0,0.0,0.0,3.5531,3.5433,3.4828,3.4803,0.0,0.0,0.0,0.0,0.0,0.0,0.0,0.0,0.0,0.0,0.0,0.0,0.0,0.0,0.0,0.0,4.0048,3.8944,4.075,4.4498,4.6069,4.7585,4.9082,5.0277,5.1164,5.173,5.1682,5.1369,5.0479,4.7329,4.4154,4.1076,3.8455,3.7469,3.7084,3.6002,3.5712,0.0,0.0,0.0,0.0,3.8912,3.6867,0.0,3.9372,3.8334,3.7445,4.0792,4.1947,4.3126,4.5621,4.6295,4.5847,4.4083,4.3943,4.3668,4.2349,4.2206,4.2226,4.2187,4.2167,4.203,4.1699,4.1269,4.0859,4.045,4.0059,3.9629,3.9219,3.916,3.9141,3.9141,3.8806,3.9121,4.0293,4.0449,4.0937,4.1738,4.2656,4.2861,4.2428,4.2812,4.2508,4.1612,4.1612,4.142,4.1102,4.1102,4.1341,4.1721,4.2124,4.2571,4.2957,4.3334,4.3499,4.3499,0.0,0.0,0.0,0.0,0.0,0.0,0.0,0.0,0.0,0.0,0.0,0.0,0.0,0.0,0.0,0.0,0.0,3.6409,0.0,0.0,0.0,0.0,0.0,0.0,0.0,0.0,0.0,0.0,0.0,0.0,0.0,0.0,0.0,0.0,0.0,0.0,3.8014,4.0376,4.1971,4.3063,4.4626,4.7868,5.1656,5.126,5.2019,5.3317,5.2908,5.2729,5.2223,4.9397,4.6367,4.3306,4.11,3.9224,3.7613,3.6555,3.6555,3.6795,0.0,0.0,3.7539,3.6217,3.713,0.0,3.5376,3.5978,3.7252,3.7974,3.8912,4.0138,4.1942,4.3619,4.3844,4.0975,4.1739,4.2259,4.1046,4.1191,4.1289,4.0937,4.086,4.0821,4.0781,4.0391,4.0117,4.0019,3.959,3.9297,3.9199,3.8887,3.8728,3.8728,3.865,3.8728,3.8945,4.0,4.0781,4.1348,4.254,4.2852,4.2413,4.2489,4.2068,4.1229,4.1229,4.1187,4.1102,4.1102,4.1341,4.1721,4.2124,4.2571,4.2957,4.3334,4.3499,4.3499,0.0,0.0,0.0,0.0,0.0,0.0,0.0,0.0,0.0,0.0,0.0,0.0,0.0,0.0,0.0,0.0,0.0,0.0,0.0,0.0,0.0,0.0,0.0,0.0,0.0,0.0,0.0,0.0,0.0,0.0,0.0,0.0,0.0,0.0,0.0,3.7264,3.7542,3.9671,4.0993,4.2035,4.5914,4.9222,5.1924,5.2635,5.3611,5.4568,5.4327,5.3763,5.2608,4.9408,4.7401,4.5669,4.1966,4.0763,4.0379,3.8551,3.7998,3.7829,3.7012,3.7204,3.7541,3.725,3.7202,0.0,0.0,3.504,3.516,3.6194,3.6218,3.6699,3.8815,3.985,4.0036,3.9053,3.9153,3.9182,3.8682,3.9169,3.9551,3.9551,3.9355,3.9357,3.9824,3.9277,3.8906,3.8906,3.8906,3.8789,3.8574,3.8574,3.8476,3.8262,3.8457,3.8611,3.8611,3.9434,4.0195,4.0859,4.1696,4.2085,4.2057,4.2038,4.1714,4.1102,4.1102,4.1102,4.1102,4.1102,4.1231,4.147,4.2051,4.2399,4.2681,4.3261,4.3499,4.3499,2.9905,0.0,0.0,0.0,0.0,0.0,0.0,0.0,0.0,0.0,0.0,0.0,0.0,0.0,0.0,0.0,0.0,0.0,0.0,0.0,0.0,0.0,0.0,3.6909,0.0,0.0,0.0,0.0,0.0,0.0,0.0,0.0,0.0,3.7021,3.7316,3.7667,3.8089,3.8865,4.0209,4.2263,4.7585,4.9932,5.0548,5.3164,5.4496,5.4977,5.5169,5.4423,5.2836,4.9421,4.8411,4.7786,4.3096,4.2639,4.3337,4.0932,3.997,3.9513,3.8527,3.8262,3.8455,3.9369,3.8163,3.677,0.0,0.0,0.0,3.5063,3.4318,3.4078,3.6194,3.6314,3.6361,3.7234,3.6611,3.6032,3.607,3.6416,3.7012,3.7871,3.75,3.7598,3.8613,3.7851,3.7406,3.7773,3.791,3.791,3.7777,3.8144,3.8203,3.7894,3.8262,3.8496,3.8611,3.8911,3.9536,4.0374,4.0722,4.1128,4.1571,4.1559,4.143,4.1102,4.1102,4.1102,4.1102,4.1102,4.1102,4.1176,4.191,4.2259,4.2406,4.3096,4.3426,4.3499,2.9905,3.0231,0.0,0.0,0.0,0.0,0.0,0.0,0.0,0.0,0.0,0.0,0.0,0.0,0.0,0.0,0.0,0.0,4.0866,3.876,0.0,0.0,0.0,0.0,3.7914,0.0,0.0,0.0,0.0,0.0,0.0,0.0,0.0,3.789,3.8141,3.8811,3.9749,4.0135,4.2148,4.5243,4.7378,4.771,4.7377,5.1127,5.2884,5.3499,5.4375,5.4592,5.4087,5.1802,5.0431,4.9287,4.6776,4.5469,4.458,4.2934,4.2693,4.2856,4.2308,4.3457,4.3979,4.0475,4.1768,4.2369,3.6433,0.0,3.7346,3.4727,0.0,3.403,3.4318,0.0,0.0,3.4532,3.4513,3.4376,3.3927,3.2924,3.3125,3.5469,3.5019,3.5189,3.6832,3.5801,3.5703,3.7246,3.6367,3.623,3.7305,3.7422,3.7598,3.7874,3.7933,3.8184,3.8611,3.8635,3.9085,3.9971,4.0024,4.0443,4.1181,4.1155,4.1129,4.1102,4.1102,4.1102,4.1102,4.1102,4.1102,4.1139,4.1574,4.1977,4.2326,4.281,4.3169,4.3499,2.9905,3.0482,0.0,0.0,0.0,0.0,0.0,0.0,0.0,0.0,0.0,0.0,4.9364,4.7238,4.5705,4.5762,4.2648,4.0539,4.0246,3.8586,0.0,0.0,3.8191,3.8316,0.0,0.0,0.0,0.0,3.8165,0.0,0.0,0.0,3.8291,3.874,3.8514,3.9425,4.1188,4.1327,4.2303,4.3953,4.6479,4.6545,4.5829,5.1814,5.4423,5.4832,5.4327,5.3966,5.3293,5.0551,4.995,4.9878,4.7112,4.6583,4.6583,4.4683,4.4027,4.3787,4.3006,4.3439,4.3704,4.1899,4.1677,4.1144,3.8236,3.701,3.6265,3.5544,0.0,0.0,0.0,0.0,0.0,0.0,3.3495,3.2756,3.2848,3.0799,3.0332,3.3184,3.2785,3.2598,3.3594,3.3848,3.4062,3.4329,3.4746,3.5117,3.5444,3.6387,3.7012,3.7187,3.7676,3.7972,3.8203,3.8231,3.8664,3.949,3.9256,3.9711,4.0763,4.0758,4.0884,4.1102,4.1102,4.1102,4.1102,4.1102,4.1102,4.1121,4.1304,4.1763,4.2369,4.2773,4.3133,4.3499,3.0306,0.0,0.0,0.0,0.0,0.0,0.0,0.0,4.5367,4.62,4.7933,4.9741,5.1548,4.9671,4.8298,4.8315,4.5514,4.3131,4.1678,3.9839,3.8882,3.909,3.8843,3.8968,3.9569,3.9019,0.0,0.0,0.0,3.8467,3.8467,0.0,0.0,3.9309,3.9501,4.0621,4.2352,4.2852,4.363,4.4656,4.6948,4.7494,4.7464,5.2451,5.4928,5.5563,5.4135,5.3293,5.2488,4.983,4.9734,5.0263,4.7786,4.769,4.8147,4.6286,4.5469,4.4989,4.4106,4.3969,4.3872,4.3006,4.1634,4.021,3.9176,3.7613,3.6385,3.6579,3.5761,0.0,0.0,0.0,3.439,0.0,0.0,3.1404,3.1365,2.9136,2.8503,3.1162,3.1143,3.1055,3.1455,3.1884,3.2226,3.2355,3.2961,3.3476,3.3899,3.5248,3.6147,3.6519,3.7305,3.7741,3.775,3.7834,3.8152,3.8709,3.84,3.8871,3.9984,4.0105,4.0418,4.0937,4.0937,4.0992,4.1102,4.1102,4.1102,4.1102,4.1102,4.1543,4.2161,4.2608,4.2968,4.3334,3.1356,3.1788,0.0,3.2219,3.4025,3.6411,3.9245,3.9823,4.148,4.5748,4.5924,4.7481,5.2318,5.0711,5.0729,5.4365,4.9733,4.6858,4.7579,4.4005,4.1198,3.9625,4.0134,4.0068,3.9335,4.0043,4.0148,3.9672,3.9647,3.9647,3.9647,3.9647,0.0,3.9408,4.1629,4.2866,4.3273,4.5025,4.729,4.9648,4.9769,5.1309,5.3365,5.2091,5.2884,5.452,5.3499,5.2801,5.2175,5.1008,5.0648,5.06,4.9985,4.9456,4.8878,4.7738,4.7425,4.7281,4.6728,4.6968,4.6607,4.3559,4.2741,4.173,3.8121,3.8791,3.9633,3.7589,3.8359,3.8767,3.6723,0.0,0.0,0.0,0.0,0.0,0.0,2.7723,2.7695,2.9461,3.0419,3.1055,3.1455,2.9991,3.0098,3.2578,3.0928,3.082,3.3269,3.3887,3.4746,3.5962,3.6875,3.7342,3.7427,3.7413,3.7425,3.7465,3.7437,3.7888,3.8655,3.904,3.9722,4.0533,4.0533,4.0754,4.1102,4.1102,4.1102,4.1102,4.1102,4.1359,4.1757,4.2142,4.2589,4.2993,0.0,0.0,0.0,3.2842,3.4301,3.6459,3.927,4.1555,4.4302,4.8106,4.9685,5.2119,5.6462,5.5558,5.5051,5.6134,5.2914,5.0271,4.9034,4.6619,4.4828,4.386,4.4166,4.3597,4.1991,4.2068,4.1424,3.9962,3.9795,3.9516,3.9102,3.931,3.9587,3.9905,4.1216,4.2614,4.4132,4.5993,4.7165,4.7882,4.895,5.1778,5.5178,5.3269,5.3017,5.3499,5.2403,5.1898,5.1658,5.0936,5.0696,5.06,5.0081,4.9769,4.9504,4.8748,4.8555,4.8507,4.8339,4.8411,4.7858,4.5044,4.3794,4.2471,3.9465,3.9609,3.9777,3.7637,3.8479,3.8691,3.5738,0.0,0.0,0.0,0.0,0.0,0.0,2.6972,2.6459,2.7389,2.8249,2.8621,2.8164,2.8105,2.834,2.8926,2.9082,2.9648,3.082,3.2363,3.3691,3.4687,3.6167,3.6895,3.6932,3.7244,3.7539,3.7799,3.7509,3.794,3.9003,3.9131,3.9685,4.0515,4.0515,4.0735,4.1102,4.1102,4.1102,4.1102,4.1102,4.1194,4.1396,4.2075,4.2571,4.2975,3.3621,3.4098,3.4276,3.3746,3.518,3.7212,3.9622,4.2997,4.6492,4.9925,5.2307,5.5115,5.8885,5.8491,5.7975,5.7987,5.5935,5.3507,5.0839,4.9425,4.802,4.6528,4.647,4.5558,4.3575,4.3524,4.2317,3.9918,4.0127,3.9803,3.8971,3.9076,3.9326,3.9721,4.1468,4.2959,4.4269,4.7215,4.8324,4.8267,4.9854,5.2115,5.4423,5.3245,5.3066,5.3173,5.1946,5.1369,5.1153,5.0816,5.0696,5.0648,5.0287,5.0057,4.9793,4.9263,4.9119,4.9071,4.8878,4.883,4.8243,4.595,4.4724,4.3379,4.0763,4.086,4.0789,3.8382,3.9229,3.9442,3.6135,3.5994,0.0,0.0,0.0,0.0,0.0,2.6412,2.5815,2.6133,2.6777,2.7076,2.6641,2.6836,2.6992,2.6986,2.7474,2.8242,2.9277,3.1113,3.2637,3.3809,3.5717,3.6631,3.6508,3.7095,3.7389,3.7349,3.7397,3.7794,3.8563,3.8856,3.9392,4.0033,4.0221,4.0515,4.0901,4.1047,4.1102,4.1102,4.1102,4.1102,4.1194,4.202,4.2663,4.3133,3.4853,3.523,3.5458,3.5004,3.661,3.8617,4.0374,4.3966,4.7672,5.1064,5.3589,5.6252,5.9526,5.9569,5.9543,6.0029,5.8805,5.6601,5.3375,5.2562,5.0874,4.7816,4.7409,4.6333,4.4324,4.4475,4.3031,3.9842,4.0728,4.052,3.9356,3.8968,3.8788,3.8934,4.2423,4.3754,4.3746,4.8613,5.0672,5.0864,5.2416,5.2464,5.1658,5.2043,5.286,5.3582,5.2018,5.1129,5.0696,5.0696,5.0696,5.0696,5.0696,5.0335,4.9841,4.9335,4.9191,4.9071,4.8555,4.8411,4.8026,4.6407,4.5526,4.4415,4.183,4.2346,4.2546,3.9613,4.0528,4.0864,3.7624,3.6633,0.0,0.0,0.0,0.0,0.0,2.601,2.5732,2.5776,2.6133,2.6523,2.6914,2.6206,2.6089,2.6889,2.6206,2.6654,2.8723,3.0137,3.1621,3.3269,3.5469,3.6452,3.61,3.6949,3.696,3.6256,3.7044,3.7391,3.7446,3.8234,3.882,3.9223,3.9707,4.0129,4.0552,4.0937,4.1102,4.1102,4.1102,4.1121,4.1249,4.2039,4.2803,4.3499,3.5307,3.6409,3.7462,3.7764,3.7914,3.912,4.2459,4.4589,4.7643,5.2681,5.5377,5.7989,6.0966,6.1539,6.1617,6.1376,6.064,5.9611,5.8386,5.7336,5.5727,5.3394,5.3436,5.1796,4.817,4.7678,4.6127,4.3465,4.1548,4.044,4.0086,3.9007,3.85,3.8646,4.2004,4.3182,4.3014,4.7837,5.0436,5.1321,5.173,5.2427,5.3077,5.1658,5.1994,5.3053,5.1465,5.0816,5.0696,5.0696,5.0696,5.0696,5.0696,5.06,5.0455,5.0335,5.0287,5.0263,5.0119,5.007,4.971,4.8074,4.6154,4.4184,4.2279,4.1652,4.0854,3.8512,3.8934,3.8687,3.5362,3.4581,3.3513,0.0,0.0,0.0,2.6573,2.6289,2.6328,2.6615,2.6206,2.5932,2.603,2.6152,2.6309,2.6523,2.6348,2.6738,2.7956,2.9512,3.1016,3.2441,3.4328,3.5544,3.61,3.6357,3.6571,3.664,3.7153,3.7537,3.7888,3.8362,3.882,3.9223,3.9707,4.0129,4.0552,4.0937,4.1102,4.1102,4.1102,4.147,4.2039,4.2241,4.2803,4.3499,3.656,3.8341,4.0024,4.0602,4.1443,4.2731,4.4706,4.6135,4.8722,5.3397,5.6249,5.8532,6.0423,6.1989,6.272,6.2191,6.1855,6.1243,6.0157,5.9539,5.8451,5.6791,5.5984,5.4079,5.0798,4.9223,4.6948,4.3923,4.1792,4.0429,3.9851,3.8742,3.8291,3.8516,4.1686,4.3009,4.3191,4.7795,5.0269,5.1177,5.1393,5.1874,0.0,5.1417,5.1465,5.1922,5.1032,5.0696,5.0696,5.0696,5.0696,5.0696,5.0696,5.0696,5.0696,5.0696,5.0527,5.0335,5.0335,5.0167,4.971,4.8579,4.6745,4.4727,4.2917,4.1422,3.9888,3.7912,3.7677,3.7013,3.4442,3.3626,3.2427,2.9727,2.8406,2.7526,2.7037,2.6777,2.6758,2.6967,2.6758,2.6401,2.603,2.5898,2.5766,2.5547,2.6055,2.6523,2.6816,2.8965,3.0625,3.1612,3.4042,3.5498,3.5852,3.6586,3.6831,3.653,3.7116,3.7501,3.7739,3.8508,3.8985,3.9223,3.9891,4.0295,4.0552,4.0937,4.1102,4.1102,4.1102,4.1598,4.2314,4.2314,4.2803,4.3499,3.8216,4.0602,4.2612,4.2939,4.549,4.7467,4.7386,4.8755,5.1004,5.4353,5.7218,5.9202,5.9808,6.196,6.3229,6.2817,6.272,6.2032,6.0445,6.0387,5.9905,5.8799,5.6882,5.4832,5.274,4.9998,4.6929,4.3415,4.1947,4.0568,3.9337,3.8444,3.8106,3.8463,4.1268,4.2928,4.3986,4.7978,5.0009,5.0551,5.1225,5.1177,5.0744,5.1225,5.1105,5.0696,5.0696,5.0696,5.0696,5.0696,5.0696,5.0696,5.0696,5.0696,5.0696,5.0696,5.0218,4.9741,4.9843,4.9275,4.8497,4.8106,4.6758,4.5016,4.3066,4.1078,3.9188,3.7551,3.6614,3.5666,3.4262,3.3115,3.1625,2.9364,2.834,2.7839,2.778,2.7383,2.7129,2.7142,2.7448,0.0,2.6646,2.5825,2.5117,2.4606,2.5664,2.6147,2.5767,2.8384,3.0177,3.0762,3.3821,3.5493,3.5574,3.6923,3.7201,3.6384,3.7081,3.7391,3.7428,3.8637,3.9186,3.9241,4.0107,4.0515,4.0552,4.0937,4.1102,4.1102,4.1158,4.1653,4.2289,4.2065,4.2469,4.3124,3.9973,4.2308,4.394,4.314,4.6138,4.9372,5.1652,5.3485,5.5623,5.8491,6.0948,6.2788,6.3795,6.3923,6.3902,6.383,6.3422,6.3057,6.2716,6.197,6.1224,6.0562,5.8938,5.7045,5.4904,5.185,4.9109,4.668,4.2976,4.084,4.0174,3.8674,3.8027,3.815,3.9998,4.2303,4.4989,4.7521,4.8902,4.9493,5.0912,5.1177,5.072,5.0816,5.0792,5.0696,5.0696,5.0696,5.0696,5.0696,5.0696,5.0696,5.0696,5.0696,5.0696,5.0696,4.9688,4.8785,4.966,4.798,4.6043,4.6404,4.4422,4.2088,4.0974,3.9177,3.7594,3.6937,3.5567,3.431,3.3638,3.1938,3.0373,2.9607,2.9023,2.8574,2.8223,2.7839,2.7702,2.8027,2.7519,2.7207,2.7448,2.6973,2.6323,2.5542,2.5698,2.5854,2.5952,2.7439,2.8872,3.0109,3.1753,3.3722,3.6045,3.5721,3.6091,3.7171,3.7318,3.7391,3.7428,3.8637,3.9186,3.9241,4.0107,4.0515,4.0552,4.0937,4.1102,4.1139,4.1488,4.1867,4.2134,4.0825,4.0631,4.103,4.3413,4.5045,4.6511,4.7221,4.9917,5.2954,5.579,5.8193,5.9626,5.951,6.0936,6.2138,6.2669,6.3795,6.4479,6.4479,6.3998,6.359,6.3301,6.236,6.1542,6.1031,5.945,5.7862,5.6275,5.2596,4.9662,4.7497,4.3265,0.0,0.0,3.8599,3.8,3.8096,4.0262,4.2976,4.6022,4.7617,4.8603,4.9239,5.0551,5.0936,5.0696,5.0696,5.0696,5.0696,5.0696,5.0696,5.0696,5.0696,5.0696,5.0696,5.0696,5.0696,5.0696,5.0696,4.9925,4.9074,4.8745,4.7231,4.5576,4.5012,4.2991,4.0954,4.0062,3.8527,3.7109,3.6465,3.5488,3.4473,3.3594,3.1855,3.0488,3.0322,2.9715,2.9101,2.8672,2.8437,2.832,2.8301,2.793,2.7578,2.7344,2.7129,2.6537,2.5469,2.5991,2.6068,2.5376,2.7141,2.855,2.9317,3.1414,3.3386,3.5192,3.5686,3.62,3.6768,3.7189,3.7391,3.7428,3.8637,3.9355,3.9593,4.024,4.0625,4.0827,4.1029,4.1102,4.1121,4.1323,4.112,4.0623,3.9856,3.8699,3.7575,4.6781,4.8002,4.9574,5.1461,5.3997,5.656,5.8831,6.181,6.3025,6.0773,6.1244,6.1825,6.1922,6.3836,6.5077,6.5077,6.45,6.3902,6.3494,6.2432,6.159,6.12,5.9618,5.8271,5.7213,5.3245,4.9998,4.7497,4.3481,4.0932,3.9753,3.8671,3.8214,3.8457,4.0912,4.3481,4.6126,4.7521,4.8555,4.9359,5.0311,5.0768,5.0864,5.0744,5.0696,5.0696,5.0696,5.0696,5.0696,5.0696,5.0696,5.0696,5.0696,5.0696,5.0696,5.0696,5.0172,4.9215,4.7779,4.6335,4.492,4.3431,4.1691,4.0131,3.9333,3.8247,3.7187,3.6328,3.5605,3.4766,3.3601,3.2187,3.1133,3.1035,3.04,2.9696,2.9141,2.9062,2.8867,2.8359,2.8301,2.7923,2.7013,2.6883,2.6401,2.5221,2.6053,2.6104,2.4929,2.6888,2.8176,2.8512,3.1164,3.314,3.4309,3.5723,3.642,3.6476,3.7118,3.7391,3.7428,3.8637,3.9447,3.9909,4.0331,4.0735,4.1102,4.1102,4.1102,4.106,4.0753,4.0074,3.9226,3.8497,3.6672,3.4762,4.8625,5.0769,5.2699,5.2978,5.618,5.8985,5.968,6.3036,6.5366,6.5123,6.5171,6.5411,6.5893,6.5751,6.563,6.563,6.4716,6.407,6.4022,6.2648,6.1782,6.1734,6.0171,5.8824,5.7766,5.452,5.1116,4.7497,4.4257,4.1851,4.0306,3.9248,3.8984,3.9537,4.1249,4.2663,4.3986,4.6511,4.8435,4.9889,5.0455,5.0984,5.1369,5.0888,5.0696,5.0696,5.0696,5.0696,5.0696,5.0696,5.0696,5.0696,5.0696,5.0696,5.0696,5.0696,4.9628,4.8213,4.7221,4.4818,4.2319,4.1319,3.993,3.8655,3.8184,3.7923,3.7617,3.6777,3.5365,3.4043,3.3516,3.2676,3.1944,3.1523,3.1074,3.0497,2.9657,2.954,2.9246,2.8398,2.8301,2.7843,2.6756,2.6534,2.6131,2.5338,2.5391,2.544,2.544,2.6172,2.6972,2.787,2.9898,3.2122,3.4365,3.4917,3.587,3.7281,3.7354,3.7391,3.7428,3.8637,3.9447,3.9909,4.0331,4.0735,4.1102,4.1102,4.1102,4.097,3.9614,3.9217,3.8933,3.5804,3.4638,3.4388,5.2502,5.3428,5.4832,5.6887,5.8232,5.9912,6.2505,6.4494,6.5823,6.6135,6.6183,6.6135,6.6039,6.5823,6.5582,6.5246,6.4548,6.383,6.3249,6.2312,6.1494,6.0845,5.9907,5.9041,5.8295,5.577,5.2812,4.9421,4.6848,4.4498,4.2284,4.0884,4.0523,4.1105,4.2043,4.3415,4.5061,4.7112,4.8531,4.9504,5.0359,5.084,5.1008,5.0792,5.0696,5.0696,5.0696,5.0696,5.0554,4.958,4.9926,5.0519,4.9544,4.9689,4.9887,4.8289,4.7656,4.7047,4.5063,4.3191,4.1523,4.0177,3.9225,3.8457,3.8027,3.7699,3.7383,3.6832,3.5737,3.4726,3.4277,3.3496,3.2773,3.2363,3.1719,3.1055,3.0449,2.9931,2.9328,2.8505,2.7956,2.7405,2.6772,2.6219,2.5951,2.6142,2.5607,2.5358,2.5484,2.5832,2.6575,2.7738,2.9537,3.1488,3.367,3.4551,3.5687,3.7043,3.7281,3.7558,3.7776,3.8747,3.9593,4.0276,4.0699,4.0956,4.1018,3.9883,3.9416,3.9246,3.7521,3.6447,3.5706,3.4364,3.3411,3.2738,5.5809,5.604,5.7194,6.0348,6.07,6.1558,6.4644,6.5582,6.6063,6.6448,6.6496,6.6352,6.5991,6.5799,6.5558,6.5173,6.4524,6.3827,6.3081,6.2263,6.1446,6.0676,6.0003,5.9378,5.8848,5.7045,5.464,5.161,4.9325,4.7025,4.4715,4.3241,4.2784,4.3168,4.3728,4.4924,4.6704,4.7978,4.9047,4.9865,5.0455,5.0792,5.0912,5.0768,5.0696,5.0696,5.0696,5.0696,5.0448,4.8838,4.9054,4.9795,4.8657,4.8834,4.9086,4.7153,4.6625,4.6074,4.3589,4.2364,4.1378,3.9625,3.8887,3.8496,3.8184,3.7891,3.7519,3.7007,3.6074,3.5254,3.4785,3.4101,3.3398,3.2715,3.2018,3.1335,3.0665,2.9957,2.9271,2.8564,2.7772,2.7141,2.6835,2.6102,2.588,2.6405,2.5812,2.5597,2.5904,2.6009,2.6624,2.794,2.9525,3.1286,3.3177,3.4386,3.5596,3.6805,3.7208,3.7666,3.8197,3.9171,3.9923,4.0533,4.0937,4.0807,4.0198,3.8862,3.7989,3.7284,3.5407,3.4243,3.3549,3.2956,3.2362,3.1831,5.7916,5.8742,6.0043,6.2788,6.3662,6.4428,6.5534,6.6135,6.6472,6.6496,6.6496,6.6496,6.6472,6.6015,6.5702,6.5702,6.4741,6.407,6.407,6.2672,6.1782,6.1782,6.0748,5.9948,5.9378,5.8319,5.6468,5.3737,5.1164,4.9047,4.7425,4.6335,4.583,4.5878,4.6407,4.7257,4.8291,4.8878,4.9998,5.1417,5.0912,5.1008,5.1417,5.0912,5.0696,5.0696,5.0696,5.0696,5.0448,4.8838,4.8308,4.8345,4.8308,4.8308,4.8308,4.8272,4.7155,4.5472,4.3443,4.2613,4.1789,3.9704,3.8887,3.8611,3.8611,3.8591,3.8356,3.7461,3.6269,3.5254,3.4785,3.4388,3.3684,3.2413,3.1924,3.1268,2.9978,2.9527,2.9117,2.8548,2.785,2.7244,2.6827,2.6385,2.601,2.5822,2.5804,2.6158,2.696,2.6718,2.7123,2.8352,2.9947,3.1561,3.3177,3.4386,3.5596,3.6805,3.7208,3.7812,3.8637,3.9905,4.0497,4.0533,4.0937,4.007,3.8332,3.8289,3.7198,3.5364,3.3468,3.31,3.3367,3.1519,3.139,3.2051,5.9416,6.0646,6.1864,6.3105,6.438,6.5318,6.5654,6.6159,6.6496,6.6496,6.6496,6.6352,6.5991,6.6135,6.6087,6.5727,6.539,6.4741,6.3614,6.3085,6.236,6.132,6.0935,6.0333,5.9402,5.9065,5.7766,5.5419,5.4231,5.2091,4.9143,4.8411,4.8074,4.8098,4.8628,4.9253,4.9998,5.0888,5.1381,5.1489,5.1297,5.1562,5.1922,5.1032,5.0936,5.1201,5.084,5.0696,5.0306,4.7558,4.7375,4.7909,4.5729,4.5512,4.5757,4.3979,4.3381,4.3034,4.1666,4.099,4.044,3.9465,3.9101,3.8926,3.8669,3.8125,3.7539,3.6992,3.6074,3.5254,3.4785,3.4355,3.3686,3.2475,3.1965,3.137,3.0471,2.9497,2.8738,2.8352,2.7611,2.7006,2.6705,2.6271,2.6244,2.6718,2.6256,2.6114,2.6561,2.6847,2.7573,2.8755,3.0626,3.2276,3.3615,3.51,3.6311,3.7208,3.7592,3.8401,3.9524,4.0203,4.0662,4.0919,4.1047,4.001,3.8203,3.6923,3.5261,3.3395,3.1523,3.1152,3.1638,3.1241,3.1396,3.1851,6.0983,6.2047,6.3105,6.3758,6.4909,6.5775,6.5967,6.628,6.6496,6.6496,6.6496,6.6376,6.6039,6.6111,6.5895,6.5173,6.4933,6.4359,6.3349,6.3109,6.2528,6.1344,6.1104,6.0598,5.969,5.969,5.8945,5.7405,5.6059,5.4111,5.167,5.0948,5.0611,5.0635,5.1129,5.1321,5.1345,5.2247,5.232,5.1778,5.1778,5.1994,5.2247,5.1537,5.0986,5.0551,5.0397,4.9729,4.8536,4.6096,4.5807,4.6048,4.3439,4.3101,4.3444,4.2346,4.1929,4.1605,4.0952,4.0332,3.9824,3.9531,3.9219,3.8906,3.8669,3.8027,3.7402,3.6992,3.6128,3.5248,3.4627,3.3979,3.3142,3.2076,3.1443,3.0903,3.0257,2.9122,2.8389,2.8424,2.7651,2.7095,2.7179,2.7022,2.6986,2.7187,2.7298,2.7234,2.6938,2.7381,2.8187,2.9397,3.1249,3.2881,3.4222,3.5559,3.6696,3.7611,3.8365,3.923,4.0129,4.0552,4.0864,4.1102,4.1102,3.9628,3.7155,3.5972,3.3966,3.1523,3.0348,3.0274,3.0808,3.0996,3.1463,3.2086,6.2432,6.3081,6.3734,6.4789,6.5414,6.5919,6.6424,6.6496,6.6496,6.6496,6.6472,6.6424,6.6376,6.5943,6.5221,6.4119,6.3638,6.3398,6.3349,6.2913,6.2384,6.1826,6.1296,6.0767,6.0213,6.0213,5.9948,5.9378,5.6828,5.5289,5.476,5.3726,5.3258,5.3282,5.3726,5.3365,5.2475,5.2993,5.2897,5.2368,5.2368,5.2368,5.2331,5.2173,5.0888,4.9227,4.9454,4.8007,4.5785,4.4607,4.3887,4.3248,4.1695,4.1211,4.1463,4.2905,4.2311,4.1211,4.1211,4.0586,3.998,3.9941,3.9277,3.865,3.8611,3.8242,3.7777,3.7422,3.6329,3.522,3.4407,3.3301,3.2188,3.1304,3.0557,2.9964,2.9535,2.8529,2.8063,2.8692,2.788,2.751,2.8153,2.8341,2.8095,2.7426,2.8711,2.9078,2.805,2.8436,2.9159,3.0296,3.1909,3.3523,3.5064,3.5889,3.6897,3.8108,3.9322,4.0111,4.0533,4.0919,4.1102,4.1102,4.0976,3.8845,3.5478,3.5364,3.319,2.9913,2.994,3.0287,3.0795,3.0862,3.1583,3.2527,6.2917,6.3854,6.4741,6.539,6.5943,6.6352,6.6472,6.6496,6.6496,6.6496,6.6135,6.5727,6.5342,6.5173,6.4668,6.3566,6.4094,6.438,6.3926,6.3398,6.2744,6.1831,6.1296,6.0767,6.0213,6.0213,5.9948,5.9378,5.7935,5.6973,5.6419,5.5337,5.4856,5.4856,5.4977,5.4664,5.4063,5.4183,5.3726,5.2921,5.2921,5.2921,5.2725,5.0992,5.0261,4.9957,4.8361,4.7191,4.6203,4.4733,4.3887,4.3248,4.1695,4.1211,4.1288,4.1657,4.1463,4.1211,4.1211,4.1074,4.082,4.0449,3.9707,3.8965,3.8689,3.8025,3.7568,3.7721,3.6313,3.499,3.4758,3.3459,3.2061,3.0996,3.0405,2.9874,2.9209,2.8612,2.8307,2.8486,2.8281,2.8179,2.8357,2.8362,2.8572,2.9005,2.8821,2.9115,3.002,3.0754,3.1286,3.1561,3.3415,3.4899,3.5925,3.6695,3.7702,3.8911,3.9597,4.0111,4.0533,4.0919,4.1102,4.1018,3.9586,3.7629,3.5407,3.3951,3.1997,2.994,3.0167,3.0474,3.0875,3.1543,3.1971,3.2291,6.3494,6.4548,6.5366,6.5654,6.6135,6.6496,6.6496,6.6496,6.6496,6.6496,6.6232,6.5943,6.5654,6.5197,6.4692,6.407,6.4311,6.4287,6.3758,6.3446,6.2845,6.1855,6.1734,6.1272,6.0237,6.0454,6.0309,5.9738,5.8921,5.8392,5.8079,5.7261,5.6612,5.6155,5.6395,5.5938,5.4977,5.4977,5.4496,5.375,5.351,5.2941,5.2118,5.0908,4.9402,4.7844,4.6833,4.5465,4.4043,4.3322,4.2789,4.2273,4.1463,4.1211,4.1211,4.1211,4.1211,4.1211,4.1211,4.1035,4.0781,4.0351,3.9883,3.9414,3.8965,3.8399,3.7909,3.772,3.6227,3.4844,3.4478,3.2908,3.1425,3.0606,2.9983,2.9442,2.9042,2.8645,2.8608,2.9159,2.9048,2.917,2.9709,2.9929,3.0002,2.9874,3.0314,3.0736,3.1066,3.2551,3.3211,3.2845,3.4605,3.5907,3.6751,3.7537,3.8493,3.952,3.9781,4.0203,4.079,4.1011,4.062,3.9756,3.8716,3.6751,3.4126,3.3131,3.1598,2.9927,3.01,3.0421,3.0862,3.1476,3.1957,3.242,6.405,6.5101,6.5823,6.5823,6.6183,6.6496,6.6496,6.6496,6.6496,6.6496,6.6424,6.6376,6.6376,6.5582,6.5005,6.4933,6.4455,6.395,6.3325,6.3229,6.2749,6.1831,6.2143,6.1662,6.0237,6.067,6.067,6.0213,5.9642,5.9378,5.9378,5.8848,5.8127,5.7285,5.7646,5.7045,5.5746,5.5578,5.5169,5.453,5.3846,5.2588,5.1102,5.0707,4.8313,4.5207,4.5301,4.3617,4.1426,4.1777,4.1562,4.1211,4.1211,4.1211,4.1211,4.1211,4.1211,4.1211,4.1211,4.0898,4.0527,4.0098,4.0,3.9863,3.9242,3.881,3.8302,3.7532,3.6138,3.4783,3.4016,3.2245,3.0736,3.0277,2.9525,2.9005,2.9005,2.8755,2.8993,3.0149,3.0106,3.0418,3.1543,3.1983,3.1818,3.0901,3.228,3.2829,3.1968,3.3928,3.4826,3.4293,3.5595,3.6714,3.7556,3.8325,3.9135,3.9983,3.9983,4.0368,4.1102,4.1102,4.007,3.8289,3.7989,3.5928,3.269,3.2381,3.1346,2.9927,2.9967,3.0314,3.0835,3.1169,3.1824,3.2594,6.4352,6.563,6.6376,6.6376,6.6424,6.6496,6.6496,6.6496,6.6496,6.6496,6.6111,6.5823,6.5823,6.5678,6.539,6.4957,6.4837,6.438,6.3349,6.2937,6.2432,6.1831,6.1465,6.0935,6.0237,6.0285,6.0285,6.0213,5.9642,5.9378,5.9378,5.8848,5.8512,5.8343,5.7983,5.767,5.7381,5.6452,5.5491,5.4477,5.2953,5.1662,5.0353,4.7993,4.6683,4.5896,4.4497,4.3251,4.2206,4.2305,4.1816,4.1211,4.1211,4.1211,4.1211,4.1211,4.1211,4.1211,4.1211,4.1172,4.0976,4.0527,4.043,4.0101,3.8966,3.8401,3.7969,3.7476,3.6103,3.4875,3.4392,3.2652,3.1047,3.0314,2.9525,2.9005,2.9005,2.9243,2.9739,3.0589,3.1249,3.1983,3.2863,3.2957,3.323,3.3707,3.3431,3.3562,3.4386,3.5101,3.5742,3.631,3.6566,3.7244,3.8398,3.8875,3.9557,4.0405,4.0405,4.0662,4.1102,4.1102,4.007,3.8203,3.6621,3.4694,3.2558,3.1003,3.0182,2.994,3.0194,3.0547,3.0862,3.1396,3.2045,3.2594,6.1943,6.3547,6.4836,6.4836,6.575,6.6496,6.6496,6.6496,6.64,6.6111,6.5847,6.5582,6.5318,6.527,6.5173,6.4933,6.4668,6.4239,6.3758,6.3274,6.2624,6.1831,6.1831,6.1489,6.067,6.0358,6.0213,6.0213,5.9931,5.981,5.9852,5.957,5.9137,5.8584,5.8343,5.7911,5.7253,5.5484,5.4327,5.3522,5.1475,4.9654,4.8078,4.6804,4.5595,4.4481,4.3687,4.2812,4.2129,4.2304,4.2012,4.1504,4.1504,4.1504,4.1465,4.125,4.1211,4.1211,4.1211,4.1016,4.0822,4.0879,4.0705,4.0299,3.949,3.8822,3.8198,3.7558,3.6312,3.5136,3.4504,3.2942,3.1598,3.1231,2.9947,2.914,2.958,2.9984,3.0534,3.1341,3.2349,3.3303,3.4075,3.4167,3.4222,3.4385,3.4275,3.4405,3.4954,3.5577,3.6273,3.7098,3.7537,3.8142,3.8911,3.9095,3.9648,4.0515,4.0515,4.0717,4.1102,4.1102,3.9526,3.6751,3.5885,3.3878,3.1123,3.0258,2.9913,2.994,3.0293,3.0587,3.0862,3.1497,3.2086,3.2567,6.0213,6.2271,6.4105,6.4105,6.5423,6.6496,6.6496,6.6496,6.6352,6.5943,6.5895,6.5727,6.5318,6.527,6.5221,6.5101,6.462,6.4215,6.4094,6.359,6.2845,6.1855,6.1951,6.1681,6.0839,6.043,6.0213,6.0213,6.0213,6.0213,6.0213,6.0213,5.953,5.8302,5.8105,5.7288,5.5956,5.3944,5.2916,5.2364,4.9971,4.8045,4.6513,4.5942,4.4662,4.3223,4.3223,4.2734,4.2148,4.2461,4.2226,4.1816,4.1914,4.1816,4.1621,4.1387,4.1211,4.1055,4.1172,4.0841,4.0588,4.0958,4.0685,4.0238,3.972,3.907,3.8311,3.7426,3.6368,3.5357,3.4678,3.3303,3.2221,3.2038,3.0626,2.9764,3.0387,3.0901,3.1543,3.2459,3.3468,3.4422,3.5192,3.5266,3.5138,3.4844,3.5174,3.5412,3.5412,3.6163,3.6915,3.7647,3.827,3.8893,3.952,3.9428,3.9795,4.0644,4.0644,4.0558,4.0451,4.0451,3.84,3.4825,3.4825,3.297,2.9913,2.9913,2.9913,2.994,3.0293,3.0587,3.0849,3.137,3.2032,3.2554,6.1458,6.4202,6.6286,6.6286,6.6403,6.6496,6.6496,6.6496,6.6472,6.6448,6.6424,6.6424,6.6376,6.6376,6.6183,6.5678,6.5149,6.4644,6.4119,6.359,6.2845,6.1855,6.0869,6.0358,6.0285,6.0237,6.0213,6.0213,6.0213,6.0213,6.0213,6.0213,5.9256,5.7474,5.6506,5.5099,5.3311,5.2261,5.1719,5.138,4.8837,4.7651,4.7154,4.4771,4.3795,4.3652,4.3652,4.3359,4.2988,4.3068,4.248,4.1875,4.2266,4.1836,4.1328,4.1641,4.119,4.0627,4.1094,4.0841,4.0509,4.0548,4.0255,3.9768,3.8945,3.8436,3.7911,3.7029,3.6182,3.5449,3.5028,3.3928,3.2881,3.2129,3.1561,3.1263,3.1318,3.1964,3.29,3.4073,3.4642,3.5211,3.6036,3.6127,3.6109,3.6072,3.642,3.6658,3.6658,3.7409,3.8089,3.849,3.8563,3.9168,4.0405,4.0038,4.024,4.1066,4.1066,4.0162,3.8503,3.8503,3.6448,3.2911,3.2911,3.1776,2.9913,2.9913,2.9913,2.994,3.0293,3.0587,3.0835,3.1142,3.181,3.2554,6.0219,6.1632,6.3085,6.4341,6.4577,6.5024,6.6286,6.6496,6.6376,6.6039,6.5991,6.5871,6.5558,6.5799,6.5799,6.527,6.5029,6.4692,6.4163,6.359,6.2845,6.1855,6.1061,6.055,6.0213,6.0213,6.0213,6.0213,6.0213,6.0213,6.0213,6.0213,5.903,5.685,5.618,5.4668,5.2471,5.0783,4.9829,4.9344,4.7543,4.6496,4.585,4.4882,4.4355,4.4101,4.3808,4.3437,4.3166,4.3379,4.3086,4.2617,4.2773,4.2241,4.1458,4.0796,4.0389,4.0177,4.0333,4.0098,3.9805,4.0059,3.9823,3.9471,3.9146,3.8771,3.8319,3.7671,3.7079,3.6493,3.5834,3.4954,3.4203,3.3892,3.29,3.2313,3.2826,3.3358,3.389,3.4348,3.521,3.5944,3.6512,3.6566,3.6696,3.6952,3.7079,3.7263,3.7519,3.8289,3.897,3.9373,3.9432,3.9652,4.0111,4.0221,4.0552,4.1102,4.1102,4.0113,3.8289,3.8289,3.6232,3.269,3.269,3.1642,2.9913,2.9913,2.9913,2.994,3.0293,3.0587,3.0822,3.1116,3.1784,3.2527,5.8299,5.9393,6.088,6.2831,6.2732,6.3064,6.4999,6.4883,6.4413,6.4063,6.4016,6.4132,6.4405,6.4615,6.4774,6.4866,6.4765,6.4452,6.3878,6.3349,6.2793,6.2071,6.1392,6.0839,6.0478,6.0309,6.0213,6.0213,6.0213,5.9895,5.9346,5.9346,5.7813,5.504,5.4437,5.2948,5.0692,4.8901,4.8057,4.7766,4.6595,4.584,4.5391,4.5094,4.4766,4.4355,4.4043,4.3652,4.332,4.3448,4.3355,4.3105,4.3119,4.2485,4.1583,4.0419,3.9937,3.9706,3.9706,3.9391,3.9193,3.9627,3.9391,3.9075,3.9075,3.876,3.8385,3.8055,3.7704,3.7208,3.6696,3.6017,3.5486,3.5211,3.4275,3.3707,3.4128,3.4532,3.4825,3.4954,3.5705,3.6384,3.675,3.6805,3.697,3.7354,3.7629,3.8034,3.8566,3.9245,3.9685,3.9872,4.0129,4.0203,4.0074,4.0368,4.0717,4.1102,4.1102,3.9798,3.7414,3.7414,3.5364,3.182,3.182,3.1093,2.9913,2.9913,2.9913,2.9953,3.0341,3.0667,3.0835,3.1223,3.181,3.2393,5.5932,5.8254,6.0792,6.2327,6.1288,6.077,6.2375,6.1311,6.0293,6.0293,6.0293,6.107,6.318,6.2911,6.3223,6.4751,6.4428,6.3854,6.3325,6.2865,6.26,6.2576,6.1585,6.1007,6.1007,6.0478,6.0213,6.0213,6.0213,5.9238,5.7398,5.7398,5.5356,5.1646,5.078,4.9348,4.7519,4.666,4.6543,4.6855,4.6016,4.5937,4.6211,4.5351,4.4766,4.4414,4.4414,4.4101,4.3628,4.3234,4.3109,4.3082,4.3099,4.2491,4.1601,4.076,3.9947,3.9312,3.9312,3.8956,3.8719,3.9193,3.8956,3.86,3.86,3.827,3.8016,3.8016,3.7704,3.7391,3.7391,3.7079,3.6548,3.5724,3.5596,3.5467,3.5064,3.5357,3.5742,3.6164,3.6219,3.6384,3.6768,3.6805,3.697,3.7373,3.816,3.9006,3.9836,4.0295,4.0331,3.9932,4.068,4.0919,4.0515,4.0515,4.0717,4.1102,4.1102,3.9143,3.5494,3.5494,3.3439,2.9913,2.9913,2.9913,2.9913,2.9913,2.9913,2.998,3.0568,3.0795,3.0862,3.1497,3.1851,3.2104,5.7678,5.801,5.8655,6.0651,5.9327,5.8704,6.0699,6.0594,6.0293,6.0293,6.0009,6.056,6.2606,6.2453,6.2758,6.4224,6.4167,6.3854,6.3325,6.3157,6.2961,6.26,6.1585,6.1007,6.1007,6.0478,6.0406,6.0767,6.0406,5.9427,5.788,5.7559,5.5356,5.1646,5.078,4.9348,4.7519,4.666,4.6367,4.6484,4.6543,4.6445,4.6269,4.6016,4.5664,4.5254,4.4941,4.4534,4.4083,4.3648,4.3288,4.2846,4.1974,4.153,4.1125,4.0306,3.9696,3.9317,3.9652,3.916,3.864,3.8758,3.8719,3.86,3.86,3.8508,3.8417,3.8417,3.8325,3.8142,3.7849,3.7702,3.7446,3.6933,3.6841,3.6805,3.6695,3.6768,3.6896,3.7006,3.7024,3.7189,3.7592,3.7886,3.8234,3.8618,3.9465,3.9905,3.9891,4.0552,4.0735,4.0331,4.0827,4.1047,4.0919,4.0919,4.0992,4.1102,4.1102,3.9143,3.5494,3.5494,3.3439,2.9913,2.9913,2.9913,2.9913,2.9913,3.0034,3.0293,3.0467,3.0742,3.1116,3.1289,3.1677,3.2078,5.6425,5.626,5.6462,5.8393,5.7107,5.6491,5.8442,5.8197,5.7828,5.7828,5.7577,5.8174,6.0216,5.9908,6.0178,6.1856,6.242,6.2855,6.3257,6.3109,6.2913,6.26,6.0848,5.9867,5.9867,6.0289,6.0289,5.9867,5.9687,5.8759,5.6993,5.5865,5.3696,5.0555,4.9826,4.8817,4.7539,4.6836,4.6465,4.6328,4.6582,4.6523,4.6308,4.6308,4.5905,4.5385,4.5114,4.4577,4.3957,4.3519,4.3211,4.28,4.1873,4.1472,4.1184,4.0363,3.9836,3.952,3.9817,3.9524,3.9116,3.9116,3.8948,3.8838,3.8838,3.8838,3.8783,3.8637,3.86,3.8527,3.827,3.8215,3.8126,3.7684,3.7629,3.7556,3.7409,3.7391,3.7391,3.7391,3.7391,3.7537,3.7979,3.8362,3.8911,3.9667,4.018,4.0478,4.0368,4.0827,4.0992,4.0754,4.0974,4.1102,4.1102,4.1102,4.1102,4.1102,4.1102,3.9143,3.5494,3.5494,3.3439,2.9913,2.9913,2.9913,2.9913,2.9913,3.0087,3.0413,3.0533,3.0808,3.1236,3.1356,3.1623,3.1904,5.341,5.373,5.4426,5.5851,5.4924,5.4477,5.588,5.4874,5.3972,5.3972,5.3953,5.4759,5.6791,5.6255,5.6618,5.8806,6.0042,6.1357,6.2923,6.2625,6.2318,6.2071,5.9436,5.7852,5.7586,5.948,5.9633,5.7917,5.8332,5.7401,5.5127,5.3188,5.1087,4.8933,4.8418,4.7988,4.7598,4.7168,4.6738,4.6367,4.6304,4.6284,4.6221,4.6177,4.5682,4.4986,4.4986,4.4391,4.3593,4.3062,4.2876,4.2783,4.243,4.2021,4.157,4.08,4.0295,3.9946,3.9983,3.9928,3.9932,3.9964,3.9648,3.9296,3.9259,3.9223,3.9095,3.8728,3.8637,3.86,3.86,3.86,3.8472,3.8087,3.8032,3.7943,3.7537,3.7501,3.7501,3.7537,3.7537,3.7702,3.8126,3.8527,3.9281,4.0478,4.057,4.0717,4.1084,4.1102,4.1102,4.1102,4.1102,4.1102,4.1102,4.1102,4.1102,4.1102,4.1102,3.9143,3.5494,3.5494,3.3439,2.9913,2.9913,2.9913,2.9913,2.9913,3.0087,3.0426,3.0648,3.0929,3.1223,3.1517,3.1671,3.1684,5.341,5.373,5.4086,5.4426,5.42,5.4086,5.4426,5.42,5.3972,5.3972,5.373,5.4283,5.6247,5.5999,5.7,6.0218,6.1842,6.2187,6.1087,6.0926,5.9996,5.7983,5.7261,5.5871,5.3599,5.5465,5.6465,5.6462,5.6461,5.5661,5.4124,5.2861,5.1269,4.9355,4.8555,4.8164,4.8047,4.7617,4.7187,4.6753,4.6354,4.6028,4.5695,4.5343,4.5109,4.4945,4.4945,4.4536,4.3964,4.3146,4.2702,4.2426,4.2352,4.2039,4.1665,4.1488,4.0956,4.0442,4.0754,4.0368,4.0038,4.068,4.0533,4.0166,3.9836,3.9465,3.9168,3.9076,3.882,3.86,3.86,3.86,3.8563,3.849,3.8472,3.8435,3.8343,3.8343,3.8453,3.8765,3.8801,3.8948,3.9392,3.9813,4.0308,4.0937,4.0974,4.1011,4.1102,4.1102,4.1102,4.1102,4.1102,4.1102,4.1102,4.1102,4.1102,4.1102,4.1102,3.9143,3.5494,3.5494,3.3439,2.9913,2.9913,2.9913,2.9913,2.9913,3.0087,3.0413,3.048,3.0635,3.0929,3.1209,3.1316,3.1356,5.3672,5.3867,5.3972,5.3972,5.3972,5.3972,5.3972,5.3972,5.3972,5.3972,5.3828,5.4077,5.5075,5.5745,5.7068,5.9433,5.9466,5.9266,5.8995,5.8973,5.8245,5.666,5.5717,5.4427,5.2677,5.2748,5.332,5.4345,5.468,5.436,5.3427,5.2153,5.0822,4.9465,4.8997,4.8594,4.8183,4.7969,4.7482,4.6824,4.66,4.6127,4.5541,4.5275,4.4939,4.4548,4.4548,4.4237,4.3819,4.3331,4.3023,4.2821,4.2663,4.2461,4.2216,4.2032,4.1708,4.1415,4.1635,4.1378,4.1158,4.158,4.1378,4.0937,4.0331,3.9854,3.9465,3.9223,3.9021,3.8875,3.8875,3.908,3.9208,3.9208,3.9208,3.9208,3.9208,3.9208,3.9281,3.9502,3.952,3.9685,4.0088,4.0387,4.068,4.1066,4.1102,4.1102,4.1102,4.1102,4.1102,4.1102,4.1102,4.1102,4.1102,4.0198,3.9756,3.9756,3.9756,3.8272,3.5478,3.4563,3.2617,2.9913,2.9913,2.9913,2.9927,3.0074,3.0221,3.0426,3.056,3.0662,3.0822,3.1116,3.1316,3.1463,5.3972,5.3972,5.4062,5.4141,5.4031,5.4062,5.4141,5.4031,5.3972,5.3972,5.3972,5.3972,5.3972,5.5405,5.6745,5.7686,5.6401,5.5909,5.6821,5.6893,5.6534,5.5775,5.4237,5.3159,5.2661,5.1026,5.0828,5.2123,5.2898,5.3062,5.2585,5.1317,5.0273,4.9484,4.9313,4.8865,4.8183,4.8092,4.7566,4.6772,4.6727,4.6169,4.5373,4.5284,4.4771,4.406,4.406,4.3837,4.3499,4.3499,4.3499,4.3426,4.3122,4.2975,4.2846,4.2516,4.2326,4.2314,4.2314,4.2314,4.2252,4.2197,4.1922,4.15,4.079,4.0295,3.9891,3.952,3.9296,3.9205,3.9318,3.9557,3.9799,3.9872,3.9891,3.9891,3.9891,3.9891,3.9909,3.9983,4.0056,4.024,4.057,4.0607,4.0754,4.1066,4.1102,4.1102,4.1102,4.1102,4.1102,4.1102,4.1102,4.0934,4.062,3.9075,3.816,3.7817,3.75,3.6535,3.4956,3.3395,3.1701,2.9913,2.9913,2.9913,2.994,3.0234,3.04,3.044,3.0675,3.0795,3.0822,3.1116,3.141,3.1711,5.3972,5.3972,5.4141,5.4531,5.4277,5.416,5.4531,5.4277,5.3972,5.3972,5.3972,5.3972,5.3972,5.5092,5.5856,5.6023,5.6701,5.6444,5.4894,5.48,5.4019,5.2178,5.186,5.1519,5.1105,5.0494,5.0279,5.0503,5.0976,5.0996,5.0582,5.0377,5.0,4.9465,4.8676,4.8211,4.8096,4.7679,4.7199,4.6682,4.6268,4.5616,4.4834,4.4429,4.4009,4.3589,4.3589,4.3544,4.3499,4.3499,4.3499,4.3481,4.3426,4.3151,4.2901,4.2846,4.2589,4.2314,4.2314,4.2314,4.2241,4.1849,4.1721,4.1555,4.1139,4.0717,4.0405,4.035,3.974,3.9336,3.9726,3.952,3.9428,3.9817,3.9891,3.9891,3.9891,3.9891,4.0019,4.0387,4.0735,4.0956,4.1011,4.1029,4.1047,4.1102,4.1102,4.1102,4.1102,4.1102,4.1102,4.1102,4.1102,4.0325,3.8674,3.8417,3.75,3.5842,3.4213,3.3292,3.3087,3.2823,3.1701,2.9913,2.9913,2.9913,2.994,3.0234,3.04,3.044,3.0675,3.0795,3.0822,3.1116,3.141,3.1711,5.3972,5.3972,5.4082,5.4277,5.416,5.4101,5.4297,5.416,5.3972,5.3972,5.3972,5.3972,5.3972,5.4243,5.4798,5.571,5.4993,5.3944,5.2808,5.274,5.2326,5.1426,5.1377,5.1299,5.1152,5.0508,5.0176,5.0176,5.0371,5.0351,5.0176,5.041,5.015,4.9439,4.8778,4.8218,4.7708,4.7229,4.6789,4.6278,4.5869,4.5148,4.4402,4.4177,4.3829,4.3499,4.3499,4.3499,4.3499,4.3499,4.3499,4.3499,4.3499,4.3371,4.3224,4.3224,4.3096,4.2949,4.2949,4.2949,4.2913,4.2747,4.2527,4.2234,4.1873,4.147,4.1024,4.0607,4.0038,3.9744,4.0166,4.0093,4.0052,4.0497,4.057,4.057,4.057,4.057,4.0644,4.0809,4.0992,4.1102,4.1102,4.1102,4.1102,4.1102,4.1102,4.1102,4.1102,4.1102,4.1102,4.1102,4.1102,4.0198,3.8332,3.7241,3.5798,3.3907,3.2041,3.1687,3.2646,3.1598,3.0691,2.9927,3.01,3.0074,2.9953,3.0408,3.056,3.0426,3.0547,3.0648,3.0822,3.1116,3.141,3.1711]},{"header":{"parameterUnit":"m.s-1","parameterCategory":1,"la1":30.6,"la2":28.766,"lo1":-90.7593,"lo2":-88.6598,"dy":0.0162,"dx":0.0183,"nx":116,"ny":114,"refTime":"2023-11-10T18:00:00:Z","depth":0,"parameterNumber":3,"parameterNumberName":"V-component_of_WINDS"},"data":[0.0,0.0,0.0,0.0,0.0,0.0,0.0,0.0,0.0,0.0,0.0,0.0,0.0,0.0,0.0,0.0,0.0,0.0,0.0,0.0,0.0,0.0,0.0,0.0,0.0,0.0,0.0,0.0,0.0,0.0,0.0,0.0,0.0,0.0,0.0,0.0,0.0,0.0,0.0,0.0,0.0,0.0,0.0,0.0,0.0,0.0,0.0,0.0,0.0,0.0,0.0,0.0,0.0,0.0,0.0,0.0,0.0,0.0,0.0,0.0,0.0,0.0,0.0,0.0,0.0,0.0,0.0,0.0,0.0,0.0,0.0,0.0,0.0,0.0,0.0,0.0,0.0,0.0,0.0,0.0,0.0,0.0,0.0,0.0,0.0,0.0,0.0,0.0,0.0,0.0,0.0,0.0,0.0,0.0,0.0,0.0,0.0,0.0,0.0,0.0,0.0,0.0,0.0,0.0,0.0,0.0,0.0,0.0,0.0,0.0,0.0,0.0,0.0,0.0,0.0,0.0,0.0,0.0,0.0,0.0,0.0,0.0,0.0,0.0,0.0,0.0,0.0,0.0,0.0,0.0,0.0,0.0,0.0,0.0,0.0,0.0,0.0,0.0,0.0,0.0,0.0,0.0,0.0,0.0,0.0,0.0,0.0,0.0,0.0,0.0,0.0,0.0,0.0,0.0,0.0,0.0,0.0,0.0,0.0,0.0,0.0,0.0,0.0,0.0,0.0,0.0,0.0,0.0,0.0,0.0,0.0,0.0,0.0,0.0,0.0,0.0,0.0,0.0,0.0,0.0,0.0,0.0,0.0,0.0,0.0,0.0,0.0,0.0,0.0,0.0,0.0,0.0,0.0,0.0,0.0,0.0,0.0,0.0,0.0,0.0,0.0,0.0,0.0,0.0,0.0,0.0,0.0,0.0,0.0,0.0,0.0,0.0,0.0,0.0,0.0,0.0,0.0,0.0,0.0,0.0,0.0,0.0,0.0,0.0,0.0,0.0,0.0,0.0,0.0,0.0,0.0,0.0,0.0,0.0,0.0,0.0,0.0,0.0,0.0,0.0,0.0,0.0,0.0,0.0,0.0,0.0,0.0,0.0,0.0,0.0,0.0,0.0,0.0,0.0,0.0,0.0,0.0,0.0,0.0,0.0,0.0,0.0,0.0,0.0,0.0,0.0,0.0,0.0,0.0,0.0,0.0,0.0,0.0,0.0,0.0,0.0,0.0,0.0,0.0,0.0,0.0,0.0,0.0,0.0,0.0,0.0,0.0,0.0,0.0,0.0,0.0,0.0,0.0,0.0,0.0,0.0,0.0,0.0,0.0,0.0,0.0,0.0,0.0,0.0,0.0,0.0,0.0,0.0,0.0,0.0,0.0,0.0,0.0,0.0,0.0,0.0,0.0,0.0,0.0,0.0,0.0,0.0,0.0,0.0,0.0,0.0,0.0,0.0,0.0,0.0,0.0,0.0,0.0,0.0,0.0,0.0,0.0,0.0,0.0,0.0,0.0,0.0,0.0,0.0,0.0,0.0,0.0,0.0,0.0,0.0,0.0,0.0,0.0,0.0,0.0,0.0,0.0,0.0,0.0,0.0,0.0,0.0,0.0,0.0,0.0,0.0,0.0,0.0,0.0,0.0,0.0,0.0,0.0,0.0,0.0,0.0,0.0,0.0,0.0,0.0,0.0,0.0,0.0,0.0,0.0,0.0,0.0,0.0,0.0,0.0,0.0,0.0,0.0,0.0,0.0,0.0,0.0,0.0,0.0,0.0,0.0,0.0,0.0,0.0,0.0,0.0,0.0,0.0,0.0,0.0,0.0,0.0,0.0,0.0,0.0,0.0,0.0,0.0,0.0,0.0,0.0,0.0,0.0,0.0,0.0,0.0,0.0,0.0,0.0,0.0,0.0,0.0,0.0,0.0,0.0,0.0,0.0,0.0,0.0,0.0,0.0,0.0,0.0,0.0,0.0,0.0,0.0,0.0,0.0,0.0,0.0,0.0,0.0,0.0,0.0,0.0,0.0,0.0,0.0,0.0,0.0,0.0,0.0,0.0,0.0,0.0,0.0,0.0,0.0,0.0,0.0,0.0,0.0,0.0,0.0,0.0,0.0,0.0,0.0,0.0,0.0,0.0,0.0,0.0,0.0,0.0,0.0,0.0,0.0,0.0,0.0,0.0,0.0,0.0,0.0,0.0,0.0,0.0,0.0,0.0,0.0,0.0,0.0,0.0,0.0,0.0,0.0,0.0,0.0,0.0,0.0,0.0,0.0,0.0,0.0,0.0,0.0,0.0,0.0,0.0,0.0,0.0,0.0,0.0,0.0,0.0,0.0,0.0,0.0,0.0,0.0,0.0,0.0,0.0,0.0,0.0,0.0,0.0,0.0,0.0,0.0,0.0,0.0,0.0,0.0,0.0,0.0,0.0,0.0,0.0,0.0,0.0,0.0,0.0,0.0,0.0,0.0,0.0,0.0,0.0,0.0,0.0,0.0,0.0,0.0,0.0,0.0,0.0,0.0,0.0,0.0,0.0,0.0,0.0,0.0,0.0,0.0,0.0,0.0,0.0,0.0,0.0,0.0,0.0,0.0,0.0,0.0,0.0,0.0,0.0,0.0,0.0,0.0,0.0,0.0,0.0,0.0,0.0,0.0,0.0,0.0,0.0,0.0,0.0,0.0,0.0,0.0,0.0,0.0,0.0,0.0,0.0,0.0,0.0,0.0,0.0,0.0,0.0,0.0,0.0,0.0,0.0,0.0,0.0,0.0,0.0,0.0,0.0,0.0,0.0,0.0,0.0,0.0,0.0,0.0,0.0,0.0,0.0,0.0,0.0,0.0,0.0,0.0,0.0,0.0,0.0,0.0,0.0,0.0,0.0,0.0,0.0,0.0,0.0,0.0,0.0,0.0,0.0,0.0,0.0,0.0,0.0,0.0,0.0,0.0,0.0,0.0,0.0,0.0,0.0,0.0,0.0,0.0,0.0,0.0,0.0,0.0,0.0,0.0,0.0,0.0,0.0,0.0,0.0,0.0,0.0,0.0,0.0,0.0,0.0,0.0,0.0,0.0,0.0,0.0,0.0,0.0,0.0,0.0,0.0,0.0,0.0,0.0,0.0,0.0,0.0,0.0,0.0,0.0,0.0,0.0,0.0,0.0,0.0,0.0,0.0,0.0,0.0,0.0,0.0,0.0,0.0,0.0,0.0,0.0,0.0,0.0,0.0,0.0,0.0,0.0,0.0,0.0,0.0,0.0,0.0,0.0,0.0,0.0,0.0,0.0,0.0,0.0,0.0,0.0,0.0,0.0,0.0,0.0,0.0,0.0,0.0,0.0,0.0,0.0,0.0,0.0,0.0,0.0,0.0,0.0,0.0,0.0,0.0,0.0,0.0,0.0,0.0,0.0,0.0,0.0,0.0,0.0,0.0,0.0,0.0,0.0,0.0,0.0,0.0,0.0,0.0,0.0,0.0,0.0,0.0,0.0,0.0,0.0,0.0,0.0,0.0,0.0,0.0,0.0,0.0,0.0,0.0,0.0,0.0,0.0,0.0,0.0,0.0,0.0,0.0,0.0,0.0,0.0,0.0,0.0,0.0,0.0,0.0,0.0,0.0,0.0,0.0,0.0,0.0,0.0,0.0,0.0,0.0,0.0,0.0,0.0,0.0,0.0,0.0,0.0,0.0,0.0,0.0,0.0,0.0,0.0,0.0,0.0,0.0,0.0,0.0,0.0,0.0,0.0,0.0,0.0,0.0,0.0,0.0,0.0,0.0,0.0,0.0,0.0,0.0,0.0,0.0,0.0,0.0,0.0,0.0,0.0,0.0,0.0,0.0,0.0,0.0,0.0,0.0,0.0,0.0,0.0,0.0,0.0,0.0,0.0,0.0,0.0,0.0,0.0,0.0,0.0,0.0,0.0,0.0,0.0,0.0,0.0,0.0,0.0,0.0,0.0,0.0,0.0,0.0,0.0,0.0,0.0,0.0,0.0,0.0,0.0,0.0,0.0,0.0,0.0,0.0,0.0,0.0,0.0,0.0,0.0,0.0,0.0,0.0,0.0,0.0,0.0,0.0,0.0,0.0,0.0,0.0,0.0,0.0,0.0,0.0,0.0,0.0,0.0,0.0,0.0,0.0,0.0,0.0,0.0,0.0,0.0,0.0,0.0,0.0,0.0,0.0,0.0,0.0,0.0,0.0,0.0,0.0,0.0,0.0,0.0,0.0,0.0,0.0,0.0,0.0,0.0,0.0,0.0,0.0,0.0,0.0,0.0,0.0,0.0,0.0,0.0,0.0,0.0,0.0,0.0,0.0,0.0,0.0,0.0,0.0,0.0,0.0,0.0,0.0,0.0,0.0,0.0,0.0,0.0,0.0,0.0,0.0,0.0,0.0,0.0,0.0,0.0,0.0,0.0,0.0,0.0,0.0,0.0,0.0,0.0,0.0,0.0,0.0,0.0,0.0,0.0,0.0,0.0,0.0,0.0,0.0,0.0,0.0,0.0,0.0,0.0,0.0,0.0,0.0,0.0,0.0,0.0,0.0,0.0,0.0,0.0,0.0,0.0,0.0,0.0,0.0,0.0,0.0,0.0,0.0,0.0,0.0,0.0,0.0,0.0,0.0,0.0,0.0,0.0,0.0,0.0,0.0,0.0,0.0,0.0,0.0,0.0,0.0,0.0,0.0,0.0,0.0,0.0,0.0,0.0,0.0,0.0,0.0,0.0,0.0,0.0,0.0,0.0,0.0,0.0,0.0,0.0,0.0,0.0,0.0,0.0,0.0,0.0,0.0,0.0,0.0,0.0,0.0,0.0,0.0,0.0,0.0,0.0,0.0,0.0,0.0,0.0,0.0,0.0,0.0,0.0,0.0,0.0,0.0,0.0,0.0,0.0,0.0,0.0,0.0,0.0,0.0,0.0,0.0,0.0,0.0,0.0,0.0,0.0,0.0,0.0,0.0,0.0,0.0,0.0,0.0,0.0,0.0,0.0,0.0,0.0,0.0,0.0,0.0,0.0,0.0,0.0,0.0,0.0,0.0,0.0,0.0,0.0,0.0,0.0,0.0,0.0,0.0,0.0,0.0,0.0,0.0,0.0,0.0,0.0,0.0,0.0,0.0,0.0,0.0,0.0,0.0,0.0,0.0,0.0,0.0,0.0,0.0,0.0,0.0,0.0,0.0,0.0,0.0,0.0,0.0,0.0,0.0,0.0,0.0,0.0,0.0,0.0,0.0,0.0,0.0,0.0,0.0,0.0,0.0,0.0,0.0,0.0,0.0,0.0,0.0,0.0,0.0,0.0,0.0,0.0,0.0,0.0,0.0,0.0,0.0,0.0,0.0,0.0,0.0,0.0,0.0,0.0,0.0,0.0,0.0,0.0,0.0,0.0,0.0,0.0,0.0,0.0,0.0,0.0,0.0,0.0,0.0,0.0,0.0,0.0,0.0,0.0,0.0,0.0,0.0,0.0,0.0,0.0,0.0,0.0,0.0,0.0,0.0,0.0,0.0,0.0,0.0,0.0,0.0,0.0,0.0,0.0,0.0,0.0,0.0,0.0,0.0,0.0,0.0,0.0,0.0,0.0,0.0,0.0,0.0,0.0,0.0,0.0,0.0,0.0,0.0,0.0,0.0,0.0,0.0,0.0,0.0,0.0,0.0,0.0,0.0,0.0,0.0,0.0,0.0,0.0,0.0,0.0,0.0,0.0,0.0,0.0,0.0,0.0,0.0,0.0,0.0,0.0,0.0,0.0,0.0,0.0,0.0,0.0,0.0,0.0,0.0,0.0,0.0,0.0,0.0,0.0,0.0,0.0,0.0,0.0,0.0,0.0,0.0,0.0,0.0,0.0,0.0,0.0,0.0,0.0,0.0,0.0,0.0,0.0,0.0,0.0,0.0,0.0,0.0,0.0,0.0,0.0,0.0,0.0,0.0,0.0,0.0,0.0,0.0,0.0,0.0,0.0,0.0,0.0,0.0,0.0,0.0,0.0,0.0,0.0,0.0,0.0,0.0,0.0,0.0,0.0,0.0,0.0,0.0,0.0,0.0,0.0,0.0,0.0,0.0,0.0,0.0,0.0,0.0,0.0,0.0,0.0,0.0,0.0,0.0,3.379,3.1955,0.0,0.0,0.0,0.0,0.0,0.0,0.0,0.0,0.0,0.0,0.0,0.0,0.0,0.0,0.0,0.0,0.0,0.0,0.0,0.0,0.0,0.0,0.0,0.0,0.0,0.0,0.0,0.0,0.0,0.0,0.0,0.0,0.0,0.0,0.0,0.0,0.0,0.0,3.4632,3.4588,3.5193,3.6915,3.6112,3.3161,0.0,0.0,0.0,0.0,0.0,0.0,0.0,0.0,0.0,0.0,0.0,0.0,0.0,0.0,0.0,0.0,0.0,0.0,0.0,0.0,0.0,0.0,0.0,0.0,0.0,0.0,0.0,0.0,0.0,0.0,0.0,0.0,0.0,0.0,0.0,0.0,0.0,0.0,0.0,0.0,0.0,0.0,0.0,0.0,0.0,0.0,0.0,0.0,0.0,0.0,0.0,0.0,0.0,0.0,0.0,0.0,0.0,0.0,0.0,0.0,0.0,0.0,0.0,0.0,0.0,0.0,0.0,0.0,0.0,0.0,3.8334,3.5805,0.0,0.0,0.0,0.0,0.0,0.0,0.0,0.0,0.0,0.0,0.0,0.0,0.0,0.0,0.0,0.0,0.0,0.0,0.0,0.0,0.0,0.0,0.0,0.0,3.55,3.5475,3.5468,0.0,0.0,0.0,0.0,0.0,0.0,0.0,0.0,0.0,0.0,0.0,3.5712,3.6586,3.8724,4.0987,3.9699,3.5394,3.3366,0.0,0.0,0.0,0.0,0.0,0.0,0.0,0.0,0.0,0.0,0.0,0.0,0.0,0.0,0.0,0.0,0.0,0.0,0.0,0.0,0.0,0.0,0.0,0.0,0.0,0.0,0.0,0.0,0.0,0.0,0.0,0.0,0.0,0.0,0.0,0.0,0.0,0.0,0.0,0.0,0.0,0.0,0.0,0.0,0.0,0.0,0.0,0.0,0.0,0.0,0.0,0.0,0.0,0.0,0.0,0.0,0.0,0.0,0.0,0.0,0.0,0.0,0.0,4.6598,4.7643,4.8591,4.8591,4.8957,4.9275,4.4833,4.1856,3.9993,3.7797,0.0,0.0,0.0,0.0,0.0,0.0,0.0,0.0,0.0,0.0,0.0,0.0,0.0,0.0,0.0,0.0,0.0,0.0,0.0,0.0,0.0,3.5519,3.5453,3.5336,3.5442,3.5436,0.0,0.0,0.0,0.0,0.0,0.0,0.0,3.4971,3.5389,3.5421,3.8683,4.1655,4.4244,4.4451,4.456,4.4397,4.0178,3.8986,3.9915,0.0,0.0,0.0,0.0,0.0,0.0,0.0,0.0,0.0,0.0,0.0,0.0,0.0,0.0,0.0,0.0,0.0,0.0,0.0,0.0,0.0,0.0,0.0,0.0,0.0,0.0,0.0,0.0,0.0,0.0,0.0,0.0,0.0,0.0,0.0,0.0,0.0,0.0,0.0,0.0,0.0,3.3443,3.4399,0.0,0.0,0.0,0.0,0.0,0.0,0.0,0.0,0.0,0.0,0.0,0.0,0.0,4.3861,4.5818,4.903,5.0764,5.1081,5.4086,5.5343,5.4985,5.4985,5.5036,5.5082,5.438,0.0,4.339,4.1337,0.0,0.0,0.0,0.0,0.0,0.0,0.0,0.0,0.0,0.0,0.0,0.0,0.0,0.0,0.0,0.0,0.0,0.0,0.0,0.0,0.0,3.7238,3.7804,3.8144,3.9932,3.9879,3.721,0.0,0.0,0.0,0.0,0.0,3.4971,3.6011,3.7816,4.0364,4.5082,4.7986,4.9202,5.0236,5.0727,5.0637,4.8237,4.4989,4.1095,3.7763,0.0,0.0,0.0,0.0,0.0,0.0,0.0,0.0,0.0,0.0,0.0,0.0,0.0,0.0,0.0,0.0,0.0,0.0,0.0,0.0,0.0,0.0,0.0,0.0,0.0,0.0,0.0,0.0,0.0,0.0,0.0,0.0,0.0,0.0,0.0,0.0,0.0,0.0,0.0,3.4008,3.566,3.4438,3.5319,3.519,0.0,0.0,0.0,0.0,0.0,0.0,0.0,0.0,0.0,4.6935,4.842,5.0121,5.2145,5.5486,5.736,5.7746,6.0337,6.1403,6.1164,6.1523,6.1283,6.0565,6.0565,5.7534,5.221,4.7548,4.4079,4.146,0.0,0.0,0.0,0.0,4.0197,4.1005,0.0,0.0,0.0,0.0,0.0,0.0,0.0,0.0,0.0,0.0,0.0,0.0,3.7956,3.9379,4.0786,4.2282,4.4018,4.3718,4.0606,4.0397,0.0,0.0,0.0,3.5519,3.5519,3.7746,4.1186,4.5822,5.078,5.3563,5.4251,5.5927,5.6436,5.5927,5.5089,5.096,4.4435,4.0809,3.9059,3.8536,0.0,0.0,0.0,0.0,0.0,0.0,0.0,0.0,0.0,0.0,0.0,0.0,0.0,0.0,0.0,0.0,0.0,0.0,0.0,0.0,0.0,0.0,0.0,0.0,0.0,0.0,0.0,0.0,0.0,0.0,0.0,0.0,0.0,0.0,0.0,0.0,0.0,3.6443,3.808,3.5229,3.7994,3.8583,0.0,0.0,0.0,0.0,0.0,0.0,4.5419,4.6816,4.9243,5.3061,5.4794,5.6713,5.8946,6.1403,6.2959,6.3617,6.4904,6.5503,6.5503,6.5862,6.5263,6.4006,6.4006,6.2421,5.9374,5.3405,4.9475,4.7007,4.4583,4.3749,4.401,4.5026,4.552,4.6128,0.0,0.0,0.0,0.0,0.0,0.0,0.0,0.0,0.0,0.0,0.0,3.6716,3.9888,4.1433,4.3788,4.757,4.5723,4.4775,4.5822,4.0677,3.7793,3.823,3.6477,3.5519,3.5519,4.0438,4.5263,4.9897,5.3982,5.727,5.9725,6.0475,6.0805,6.0715,5.9398,5.6855,5.318,4.7364,4.4883,4.4407,3.9313,0.0,0.0,0.0,0.0,0.0,0.0,0.0,0.0,0.0,0.0,0.0,0.0,0.0,0.0,0.0,0.0,0.0,0.0,0.0,0.0,0.0,0.0,0.0,0.0,0.0,0.0,0.0,0.0,0.0,0.0,0.0,0.0,0.0,0.0,0.0,0.0,0.0,0.0,3.8691,4.2958,0.0,0.0,0.0,0.0,4.4328,4.566,4.8152,5.2179,5.3633,5.652,6.1319,6.2212,6.3828,6.643,6.661,6.7059,6.7688,6.7179,6.6879,6.6879,6.6281,6.5263,6.4006,6.4006,6.3228,6.1642,5.7517,5.4645,5.2636,5.0908,5.06,5.1129,5.0916,5.1433,5.2208,0.0,0.0,0.0,0.0,0.0,0.0,0.0,0.0,0.0,3.537,3.6969,3.9242,4.2551,4.5633,4.8686,5.1828,5.2007,5.0923,4.8409,4.4616,4.2013,4.1033,3.8649,3.917,4.3,4.6151,5.0428,5.5931,5.8231,6.0685,6.3258,6.3079,6.3199,6.3558,6.266,6.1164,5.883,5.2007,4.7856,4.5574,4.1115,3.837,0.0,0.0,0.0,0.0,0.0,0.0,0.0,0.0,0.0,0.0,0.0,0.0,0.0,0.0,0.0,0.0,0.0,0.0,0.0,0.0,0.0,0.0,0.0,0.0,0.0,0.0,0.0,0.0,0.0,0.0,0.0,0.0,0.0,0.0,0.0,0.0,0.0,4.6395,5.0033,0.0,4.6923,4.7313,4.8455,4.9934,5.2532,5.544,5.8664,6.0446,6.276,6.5802,6.655,6.7328,6.8286,6.9093,6.9213,6.8645,6.9434,6.9199,6.7966,6.8362,6.7608,6.5916,6.5916,6.5403,6.4495,6.2621,5.9928,5.6821,5.4945,5.4488,5.4841,5.4722,5.5279,5.6202,0.0,0.0,0.0,0.0,0.0,0.0,0.0,0.0,3.3993,3.534,3.8182,4.1414,4.4945,4.9232,5.315,5.6256,5.6107,5.4486,5.1163,4.6792,4.3648,4.2141,4.0565,4.2331,4.7848,5.078,5.4705,5.9787,6.1764,6.3767,6.5652,6.4994,6.5144,6.5981,6.4844,6.3887,6.272,5.7214,5.2312,4.7945,4.4227,4.2073,4.0576,0.0,0.0,0.0,0.0,0.0,0.0,0.0,0.0,0.0,0.0,0.0,0.0,0.0,0.0,0.0,0.0,0.0,0.0,0.0,0.0,0.0,0.0,0.0,0.0,0.0,0.0,0.0,0.0,0.0,0.0,0.0,0.0,0.0,0.0,4.7904,5.2282,5.1907,5.6273,5.7766,5.3839,5.4442,5.5709,5.7188,5.9455,6.1852,6.4306,6.5652,6.7178,6.8914,6.9213,6.9542,6.9961,7.0686,7.0631,6.9821,7.0802,7.0479,6.9029,6.9457,6.8698,6.6998,6.6998,6.6633,6.5965,6.554,6.3795,6.1288,5.9858,5.9267,5.927,5.9617,6.0057,6.0593,0.0,0.0,0.0,0.0,0.0,0.0,0.0,3.3919,3.3993,3.534,3.9038,4.302,4.695,5.2127,5.6885,6.0777,5.7513,5.494,5.4251,4.6792,4.2141,4.1553,4.2261,4.4866,4.9516,5.4037,5.7958,6.1225,6.4425,6.6311,6.6969,6.6311,6.67,6.7928,6.5951,6.5084,6.4964,6.3049,5.8501,5.2276,4.8865,4.707,4.5822,0.0,0.0,0.0,0.0,0.0,0.0,0.0,0.0,0.0,0.0,0.0,0.0,0.0,0.0,0.0,0.0,0.0,0.0,0.0,0.0,0.0,0.0,0.0,0.0,0.0,0.0,0.0,0.0,0.0,0.0,0.0,0.0,0.0,4.6073,5.251,5.6674,5.5075,6.1557,6.4338,5.9704,6.1751,6.4126,6.5981,6.6161,6.7029,6.9004,6.9093,6.9662,7.0919,7.0412,7.0682,7.1939,7.1635,7.1466,7.1466,7.1183,7.0704,7.0065,6.9397,6.8364,6.7118,6.7118,6.6754,6.6116,6.6116,6.6085,6.6023,6.5582,6.5024,6.459,6.5576,6.5706,6.5358,0.0,0.0,0.0,0.0,0.0,0.0,0.0,3.3919,3.4143,3.5985,4.0894,4.5544,4.9022,5.4556,5.9039,6.1613,5.8228,5.5418,5.4281,4.6792,4.293,4.4167,4.716,5.1409,5.703,5.8378,6.0864,6.4665,6.5054,6.5892,6.6969,6.6311,6.67,6.7958,6.6909,6.6729,6.7119,6.6071,6.3767,6.0206,5.4042,5.0324,4.8049,0.0,0.0,0.0,0.0,0.0,0.0,0.0,0.0,0.0,0.0,0.0,0.0,0.0,0.0,0.0,0.0,0.0,0.0,0.0,0.0,0.0,0.0,0.0,0.0,0.0,0.0,0.0,0.0,0.0,0.0,0.0,4.8872,5.3264,5.3182,5.8748,6.3505,6.54,6.7974,6.9028,6.7735,6.7923,6.8286,6.8763,6.9722,7.05,7.1068,7.1098,7.1487,7.2325,7.1989,7.2179,7.2992,7.2686,7.2789,7.3276,7.2474,7.1991,7.1808,7.1384,7.0678,6.985,6.985,6.9451,6.8807,6.8316,6.7825,6.7277,6.6257,6.586,6.5878,6.6177,6.6355,6.6377,0.0,0.0,0.0,0.0,0.0,0.0,0.0,3.3769,3.4292,3.6567,4.2521,4.7608,5.0338,5.5957,5.9877,6.0775,5.7483,5.4192,5.1498,4.6471,4.4726,4.7228,5.1684,5.6256,6.0835,6.2002,6.3977,6.6819,6.6729,6.7358,6.8615,6.7986,6.8375,6.9604,6.8375,6.8196,6.8796,6.8106,6.6999,6.5263,6.0803,5.709,5.3767,4.9314,4.7668,4.7331,4.3928,4.3599,4.4317,4.1564,0.0,0.0,0.0,0.0,0.0,0.0,0.0,0.0,0.0,0.0,0.0,0.0,0.0,0.0,0.0,0.0,0.0,0.0,0.0,0.0,0.0,0.0,0.0,0.0,5.4683,5.9418,6.1905,6.5262,6.8374,7.0856,7.2265,7.2894,7.2595,7.2235,7.2026,7.1996,7.2445,7.2781,7.2947,7.2947,7.3193,7.3747,7.3345,7.3446,7.4048,7.3499,7.3419,7.3784,7.3067,7.2734,7.2703,7.2214,7.1782,7.1321,7.1044,7.0675,7.0274,6.9597,6.9074,6.8584,0.0,0.0,0.0,0.0,6.7147,6.726,0.0,0.0,0.0,0.0,0.0,0.0,0.0,3.3455,3.4412,3.6985,4.3509,4.8686,5.0548,5.5957,5.9219,5.871,5.5658,5.1947,4.7698,4.6591,4.7608,5.1033,5.5991,5.9997,6.281,6.5084,6.6849,6.8107,6.8704,6.9572,7.0679,7.0141,7.05,7.1607,6.9871,6.9512,7.0203,6.9572,6.8974,6.8377,6.7687,6.4994,6.0745,5.5269,5.4162,5.488,4.9883,4.7549,4.6501,4.4247,0.0,0.0,0.0,0.0,0.0,0.0,0.0,0.0,0.0,0.0,0.0,0.0,0.0,0.0,0.0,0.0,0.0,0.0,0.0,0.0,0.0,0.0,0.0,0.0,6.0293,6.5053,7.047,7.14,7.1939,7.3103,7.4843,7.5681,7.5083,7.5031,7.5006,7.4937,7.4432,7.4271,7.4577,7.4577,0.0,0.0,0.0,7.4595,7.5261,7.422,7.371,7.3771,7.3258,7.3045,7.3107,7.2429,7.2152,7.2183,7.1444,7.1105,7.0982,7.0274,6.9905,6.9659,6.8489,6.7629,6.7227,6.7783,6.7968,6.7875,0.0,0.0,0.0,0.0,0.0,0.0,0.0,3.3155,3.4262,3.6404,4.2043,4.6441,4.7908,5.2426,5.5508,5.5927,5.2881,5.0159,4.8207,4.9823,5.2815,5.7214,6.0416,6.3857,6.7567,6.7627,6.8017,6.8794,6.8944,6.9123,6.9363,6.9243,6.9602,7.032,6.9961,7.0472,7.1517,7.1368,7.1248,7.1101,7.041,6.7148,6.245,6.0236,5.8593,5.7128,5.3987,5.4401,5.5807,5.1678,5.0391,4.9935,4.6471,4.2731,0.0,0.0,0.0,0.0,0.0,0.0,0.0,0.0,0.0,0.0,0.0,0.0,0.0,0.0,0.0,0.0,0.0,0.0,0.0,5.9508,6.5502,7.0521,7.2957,7.4478,7.5326,7.5322,7.5888,7.6138,7.5741,7.5681,7.5587,7.5312,7.5462,7.5604,7.5671,7.5705,7.5981,7.6595,7.6224,7.636,7.7032,7.5495,7.498,7.5503,7.3814,0.0,7.3783,7.3106,7.3076,7.3568,7.2891,7.2275,7.1752,7.1013,7.0059,6.9043,6.8797,6.8612,6.852,6.8643,6.8366,6.7814,0.0,0.0,0.0,0.0,0.0,0.0,0.0,3.3066,3.4203,3.6254,4.1074,4.4706,4.5672,4.9075,5.099,5.0301,4.7818,4.701,4.8678,5.2211,5.6406,6.1343,6.5054,6.8076,7.038,7.0111,7.026,7.0949,7.062,7.0799,7.1427,7.1128,7.1128,7.1457,7.1457,7.1787,7.2415,7.2744,7.2894,7.2864,7.2535,7.0231,6.6819,6.5173,6.3528,6.1734,5.9458,5.9069,5.9039,5.5418,5.3767,5.269,4.968,4.6271,4.291,0.0,0.0,0.0,0.0,0.0,0.0,0.0,0.0,0.0,0.0,0.0,0.0,0.0,0.0,4.9464,5.1768,0.0,6.1597,6.5383,6.9379,7.2759,7.4846,7.585,7.6271,7.5921,7.6769,7.7213,7.6709,7.6926,7.6895,7.6259,7.6199,7.6217,7.6252,7.6255,7.6626,7.7466,7.699,7.7243,7.8286,7.6763,7.6184,7.6492,7.4799,7.4184,7.4461,7.3783,7.366,7.3968,7.363,7.3106,7.2429,7.1352,7.012,6.8919,6.8919,6.8919,6.8919,6.8919,6.8674,6.8366,0.0,0.0,0.0,0.0,0.0,0.0,0.0,3.3006,3.4128,3.5895,3.9888,4.2821,4.328,4.5514,4.6232,4.4496,4.3738,4.5325,4.9935,5.4695,5.9755,6.5114,6.9153,7.1607,7.2265,7.2146,7.2355,7.2924,7.2475,7.2774,7.3702,7.3283,7.3043,7.2924,7.2924,7.2984,7.3133,7.3672,7.3971,7.4091,7.4091,7.2954,7.1098,6.9424,6.7747,6.6131,6.4156,6.1912,5.9578,5.7479,5.5354,5.3348,5.1834,4.965,4.6958,4.3559,4.1713,0.0,0.0,0.0,0.0,0.0,0.0,0.0,0.0,4.5095,4.7249,4.9523,5.2486,5.5837,5.9578,6.2944,6.6462,7.0541,7.2397,7.3985,7.6029,7.649,7.6538,7.6309,7.7554,7.8186,7.7538,7.8009,7.791,7.6966,7.6672,7.6595,7.6801,7.6804,7.721,7.8183,7.7537,7.7754,7.8893,7.7631,7.6921,7.6767,7.5723,7.5138,7.4984,7.443,7.4184,7.4184,7.3907,7.3322,7.2491,7.1229,6.9997,6.8919,6.8919,6.8919,6.8919,6.8919,6.8797,6.8705,0.0,0.0,0.0,0.0,0.0,0.0,0.0,0.0,0.0,3.4623,3.7704,3.987,3.993,4.1265,4.1852,4.1025,4.4496,4.8716,5.3354,5.853,6.4036,6.9871,7.1787,7.2984,7.3642,7.3103,7.2834,7.2924,7.3432,7.3462,7.3043,7.3552,7.3462,7.2924,7.2924,7.3223,7.3791,7.3851,7.424,7.4813,7.4813,7.3941,7.2595,7.1757,6.9933,6.7508,6.5533,6.2362,5.9159,5.886,5.7064,5.5029,5.5414,5.4097,5.1672,4.7788,4.4517,4.1852,4.0367,4.0127,4.0846,4.307,4.3868,4.5903,0.0,5.4665,5.5773,5.8919,6.1704,6.3708,6.4246,6.7785,7.0983,7.2126,7.4405,7.6044,7.6045,7.6794,7.744,7.7642,7.816,7.8323,7.7892,7.7982,7.7639,7.6607,7.6809,7.7189,7.7778,7.7809,7.818,7.8955,7.8244,7.7967,7.8121,7.7383,7.6675,7.6123,7.5969,7.56,7.5015,7.4922,7.4892,7.483,7.363,7.2337,7.1075,7.0305,6.9566,6.8919,6.8919,6.8919,6.8919,6.8919,6.852,6.7998,0.0,0.0,0.0,0.0,0.0,0.0,0.0,0.0,0.0,0.0,3.6374,3.7554,3.7178,3.7644,3.7853,3.7584,4.1792,4.6711,5.2103,5.8501,6.4904,7.1218,7.3133,7.454,7.5587,7.4599,7.424,7.4659,7.454,7.433,7.4061,7.433,7.4121,7.3492,7.3881,7.4001,7.3911,7.43,7.4629,7.4903,7.4903,7.4091,7.2774,7.1338,6.8196,6.4336,6.272,6.0116,0.0,5.5598,5.4371,5.3563,5.4246,5.257,4.9875,4.7429,4.4915,4.288,4.2731,4.3539,4.4855,4.6741,4.9793,5.3299,5.7034,5.9368,6.1399,6.3759,6.6162,6.823,6.9417,7.1781,7.3875,7.4935,7.5883,7.6852,7.7908,7.7399,7.7194,7.787,7.8127,7.8366,7.8788,7.8509,7.8222,7.8046,7.7547,7.7706,7.8583,7.7844,7.7906,7.9047,7.8031,7.7783,7.8647,7.7937,7.7444,7.7137,7.68,7.6246,7.5569,7.5169,7.4799,7.4338,7.3014,7.1813,7.0859,7.0182,6.9505,6.8919,6.8919,6.8919,6.8919,6.8919,6.8705,6.8489,0.0,0.0,0.0,0.0,0.0,0.0,0.0,0.0,0.0,0.0,3.5386,3.6028,3.5549,3.5519,3.5519,3.5519,3.9547,4.4547,5.0301,5.7483,6.4395,7.0799,7.3343,7.5228,7.6509,7.5647,7.5407,7.5916,7.5587,7.5228,7.4903,7.5113,7.4809,7.418,7.4659,7.4634,7.421,7.4659,7.4903,7.4903,7.4723,7.3612,7.1846,6.9303,6.5054,6.0353,5.9368,5.6521,5.2929,5.1169,5.0212,4.9972,5.1169,5.0085,4.8057,4.692,4.5164,4.3698,4.4177,4.6151,4.8596,5.0684,5.5359,5.9847,6.1224,6.4034,6.6792,6.8479,7.0312,7.2061,7.3633,7.4742,7.5726,7.6699,7.691,7.7419,7.8856,7.7511,7.6627,7.735,7.6798,7.6853,7.8121,7.8335,7.8498,7.8767,7.8071,7.813,7.929,7.8247,7.8062,7.9078,7.7939,7.7693,7.8524,7.8152,7.7906,7.7721,7.7413,7.6921,7.6277,7.5384,7.4738,7.4184,7.286,7.1752,7.0859,7.0367,6.9659,6.8919,6.8919,6.8919,6.8919,6.8919,6.8919,6.8919,0.0,0.0,0.0,0.0,0.0,0.0,0.0,0.0,0.0,0.0,0.0,0.0,0.0,3.5519,3.5519,3.5519,3.9158,4.3678,4.9007,5.6132,6.281,6.8824,7.2206,7.4569,7.5916,7.5886,7.5886,7.5916,7.6485,7.6125,7.4933,7.5557,7.5497,7.4873,7.4903,7.4903,7.4873,7.4903,7.4903,7.4843,7.418,7.2385,6.9632,6.5682,6.0924,5.6372,5.6342,5.1702,4.5723,4.6271,4.5244,4.4107,4.6681,4.7848,4.8147,4.7489,4.5873,4.4267,4.4296,4.7138,5.1056,5.5025,5.9485,6.3796,6.7,7.0068,7.2693,7.4312,7.5267,7.5914,7.6236,7.6385,7.6457,7.6488,7.7304,7.7998,7.806,7.686,7.6029,7.6061,7.3753,7.2952,7.4921,7.689,7.8029,7.8029,7.7998,7.8583,8.0001,7.9417,7.9047,7.9109,7.8337,7.766,7.7044,7.769,7.766,7.7014,7.766,7.7598,7.6921,7.56,7.4984,7.4892,7.3537,7.2183,7.089,7.089,7.009,6.8919,6.8919,6.8919,6.8919,6.8919,6.8919,6.8919,0.0,0.0,0.0,0.0,0.0,0.0,0.0,0.0,0.0,0.0,0.0,0.0,0.0,0.0,0.0,0.0,3.7883,4.1265,4.5693,5.2396,5.8471,6.3558,6.8615,7.1906,7.3223,7.4121,7.4779,7.5228,7.5437,7.5318,7.4903,7.4659,7.4689,7.4903,7.442,7.448,7.4873,7.442,7.448,7.4663,7.1787,7.0111,6.8704,6.2929,5.7292,5.206,0.0,4.5936,4.2677,4.1452,4.071,4.0563,4.2201,4.2252,4.1863,4.2521,4.4087,4.6091,4.8274,5.2402,5.7038,6.1044,6.5382,6.9321,7.1728,7.372,7.5123,7.525,7.4359,7.3509,7.3486,7.291,7.2974,7.4608,7.6273,7.7813,7.9201,7.9386,7.8185,7.5046,7.5046,7.4338,7.1844,7.3476,7.56,7.7813,7.7567,7.8154,8.0001,7.9478,7.9293,7.9755,7.9109,7.8401,7.766,7.837,7.8154,7.6983,7.7229,7.6737,7.5661,7.5199,7.4522,7.3599,7.2737,7.209,7.1536,7.0613,6.9967,6.9505,6.9043,6.8919,6.8919,6.8919,6.8919,6.8919,0.0,0.0,0.0,0.0,0.0,0.0,0.0,0.0,0.0,0.0,0.0,0.0,0.0,0.0,0.0,0.0,0.0,3.92,4.2701,4.7997,5.3084,5.7723,6.2061,6.5173,6.6939,6.7358,6.8106,6.9243,6.9722,7.0201,7.0712,7.0949,7.1308,7.1697,7.1757,7.2029,7.2388,7.1697,7.1248,7.0679,6.6969,6.4605,6.272,5.6795,5.1533,0.0,4.3129,4.0912,3.9441,3.7936,3.7532,3.7811,3.8755,3.9254,3.9709,4.1055,4.4566,4.8895,5.281,5.7547,6.2408,6.6463,7.0016,7.2978,7.4556,7.5221,7.5264,7.4391,7.2347,7.0492,6.9729,6.8563,6.8594,7.1383,7.3322,7.563,7.8893,7.8893,7.7662,7.5353,7.5169,7.4307,7.1937,7.2491,7.4184,7.7044,7.7567,7.8462,8.0032,7.9909,7.9909,8.0094,7.9694,7.9109,7.8398,7.8862,7.8524,7.7352,7.686,7.6215,7.5353,7.4861,7.4153,7.3322,7.2676,7.2244,7.1906,7.0736,7.012,6.9813,6.9135,6.8919,6.8919,6.8919,6.8919,6.8919,0.0,0.0,0.0,0.0,0.0,0.0,0.0,0.0,0.0,0.0,0.0,0.0,0.0,0.0,0.0,0.0,0.0,0.0,4.0038,4.3269,4.707,5.1498,5.3174,5.5179,5.7636,5.6645,5.7,5.886,6.0176,6.1463,6.2778,6.4634,6.5503,6.5652,6.685,6.7449,6.742,6.67,6.5323,6.3347,5.9964,5.6402,5.2564,4.7938,4.4238,4.1227,3.8445,3.6929,3.6164,3.583,3.5838,3.6049,3.6756,3.9133,4.1972,4.3359,4.7519,5.2762,5.7713,6.2445,6.6943,7.1126,7.3328,7.4734,7.5614,7.477,7.3373,7.1884,6.9396,6.693,6.5148,6.3657,6.3814,6.7229,6.9197,7.2121,7.7444,7.6123,7.5199,7.6921,7.4368,7.3168,7.4892,7.3937,7.3999,7.5969,7.7908,7.9324,8.0063,8.074,8.0836,8.0186,8.0155,7.9847,7.917,7.9078,7.8709,7.8029,7.6708,7.6031,7.5907,7.4645,7.3999,7.3907,7.3291,7.2645,7.1998,7.1229,7.0521,6.9874,6.9166,6.8919,6.8919,6.8919,6.8919,6.8919,0.0,0.0,0.0,0.0,0.0,0.0,0.0,0.0,0.0,0.0,0.0,0.0,0.0,0.0,0.0,0.0,0.0,0.0,3.7422,4.0565,4.314,4.4816,4.8955,5.1535,5.2223,5.3862,5.497,5.5448,5.6286,5.7202,5.8113,5.817,5.8764,5.9804,5.965,5.9861,6.0223,5.9077,5.8569,5.8177,5.3893,5.1867,5.0872,4.6103,4.304,4.1025,3.891,3.7405,3.6428,3.6307,3.7593,3.9367,4.0227,4.2945,4.6394,4.9381,5.4025,5.9021,6.2809,6.7216,7.1292,7.3642,7.4919,7.5465,7.4975,7.3393,7.1136,6.8075,6.422,6.0735,5.8556,5.9855,6.2425,6.5873,7.1352,7.6554,8.0494,8.1756,8.154,7.957,7.8986,7.8003,7.5938,7.5907,7.64,7.7413,7.7506,7.8308,8.0032,8.074,8.1021,8.0867,8.0867,8.0525,7.9847,7.8798,7.846,7.8801,7.7416,7.6246,7.523,7.4892,7.4184,7.3229,7.3045,7.2922,7.2676,7.1413,7.0798,7.0521,6.9351,6.8919,6.8919,6.8919,6.8919,6.8919,0.0,0.0,0.0,0.0,0.0,0.0,0.0,0.0,0.0,0.0,0.0,0.0,0.0,0.0,0.0,0.0,0.0,0.0,0.0,3.7811,3.9248,4.0176,4.2491,4.4027,4.4566,4.5493,4.6561,4.7706,4.8386,4.9584,5.1215,5.1472,5.2078,5.2944,5.3155,5.3427,5.373,5.2671,5.1923,0.0,0.0,4.5576,4.4759,4.1403,3.9627,3.8757,3.7575,3.7456,3.8066,3.8983,4.0877,4.3115,4.493,4.8129,5.1935,5.5656,6.0048,6.4378,6.788,7.173,7.5048,7.6446,7.6504,7.5556,7.3037,7.0526,6.7162,6.1669,5.785,5.4618,5.1783,5.4299,5.8208,6.2517,6.8982,7.5261,8.0494,8.2187,8.2556,8.154,8.1514,8.0805,7.8862,7.8739,7.9201,8.0186,7.8801,7.8709,8.0432,8.0898,8.1236,8.1544,8.1267,8.0929,8.0525,7.917,7.8709,7.9078,7.7385,7.6031,7.4984,7.4707,7.3968,7.3014,7.3014,7.3014,7.2891,7.1813,7.1198,7.0798,6.9751,6.9135,6.8977,6.9439,6.9641,6.9727,0.0,0.0,0.0,0.0,0.0,0.0,0.0,0.0,0.0,0.0,0.0,0.0,0.0,0.0,0.0,0.0,0.0,0.0,0.0,0.0,3.5982,3.7088,3.6071,3.6028,3.7118,3.6074,3.666,3.8918,3.9523,4.1134,4.3634,4.481,4.5485,4.5748,4.691,4.7425,4.7395,4.6707,4.5425,4.3626,4.1268,3.9252,3.7552,0.0,0.0,3.5989,3.5683,3.7171,3.9737,4.2561,4.4971,4.7329,5.0379,5.4097,5.8138,6.2115,6.568,6.9088,7.2461,7.5462,7.7873,7.8789,7.7609,7.5087,7.0615,6.6874,6.2173,5.4598,5.1282,4.882,4.5741,4.8758,5.356,5.9255,6.5346,7.1967,7.9694,8.0771,8.151,8.3541,8.308,8.2653,8.2653,8.1883,8.1883,8.3141,8.0832,7.9909,8.1175,8.1236,8.1483,8.1976,8.1421,8.1113,8.1113,7.9847,7.9201,7.9078,7.7169,7.5877,7.5107,7.4522,7.3907,7.326,7.3168,7.3106,7.3045,7.2306,7.1598,7.0982,7.0182,6.9654,6.9362,7.0268,7.0711,7.0989,0.0,0.0,0.0,0.0,0.0,0.0,0.0,0.0,0.0,0.0,0.0,0.0,0.0,0.0,0.0,0.0,0.0,0.0,0.0,0.0,0.0,3.5818,3.5639,3.5593,3.5818,3.5725,3.5896,3.6332,3.66,3.7339,3.8493,3.872,3.9219,3.9971,4.0169,4.0291,4.023,3.9556,3.9082,3.8683,3.7687,3.7042,3.6705,3.6256,0.0,0.0,3.5973,3.6481,3.8176,4.4569,4.8807,5.2108,5.5922,6.0068,6.4244,6.8212,7.1031,7.325,7.4982,7.6895,7.8386,7.8573,7.6704,7.3678,6.9262,6.3479,5.7266,5.0799,4.7004,4.4468,4.334,4.7835,5.4022,6.1132,6.7442,7.4462,8.3049,8.4249,8.5019,8.7081,8.6188,8.5419,8.5419,8.3788,8.308,8.3849,8.1941,8.1113,8.1883,8.1945,8.1729,8.1298,8.1175,8.1113,8.1113,8.0309,7.9663,7.9078,7.809,7.6983,7.5846,7.5723,7.5292,7.4615,7.4061,7.3814,7.3722,7.2522,7.1936,7.169,7.0398,7.0402,7.1077,7.0736,7.1178,7.202,0.0,0.0,0.0,0.0,0.0,0.0,0.0,0.0,0.0,0.0,4.0857,3.9421,0.0,0.0,0.0,0.0,0.0,0.0,0.0,0.0,0.0,0.0,0.0,0.0,3.5519,3.557,3.5769,3.6116,0.0,3.6275,3.7089,3.682,3.6964,3.7461,3.7461,3.7461,3.743,3.7123,3.6921,3.6812,3.6599,3.643,3.6336,0.0,0.0,0.0,3.5863,3.6872,3.8965,4.3553,4.8881,5.4628,6.0604,6.5023,6.8647,7.1608,7.4202,7.6318,7.7478,7.9268,8.0736,8.0221,7.6832,7.2028,6.5663,5.9224,5.2575,4.5353,4.2879,4.1678,4.0645,4.5741,5.1937,5.766,6.2856,6.9628,7.9509,8.0894,8.2433,8.6619,8.6866,8.6527,8.6158,8.4926,8.428,8.4588,8.3726,8.3172,8.3141,8.2803,8.216,8.1144,8.1113,8.1113,8.1113,8.0432,7.9755,7.9078,7.8337,7.729,7.6,7.6,7.563,7.4984,7.4645,7.4522,7.4461,7.3814,7.3384,7.3015,7.2603,7.2569,7.2762,7.2874,7.3291,7.3809,0.0,0.0,0.0,0.0,0.0,0.0,0.0,3.92,4.0565,4.4825,4.5005,4.3638,4.0767,3.8123,0.0,0.0,0.0,0.0,0.0,0.0,0.0,0.0,0.0,0.0,3.5519,0.0,0.0,3.64,3.5991,0.0,0.0,0.0,0.0,0.0,3.6523,3.6523,3.6507,3.663,3.6613,0.0,0.0,3.6613,3.6457,0.0,0.0,0.0,0.0,3.7011,3.9244,4.2214,4.7374,5.3838,6.1339,6.6819,7.0799,7.2484,7.5361,7.8161,7.8992,8.1096,8.2789,8.1466,7.6839,7.049,6.261,5.5622,4.8727,4.1261,3.9907,3.9845,3.9076,4.3648,4.9066,5.3722,5.7931,6.4334,7.5044,7.7354,8.0032,8.5881,8.705,8.7173,8.6619,8.5819,8.5265,8.5111,8.5111,8.4803,8.4126,8.3326,8.2407,8.136,8.1175,8.1113,8.1113,8.0555,7.9971,7.9324,7.8739,7.7721,7.6431,7.6431,7.6061,7.5415,7.5292,7.5199,7.5231,7.5364,7.5089,7.4656,7.5059,7.5037,7.4826,7.5233,7.551,7.5781,0.0,0.0,0.0,0.0,0.0,0.0,0.0,4.0367,4.299,4.8169,4.7249,4.5523,4.3997,4.1534,0.0,0.0,0.0,0.0,0.0,0.0,0.0,0.0,0.0,0.0,0.0,0.0,0.0,3.6048,3.6131,0.0,0.0,0.0,0.0,0.0,0.0,3.6523,3.6553,3.7153,0.0,0.0,0.0,0.0,0.0,0.0,0.0,0.0,0.0,3.5685,3.6733,4.2291,4.5046,4.7322,5.4067,6.2181,6.9276,6.9774,7.3749,7.804,7.8383,8.073,8.2595,8.0568,7.5538,6.9289,6.2364,5.4145,4.6542,4.1427,3.9476,3.9014,4.0122,4.2355,4.6192,5.2737,5.7223,6.3472,7.3753,7.837,8.2561,8.742,8.8066,8.8066,8.8005,8.6804,8.5758,8.5142,8.5111,8.4803,8.4126,8.2864,8.216,8.2037,8.1421,8.1113,8.1113,8.1052,8.0648,8.0032,7.994,7.9167,7.7813,7.7813,7.7444,7.6767,7.6184,7.5907,7.5974,7.6525,7.6672,7.6635,7.6535,7.7115,7.7846,7.6629,7.6851,7.7718,0.0,0.0,0.0,0.0,0.0,0.0,0.0,4.0127,4.2671,4.9553,4.9075,4.79,4.7391,4.4945,4.1235,0.0,0.0,0.0,0.0,0.0,0.0,0.0,0.0,0.0,0.0,0.0,3.5635,3.57,3.5846,0.0,0.0,0.0,0.0,0.0,0.0,3.6523,3.6523,3.6784,0.0,0.0,0.0,0.0,0.0,0.0,0.0,0.0,0.0,0.0,3.6404,3.8425,4.1089,4.3818,4.5368,5.1839,5.9934,6.5262,7.0561,7.5409,7.871,8.2048,8.4006,8.1477,7.521,6.7812,6.0635,5.2166,4.4664,4.0707,3.9138,3.8799,3.9722,4.1278,4.3944,4.8666,5.0112,5.4229,6.4395,6.7596,7.2306,8.1602,8.3418,8.5203,8.8466,8.7574,8.6466,8.5758,8.5327,8.4988,8.4711,8.3418,8.231,8.1544,8.1236,8.1113,8.1113,8.1113,8.0775,8.0094,8.0094,7.9601,7.8647,7.8183,7.809,7.8249,7.7924,7.7965,7.8405,7.8989,7.9246,7.9269,7.9549,7.9655,7.9558,7.8901,7.864,7.8585,0.0,0.0,0.0,0.0,0.0,0.0,3.9439,4.0217,4.2701,4.9464,4.9396,4.8768,4.8977,4.5924,4.1983,3.7345,0.0,0.0,0.0,0.0,0.0,0.0,0.0,0.0,0.0,0.0,3.5506,3.557,3.5834,3.5995,0.0,0.0,3.6473,3.6414,0.0,0.0,0.0,0.0,0.0,0.0,0.0,0.0,0.0,0.0,0.0,0.0,0.0,0.0,0.0,0.0,0.0,4.0512,3.9583,4.3638,5.0451,5.9221,6.6343,7.2377,7.7076,8.1302,8.38,8.1221,7.4542,6.6732,5.9434,5.1119,4.3944,4.0491,3.9261,3.8984,3.9661,4.0768,4.2509,4.5268,4.5946,4.9241,5.8264,6.1101,6.6119,7.6369,7.8585,8.1417,8.6866,8.7451,8.7112,8.6188,8.5665,8.5142,8.4526,8.3603,8.2684,8.1729,8.1329,8.1113,8.1113,8.1113,8.0775,8.0094,8.0094,7.9632,7.877,7.8213,7.8511,7.9346,7.9036,7.9541,8.0549,8.112,8.1359,8.1411,8.195,8.1855,8.1363,8.0982,8.0513,7.9972,0.0,0.0,0.0,0.0,0.0,0.0,0.0,4.1085,4.3818,4.781,4.7728,4.7578,4.8259,4.3599,4.0427,4.0367,0.0,0.0,0.0,0.0,0.0,0.0,0.0,0.0,0.0,0.0,3.557,3.5704,3.6364,3.6462,3.6035,3.6818,3.6838,3.6196,0.0,0.0,0.0,0.0,0.0,0.0,0.0,0.0,0.0,0.0,0.0,0.0,0.0,0.0,0.0,0.0,0.0,0.0,0.0,3.9379,4.2342,5.1618,6.114,6.9359,7.2676,7.754,8.1139,7.9055,7.3162,6.6147,5.9341,5.1458,4.4603,4.1199,3.9968,3.9691,4.0368,4.1107,4.2066,4.339,4.7024,5.1797,5.7956,6.2856,6.7904,7.3383,7.4645,7.72,8.2618,8.6188,8.7604,8.6219,8.6096,8.5234,8.3203,8.311,8.308,8.308,8.1791,8.1113,8.1113,8.1113,8.0775,8.0094,8.0094,7.9386,7.7998,7.7998,7.8728,7.9953,7.9195,8.0069,8.202,8.2503,8.2689,8.2736,8.3248,8.3464,8.3362,8.2644,8.2374,8.2272,0.0,0.0,0.0,0.0,0.0,0.0,0.0,3.7554,3.9278,4.3678,4.3269,4.3509,4.5963,4.2731,4.0397,4.0397,0.0,0.0,0.0,0.0,0.0,0.0,0.0,0.0,0.0,0.0,0.0,0.0,0.0,3.7863,3.7822,3.7631,3.726,3.6736,3.6281,3.6163,0.0,0.0,0.0,0.0,0.0,0.0,3.5768,0.0,0.0,0.0,0.0,0.0,0.0,0.0,0.0,0.0,0.0,0.0,0.0,4.4047,5.2545,6.136,6.5645,6.961,7.1931,6.9517,6.5277,6.0142,5.4291,4.8779,4.4079,4.1107,3.9968,3.9876,4.1063,4.1432,4.2786,4.6419,4.8112,5.0605,5.5322,6.0116,6.5657,7.2491,8.0463,8.5696,8.6496,8.7143,8.7112,8.6188,8.5696,8.4957,8.3818,8.3326,8.2684,8.176,8.1329,8.1113,8.1113,8.0648,8.0309,8.0094,7.9632,7.9643,8.0035,8.0099,8.0776,8.1999,8.223,8.2655,8.3227,8.3248,8.3262,8.3255,8.3426,8.3186,8.2712,8.2509,8.2069,8.1528,0.0,0.0,0.0,0.0,0.0,0.0,0.0,3.6178,3.7345,4.0475,3.9948,4.0636,4.4197,4.0965,3.905,4.0277,0.0,0.0,0.0,0.0,0.0,0.0,0.0,0.0,0.0,0.0,0.0,0.0,0.0,0.0,0.0,3.9733,3.8978,3.7254,3.6816,3.6461,0.0,0.0,0.0,0.0,0.0,0.0,3.5621,0.0,0.0,0.0,0.0,0.0,0.0,0.0,0.0,0.0,0.0,0.0,0.0,0.0,4.5751,5.2758,5.8995,6.318,6.5471,6.4073,6.0805,5.6634,5.1783,4.7547,4.3821,4.1076,4.0184,4.0245,4.1401,4.1801,4.3033,4.6203,4.7558,4.9568,5.3414,5.8245,6.4303,7.209,8.1356,8.6712,8.5604,8.6989,8.7451,8.6219,8.548,8.4711,8.3757,8.308,8.2222,8.1144,8.1113,8.099,8.0709,8.0309,7.9971,7.9724,7.949,7.9841,8.0585,8.087,8.1833,8.3269,8.3396,8.3867,0.0,8.3779,8.349,8.3456,8.3186,8.2813,8.2408,8.2408,8.2103,8.1596,0.0,0.0,0.0,0.0,0.0,0.0,0.0,0.0,0.0,0.0,3.7644,3.8691,4.2432,3.8452,3.6746,0.0,0.0,0.0,0.0,0.0,0.0,0.0,0.0,0.0,0.0,0.0,0.0,3.8469,4.0535,4.1254,4.0726,0.0,0.0,3.7884,3.7794,3.7163,0.0,0.0,0.0,0.0,0.0,0.0,0.0,0.0,0.0,0.0,0.0,0.0,0.0,0.0,0.0,0.0,0.0,0.0,0.0,0.0,0.0,0.0,0.0,5.7548,6.0644,6.1088,5.8374,5.4625,5.0962,4.7177,0.0,4.1045,4.0505,4.0768,4.1648,4.2232,4.294,4.4006,4.6265,4.9097,5.2575,5.8085,6.4672,7.2645,7.8865,8.216,8.139,8.5942,8.8159,8.6188,8.545,8.4526,8.3172,8.2495,8.1822,8.1052,8.1052,8.0709,8.0124,8.0134,7.9829,7.9154,7.9694,7.9985,8.0142,8.0734,8.2109,8.3915,8.3223,8.3971,8.5614,8.4065,8.3456,8.3422,8.2712,8.2408,8.2408,8.2475,8.2441,8.2306,0.0,0.0,0.0,0.0,0.0,0.0,0.0,0.0,0.0,0.0,0.0,3.6327,3.7255,3.6237,0.0,0.0,0.0,0.0,0.0,0.0,0.0,0.0,0.0,0.0,0.0,0.0,0.0,3.9152,4.1683,4.309,4.3369,4.3888,0.0,0.0,0.0,0.0,0.0,0.0,0.0,0.0,0.0,0.0,0.0,0.0,0.0,0.0,3.5538,3.5851,0.0,0.0,0.0,0.0,0.0,0.0,0.0,0.0,3.9014,4.0207,4.3798,0.0,4.9657,4.86,4.7854,4.6851,0.0,4.3771,4.2571,4.0861,4.0505,4.1199,4.3482,4.3187,4.4172,4.9004,5.0328,5.2113,5.6046,6.4857,7.2952,7.8557,8.3238,8.5296,8.3541,8.548,8.6435,8.5419,8.5203,8.4526,8.3172,8.2926,8.2064,8.0402,8.034,8.0248,8.0094,8.0581,8.0417,7.9727,8.032,8.1117,8.209,8.2836,8.3635,8.4473,8.4877,8.5007,8.4776,8.3287,8.2983,8.3422,8.2712,8.2408,8.2475,8.305,8.2881,8.2374,0.0,0.0,0.0,0.0,0.0,0.0,0.0,0.0,0.0,0.0,0.0,0.0,0.0,0.0,0.0,0.0,0.0,0.0,0.0,0.0,0.0,0.0,0.0,0.0,0.0,0.0,0.0,0.0,0.0,4.4287,0.0,0.0,0.0,0.0,0.0,0.0,0.0,0.0,0.0,0.0,3.5818,0.0,0.0,0.0,0.0,0.0,3.5848,3.5998,0.0,3.7806,3.7896,3.7614,0.0,0.0,0.0,0.0,3.7943,3.8242,3.9637,4.2719,4.5454,4.5009,4.4911,4.4692,4.3722,4.2786,4.1814,4.0737,4.0768,4.1537,4.334,4.3587,4.491,4.9127,5.0882,5.4114,6.1009,6.8395,7.5201,8.0898,8.3757,8.5234,8.505,8.5696,8.5819,8.5142,8.4526,8.3849,8.3141,8.2218,8.1512,8.1009,8.07,8.0357,8.0012,8.0358,8.0586,8.0798,8.1393,8.2194,8.3219,8.391,8.4182,8.4133,8.4539,8.4302,8.3531,8.2746,8.2644,8.2949,8.2577,8.2408,8.2475,8.2847,8.2746,8.2408,0.0,0.0,0.0,0.0,0.0,0.0,0.0,0.0,0.0,0.0,0.0,0.0,0.0,0.0,0.0,0.0,0.0,0.0,0.0,0.0,0.0,0.0,0.0,0.0,0.0,0.0,0.0,0.0,0.0,0.0,0.0,0.0,4.5514,0.0,0.0,0.0,0.0,0.0,0.0,0.0,3.6267,0.0,0.0,0.0,0.0,0.0,0.0,0.0,0.0,3.8344,3.8464,3.7956,3.9469,0.0,0.0,0.0,0.0,0.0,3.8924,4.2081,4.5062,4.5091,4.5065,4.4883,4.4276,4.2879,4.1586,4.0953,4.1401,4.2171,4.3063,4.4295,4.5957,4.8327,5.1436,5.6884,6.6488,7.0675,7.5108,8.136,8.2864,8.4034,8.5665,8.5911,8.5727,8.5142,8.3941,8.3247,8.3243,8.1512,8.0978,8.1949,8.1411,8.0872,8.0328,8.0456,8.095,8.1975,8.2641,8.3336,8.3934,8.4392,8.42,8.349,8.349,8.3084,8.2408,8.2272,8.2374,8.2577,8.2441,8.2475,8.2577,8.2577,8.2509,8.2408,0.0,0.0,0.0,0.0,0.0,0.0,0.0,0.0,0.0,0.0,0.0,0.0,0.0,0.0,0.0,0.0,0.0,0.0,0.0,0.0,0.0,0.0,0.0,0.0,0.0,0.0,0.0,0.0,0.0,0.0,4.8057,5.0953,4.8648,4.1991,0.0,0.0,0.0,0.0,0.0,0.0,3.6464,0.0,0.0,0.0,0.0,0.0,0.0,0.0,0.0,3.7567,3.8315,3.8943,3.8105,0.0,0.0,0.0,0.0,0.0,4.204,4.4779,4.5789,4.1893,4.2401,4.3537,4.2325,4.2263,4.2417,4.2307,4.2817,4.3852,4.5649,4.7096,4.9199,5.3014,5.8306,6.4306,7.1105,7.4461,7.7693,8.1637,8.3695,8.468,8.4434,8.4926,8.5203,8.5111,8.4372,8.3918,8.3873,8.3029,8.2361,8.1925,8.1825,8.1948,8.2252,8.2877,8.2996,8.2567,8.3768,8.4346,8.448,8.4567,8.42,8.349,8.349,8.3084,8.2374,8.1731,8.2205,8.3253,8.2644,8.278,8.3321,8.3321,8.2949,8.2408,0.0,0.0,0.0,0.0,0.0,0.0,0.0,0.0,0.0,0.0,0.0,0.0,0.0,0.0,0.0,0.0,0.0,0.0,0.0,0.0,0.0,0.0,0.0,0.0,0.0,0.0,0.0,0.0,0.0,5.0421,5.1439,4.9733,4.6403,4.1733,0.0,0.0,3.5519,0.0,0.0,0.0,0.0,0.0,0.0,0.0,0.0,0.0,0.0,0.0,0.0,0.0,3.8584,3.9242,3.8242,0.0,0.0,0.0,0.0,0.0,4.0826,4.3087,4.4461,4.2629,4.4549,4.6346,4.4252,4.371,4.3771,4.4141,4.5033,4.6142,4.7434,5.0297,5.4268,5.9845,6.498,6.9597,7.3506,7.5784,7.8278,8.1664,8.2895,8.3788,8.4557,8.4926,8.4957,8.4588,8.4248,8.385,8.3487,8.278,8.2505,8.2917,8.216,8.2203,8.3126,8.3065,8.3065,8.3153,8.4136,8.4377,8.4031,8.4031,8.3828,8.3456,8.2644,8.2103,8.1799,8.1866,8.2306,8.2949,8.3396,8.3802,8.4072,8.4072,8.387,8.3565,0.0,0.0,0.0,0.0,0.0,0.0,0.0,0.0,0.0,0.0,0.0,0.0,0.0,0.0,0.0,0.0,0.0,0.0,0.0,0.0,0.0,0.0,0.0,0.0,0.0,0.0,4.5175,4.8985,5.1409,5.3384,5.476,4.9105,4.4885,0.0,0.0,0.0,3.5938,3.5938,3.6327,0.0,0.0,0.0,0.0,0.0,0.0,0.0,0.0,0.0,0.0,0.0,0.0,0.0,0.0,0.0,0.0,3.917,3.8894,3.9199,4.0376,4.221,4.391,4.4486,4.668,4.844,4.7281,4.6531,4.6346,4.7496,4.8666,4.962,4.9968,5.4176,5.9593,6.5626,7.0151,7.3691,7.5877,7.7354,7.9355,8.2433,8.2772,8.3449,8.5173,8.505,8.4588,8.3911,8.381,8.3526,8.2998,8.2534,8.2717,8.3719,8.2616,8.2448,8.3253,8.2678,8.278,8.349,8.393,8.387,8.349,8.3321,8.3152,8.2915,8.1791,8.1317,8.1351,8.1731,8.2103,8.2509,8.3456,8.3937,8.4072,8.4072,8.4174,8.4343,0.0,0.0,0.0,0.0,0.0,0.0,0.0,0.0,0.0,0.0,0.0,0.0,0.0,0.0,0.0,0.0,0.0,0.0,0.0,0.0,0.0,0.0,0.0,0.0,0.0,4.5942,4.7646,5.0996,5.482,5.6735,5.6795,5.2073,4.7796,4.3967,4.1324,3.905,3.7255,3.7255,3.7644,3.826,0.0,0.0,0.0,0.0,0.0,0.0,0.0,0.0,0.0,0.0,0.0,0.0,0.0,0.0,4.0367,4.0277,4.0394,4.1138,4.3849,4.5311,4.611,4.637,4.6153,4.6839,5.0451,5.0728,5.0974,5.3506,5.4637,5.4945,5.4368,5.9224,6.4487,6.8089,7.2645,7.6677,7.9355,8.0894,8.2495,8.4649,8.4896,8.5203,8.5973,8.4896,8.388,8.3203,8.3125,8.3032,8.2888,8.3402,8.3614,8.3534,8.3392,8.3073,8.2483,8.2441,8.278,8.349,8.2881,8.2881,8.349,8.278,8.2103,8.1452,8.1351,8.1317,8.1249,8.0615,8.1156,8.234,8.1765,8.1968,8.2577,8.2577,8.2983,8.3592,0.0,0.0,0.0,0.0,0.0,0.0,0.0,0.0,0.0,0.0,0.0,0.0,0.0,0.0,0.0,0.0,0.0,0.0,0.0,0.0,0.0,0.0,0.0,4.3169,4.5633,4.8095,5.1355,5.5483,5.7423,5.7513,5.5807,5.078,0.0,0.0,4.0516,3.8721,3.8003,3.7584,3.8015,3.899,3.8571,0.0,0.0,0.0,0.0,0.0,0.0,0.0,0.0,0.0,3.8811,3.9469,3.8464,3.9768,4.1463,4.0636,4.0544,4.0939,4.201,4.3974,4.5896,4.6803,4.7907,4.9374,5.1775,5.3437,5.5246,5.7931,5.9716,6.0948,6.1537,6.5288,6.9074,7.166,7.6061,7.9817,8.1694,8.2402,8.3295,8.4926,8.4372,8.4126,8.4803,8.4003,8.3375,8.3057,8.3794,8.3984,8.3497,8.3975,8.4056,8.3524,8.2611,8.2002,8.1731,8.1257,8.1393,8.2103,8.2306,8.2543,8.278,8.2035,8.1799,8.1934,8.1021,8.0885,8.1283,8.0987,8.119,8.1765,8.2408,8.2847,8.3152,8.3599,8.3937,8.4174,0.0,0.0,0.0,0.0,0.0,0.0,0.0,0.0,0.0,0.0,0.0,0.0,0.0,0.0,0.0,0.0,0.0,0.0,0.0,0.0,0.0,0.0,0.0,4.278,4.4945,4.9052,5.306,5.6859,5.7932,5.7124,5.4486,0.0,0.0,0.0,4.1115,3.9906,4.0187,3.911,3.908,3.966,3.899,3.8721,0.0,0.0,0.0,0.0,0.0,0.0,0.0,0.0,3.899,3.9727,3.9451,4.0482,4.1741,4.1584,4.1324,4.1042,4.0904,4.2619,4.4822,4.6373,4.89,5.1805,5.4884,5.7192,5.9649,6.2979,6.4272,6.5137,6.6306,6.8766,7.1259,7.3353,7.7662,8.1233,8.2587,8.2772,8.3203,8.4342,8.3664,8.3264,8.3726,8.2987,8.2624,8.3012,8.3418,8.3584,8.3465,8.3731,8.3592,8.2813,8.1824,8.1215,8.0953,8.0445,8.0547,8.1317,8.1596,8.1832,8.2035,8.1528,8.1426,8.1663,8.0885,8.0818,8.1283,8.1046,8.1088,8.1418,8.2408,8.3084,8.3558,8.4065,8.4573,8.4979,0.0,0.0,0.0,0.0,0.0,0.0,0.0,0.0,0.0,0.0,0.0,0.0,0.0,0.0,0.0,0.0,0.0,0.0,0.0,0.0,0.0,0.0,0.0,4.1594,4.4197,4.8753,5.2133,5.4221,5.6137,5.5718,5.3079,4.9134,0.0,0.0,4.3858,4.311,4.4147,4.2211,4.1014,4.0337,3.966,3.9421,0.0,0.0,0.0,0.0,0.0,0.0,0.0,0.0,3.9499,3.9026,4.2532,4.2185,4.089,4.3284,4.2997,4.1802,4.1351,4.1886,4.3125,4.5126,4.8727,5.3529,6.0301,6.2337,6.4183,6.8982,6.8366,6.7168,6.7814,6.9074,7.0644,7.2675,7.7016,8.0586,8.1879,8.2099,8.2376,8.3018,8.308,8.308,8.308,8.1883,8.1669,8.2983,8.1622,8.1304,8.2628,8.2516,8.2069,8.1317,8.1317,8.0945,8.0209,8.0175,8.0547,8.1283,8.0547,8.0581,8.1317,8.1317,8.0885,8.0242,8.0953,8.1283,8.1249,8.0479,8.0615,8.1283,8.1317,8.2171,8.349,8.349,8.4471,8.5817,0.0,0.0,0.0,0.0,0.0,0.0,0.0,0.0,0.0,0.0,0.0,0.0,0.0,0.0,0.0,0.0,0.0,0.0,0.0,0.0,0.0,0.0,3.8763,3.984,4.0127,0.0,4.9164,5.491,5.4521,5.2779,0.0,0.0,0.0,4.4506,0.0,0.0,4.2222,4.1643,4.1283,4.1025,4.0367,4.0098,0.0,0.0,0.0,0.0,0.0,0.0,0.0,0.0,0.0,0.0,4.0501,4.2111,4.3658,4.2669,4.3155,4.3714,4.2346,4.3303,4.5434,4.8419,5.2628,5.7623,6.3964,6.5537,6.7319,7.3014,7.3353,7.2368,7.1629,7.3353,7.4799,7.4461,7.8001,8.1113,8.1976,8.2099,8.2376,8.3018,8.2283,8.1698,8.1698,8.1723,8.1878,8.226,8.2634,8.2992,8.3242,8.2732,8.2069,8.1317,8.0784,8.0412,8.0209,7.9701,7.9803,8.0513,7.9769,8.0073,8.1283,8.075,8.0412,8.0209,8.0412,8.0513,8.0513,8.0276,8.031,8.0581,8.1114,8.1866,8.278,8.3321,8.4471,8.5817,0.0,0.0,0.0,0.0,0.0,0.0,0.0,0.0,0.0,0.0,0.0,0.0,0.0,0.0,0.0,0.0,0.0,0.0,0.0,0.0,0.0,0.0,0.0,0.0,0.0,4.3748,4.7279,0.0,0.0,0.0,0.0,0.0,0.0,4.6869,0.0,4.713,4.4855,4.4077,4.299,4.1762,4.1373,4.1194,4.1164,0.0,0.0,0.0,0.0,0.0,0.0,0.0,0.0,0.0,4.0249,4.1787,4.3297,4.2561,4.3047,4.3697,4.2995,4.4557,4.7342,5.1313,5.5869,6.1194,6.815,7.0551,7.2614,7.7108,7.6615,7.5323,7.5046,7.5877,7.649,7.6246,7.8924,8.1236,8.1668,8.1698,8.176,8.1879,8.1171,8.0795,8.1061,8.0855,8.125,8.2533,8.2268,8.236,8.3006,8.2103,8.119,8.0445,8.0006,7.9634,7.9329,7.8889,7.8889,7.9329,7.8889,7.9295,8.0412,8.0547,8.0479,8.0209,8.0209,8.0209,8.0209,8.0209,8.0378,8.0682,8.1148,8.1731,8.2509,8.3219,8.4268,8.5351,0.0,0.0,0.0,0.0,0.0,0.0,0.0,0.0,0.0,0.0,0.0,0.0,0.0,0.0,0.0,0.0,0.0,0.0,0.0,0.0,0.0,0.0,0.0,0.0,0.0,0.0,0.0,0.0,0.0,0.0,0.0,0.0,5.0175,5.1977,0.0,5.1828,4.9717,4.7676,4.5085,4.2321,4.2321,4.2351,4.2321,4.1643,0.0,0.0,0.0,0.0,0.0,0.0,0.0,0.0,4.1148,4.1312,4.1236,4.2687,4.2829,4.2763,4.3611,4.5792,4.9004,5.4091,5.9199,6.5011,7.2706,7.64,7.8706,8.0559,7.8524,7.6831,7.7967,7.7262,7.6862,7.7998,7.9786,8.1052,8.1082,8.1052,8.0771,8.0186,8.0196,8.0399,8.0772,7.9795,8.0333,8.3185,8.0956,8.0235,8.1992,8.075,7.9701,7.9025,7.9,7.8686,7.8034,7.7933,7.7933,7.8,7.7933,7.8314,7.916,8.0479,8.075,8.0209,8.0209,8.0242,8.031,8.031,8.0682,8.1317,8.1317,8.1697,8.2408,8.3118,8.393,8.4715,0.0,0.0,0.0,0.0,0.0,0.0,0.0,0.0,0.0,0.0,0.0,0.0,0.0,0.0,0.0,0.0,0.0,0.0,0.0,0.0,0.0,0.0,0.0,0.0,0.0,0.0,0.0,0.0,0.0,0.0,0.0,0.0,0.0,4.9965,0.0,4.9949,4.6988,4.4496,4.272,4.1613,4.1613,4.1931,4.2321,4.1643,4.0965,0.0,0.0,0.0,0.0,0.0,0.0,0.0,4.0572,4.1734,4.2779,4.1802,4.2954,4.4786,4.5714,4.7578,5.1005,5.8454,6.6273,7.3199,7.7108,7.8862,7.9632,7.954,7.9755,7.9909,7.9694,7.9847,7.9909,7.9694,8.0032,8.0494,8.1052,8.0648,8.0248,8.0124,8.098,8.0987,7.9416,8.0814,8.1373,8.0421,8.0146,7.9963,7.9811,7.8957,7.8382,7.8247,7.8247,7.8145,7.8,7.7435,7.7435,7.7976,7.7401,7.7841,7.9101,7.9431,7.9803,8.0209,8.0209,8.0513,8.108,8.108,8.1181,8.1317,8.1317,8.1418,8.1629,8.2374,8.3464,8.4715,0.0,0.0,0.0,0.0,0.0,0.0,0.0,0.0,0.0,0.0,0.0,0.0,0.0,0.0,0.0,0.0,0.0,0.0,0.0,0.0,0.0,0.0,0.0,0.0,0.0,0.0,0.0,0.0,0.0,0.0,0.0,0.0,0.0,5.1223,0.0,5.1265,4.8005,4.5394,4.3509,4.2312,4.2312,4.2701,4.3199,4.2241,4.1643,4.1224,4.0247,0.0,0.0,0.0,0.0,0.0,0.0,0.0,4.2247,4.1772,4.2964,4.4818,4.6594,4.9774,5.476,6.3872,7.0613,7.563,7.8031,7.9139,7.954,7.917,8.0189,8.0898,8.0217,8.0648,8.0775,7.9786,7.9909,8.0124,8.0124,7.9847,7.9715,7.9948,8.026,8.0395,8.0145,8.0353,8.033,7.9826,7.9407,7.8991,7.8585,7.8213,7.7865,7.7468,7.7468,7.7266,7.6893,7.6521,7.6521,7.6893,7.6521,7.6927,7.8077,7.8788,7.9329,7.9667,7.9667,8.0073,8.075,8.075,8.075,8.075,8.075,8.075,8.0851,8.1596,8.2374,8.3212,0.0,0.0,0.0,0.0,0.0,0.0,0.0,0.0,0.0,0.0,0.0,0.0,0.0,0.0,0.0,0.0,0.0,0.0,0.0,0.0,0.0,0.0,0.0,0.0,0.0,0.0,0.0,0.0,0.0,0.0,0.0,0.0,0.0,5.3588,0.0,5.2845,4.986,4.6869,4.4655,4.313,4.313,4.3549,4.3997,0.0,0.0,4.2231,4.1014,4.1014,4.1553,4.1471,0.0,0.0,0.0,0.0,4.114,4.1852,4.2714,4.4006,4.6696,5.2082,5.9162,6.8551,7.2983,7.5538,7.7537,7.8493,7.8955,7.9078,8.0063,8.0709,8.0063,8.0371,8.0405,7.9293,7.9478,7.9601,7.917,7.9187,7.9382,7.9668,7.9539,7.9874,8.0944,7.9546,7.8912,7.9592,7.8483,7.7764,7.7604,7.7604,7.7299,7.6724,7.669,7.6352,7.5709,7.5709,7.5709,7.5709,7.5845,7.6183,7.6758,7.8111,7.8864,7.9101,7.9101,7.96,8.0378,8.0378,8.0378,8.0378,8.0378,8.031,8.0276,8.1046,8.141,8.1792,0.0,0.0,0.0,0.0,0.0,0.0,0.0,0.0,0.0,0.0,3.5519,0.0,0.0,0.0,0.0,0.0,0.0,0.0,3.5519,0.0,0.0,4.0038,4.1115,4.2043,0.0,0.0,0.0,0.0,0.0,0.0,0.0,0.0,0.0,5.482,0.0,0.0,4.9127,4.4756,4.277,4.2511,4.2511,4.288,0.0,0.0,0.0,0.0,4.1523,4.1703,4.219,4.181,4.1915,0.0,0.0,0.0,4.1013,4.114,4.1912,4.331,4.6018,5.4145,6.3318,6.9382,7.2983,7.5538,7.7537,7.806,7.8306,7.8986,7.9694,8.0032,7.9355,7.9293,7.9293,7.9139,7.8647,7.846,7.9016,7.9488,7.9573,7.9006,8.0804,8.1209,7.8966,7.9455,7.9246,7.7444,7.7164,7.6724,7.6048,7.6014,7.5946,7.5845,7.5845,7.5811,7.5709,7.5709,7.5709,7.5709,7.642,7.642,7.5879,7.6792,7.7908,7.9101,7.9101,7.987,8.1148,8.1148,8.1148,8.1148,8.1148,8.075,8.0276,8.1046,8.1843,8.2726,0.0,0.0,0.0,0.0,0.0,0.0,0.0,0.0,0.0,0.0,0.0,3.5519,0.0,0.0,0.0,3.5519,3.5519,3.5669,3.6028,3.7255,3.8512,3.978,4.0487,4.1115,4.1664,0.0,0.0,0.0,0.0,0.0,0.0,5.1043,5.3198,0.0,0.0,0.0,0.0,4.5035,4.291,4.288,4.2541,4.3068,0.0,0.0,0.0,0.0,0.0,0.0,4.3076,4.2717,4.2827,4.3115,4.3026,0.0,0.0,0.0,4.2211,4.3845,4.9568,5.5745,6.2117,6.8705,7.1536,7.3445,7.6214,7.7167,7.7506,7.7877,7.8185,7.8367,7.8493,7.846,7.8247,7.7508,7.7108,7.6862,7.68,7.7588,7.8305,7.8717,7.9582,7.9959,7.9422,7.8758,7.7942,7.6961,7.6487,7.6082,7.5709,7.5709,7.5709,7.5709,7.5709,7.5709,7.5709,7.5709,7.5709,7.5709,7.6048,7.6048,7.5709,7.6082,7.6826,7.7908,7.8314,7.9092,8.0132,8.069,8.091,8.0935,8.1086,8.0932,8.0693,8.1,8.1415,8.1983,0.0,0.0,0.0,0.0,0.0,0.0,0.0,0.0,0.0,0.0,0.0,0.0,0.0,0.0,0.0,0.0,3.5519,3.5848,3.6656,3.7781,3.8691,3.9361,3.9888,4.0157,4.0157,0.0,0.0,0.0,0.0,0.0,5.2725,5.3384,5.5833,0.0,5.6166,5.3473,0.0,0.0,0.0,4.4685,0.0,0.0,0.0,0.0,0.0,0.0,0.0,0.0,4.3916,4.3626,4.3636,4.3734,4.4007,4.3244,0.0,0.0,0.0,4.3876,5.0983,5.4914,5.8664,6.5596,6.8612,7.0736,7.3968,7.5507,7.6308,7.6461,7.6492,7.6615,7.6921,7.6983,7.6706,7.5877,7.56,7.5419,7.5212,7.6238,7.7342,7.8206,7.8452,7.8723,7.9322,7.7874,7.6826,7.6623,7.5879,7.5439,7.5439,7.5236,7.5236,7.5405,7.5236,7.5236,7.5439,7.5236,7.5236,7.5439,7.5439,7.5506,7.5709,7.5709,7.6014,7.6657,7.7401,7.8296,7.9259,8.0001,8.0489,8.0734,8.0931,8.1005,8.1005,8.1005,8.1293,8.1845,0.0,0.0,0.0,0.0,0.0,0.0,0.0,0.0,0.0,0.0,0.0,0.0,0.0,3.5519,3.5519,3.5519,3.5519,3.6028,3.7285,3.8003,3.8691,3.9361,3.9421,0.0,3.9451,3.9451,0.0,0.0,0.0,0.0,5.4132,5.479,5.9159,6.6251,6.1104,5.6316,5.1977,0.0,0.0,0.0,0.0,0.0,0.0,0.0,0.0,0.0,0.0,4.4759,4.4599,4.4356,4.4007,4.3754,4.4162,4.3808,4.3123,0.0,0.0,0.0,4.6819,4.9989,5.3406,5.8916,6.3749,6.7843,7.0551,7.2706,7.4338,7.4984,7.5107,7.4922,7.4307,7.4214,7.4399,7.4953,7.4522,7.4469,7.5515,7.6766,7.7487,7.7303,7.8317,7.8544,7.7198,7.6961,7.6589,7.5811,7.51,7.4661,7.4661,7.3984,7.3916,7.4661,7.3984,7.395,7.4637,7.395,7.395,7.4661,7.4661,7.5033,7.5709,7.5709,7.5709,7.5811,7.6623,7.7919,7.9497,7.9556,8.0111,8.098,8.1005,8.1005,8.1005,8.1005,8.2066,8.3463,0.0,0.0,0.0,0.0,0.0,0.0,0.0,0.0,0.0,0.0,0.0,0.0,0.0,3.5519,3.5669,3.6088,3.6896,3.7554,3.8003,3.8661,3.9152,3.9391,3.9391,3.9391,3.9391,3.981,0.0,0.0,0.0,4.5564,5.1684,5.3653,5.6735,6.0535,5.8261,5.6765,5.5543,4.9105,0.0,4.778,0.0,0.0,0.0,0.0,0.0,4.6346,4.5353,4.5322,4.5687,4.5474,4.5108,4.4763,4.4919,4.4194,4.3172,4.2658,4.2688,4.3482,4.6203,4.8327,5.1036,5.6508,6.0142,6.3287,6.6888,6.9597,7.1567,7.2244,7.2737,7.3014,7.2768,7.3076,7.3291,7.3107,7.246,7.2395,7.3558,7.4829,7.5836,7.6479,7.7237,7.7468,7.6961,7.6014,7.5303,7.5033,7.4322,7.3883,7.3883,7.3612,7.3612,7.3883,7.3612,7.3635,7.3883,7.3172,7.3172,7.3883,7.439,7.4739,7.4999,7.5473,7.5709,7.5733,7.6181,7.7284,7.8798,7.9112,8.0022,8.1238,8.0868,8.1043,8.149,8.149,8.2215,8.3217,0.0,0.0,0.0,0.0,0.0,0.0,0.0,0.0,0.0,0.0,0.0,0.0,0.0,0.0,3.6327,3.6746,3.7781,3.8409,3.8409,3.902,3.9391,3.9391,3.9391,3.9511,3.972,0.0,0.0,0.0,0.0,0.0,0.0,5.2013,5.464,5.7663,5.5269,5.5897,0.0,5.2217,4.9853,5.0025,4.7262,4.6989,4.8311,4.8033,4.8699,4.9662,4.8596,4.8137,4.7843,4.6865,4.6152,4.56,4.5434,4.4473,4.3346,4.3027,4.3082,4.3605,4.5176,4.6419,4.8666,5.4607,5.6577,5.8577,6.4272,6.6396,6.7689,6.9536,7.0459,7.1043,7.1259,7.1659,7.1997,7.2174,7.1613,7.1674,7.318,7.4117,7.5023,7.5913,7.6319,7.6386,7.6149,7.5202,7.4492,7.4255,7.3544,7.3105,7.3105,7.2654,7.2383,7.2383,7.2383,7.2654,7.3105,7.2394,7.2529,7.3534,7.4255,7.4603,7.4627,7.5371,7.5757,7.5852,7.6122,7.6954,7.816,7.8586,7.969,8.1125,8.0716,8.1097,8.181,8.181,8.2259,8.2983,0.0,0.0,0.0,0.0,0.0,0.0,0.0,0.0,0.0,0.0,0.0,0.0,0.0,0.0,0.0,3.7524,3.8093,3.8499,3.8469,3.908,3.9421,3.9421,3.9451,3.975,4.0427,0.0,0.0,0.0,0.0,0.0,0.0,0.0,5.324,5.859,5.2851,5.3868,5.9815,5.8351,5.7124,5.5769,5.0872,4.9802,5.1349,5.3017,5.4122,5.4768,5.4706,5.3361,5.1172,4.8665,4.7201,4.6405,4.5806,0.0,0.0,0.0,0.0,4.2786,0.0,0.0,0.0,5.2768,5.2983,5.3837,6.2487,6.2948,6.2733,6.6798,6.8212,6.8889,6.9628,6.9782,7.0382,7.2231,7.1993,7.2392,7.4672,7.4981,7.5155,7.5657,7.5676,7.5405,7.4671,7.4536,7.4255,7.3534,7.2766,7.236,7.2326,7.0939,7.0184,7.0184,7.0128,7.0804,7.2293,7.1616,7.1988,7.3466,7.4221,7.4593,7.4627,7.5371,7.5852,7.6122,7.6402,7.6928,7.7601,7.7891,7.9016,8.058,8.058,8.1063,8.181,8.181,8.2259,8.2914,0.0,0.0,0.0,0.0,0.0,0.0,0.0,0.0,0.0,0.0,0.0,0.0,0.0,0.0,0.0,4.0266,4.0475,4.0355,3.9888,4.0038,4.0127,4.0127,4.0576,4.0935,4.1134,0.0,0.0,0.0,0.0,0.0,0.0,0.0,0.0,0.0,5.2456,5.3384,5.4845,5.0631,5.1678,5.5769,5.0713,5.1326,5.5092,5.336,5.4167,5.6108,5.5076,5.496,5.5052,5.3322,5.1924,5.0396,4.7291,0.0,0.0,0.0,0.0,0.0,4.3667,0.0,0.0,0.0,0.0,0.0,5.3098,5.4976,5.6952,6.0578,6.261,6.4272,6.5965,6.7073,6.8282,6.9905,7.0554,7.1657,7.3972,7.4278,7.4647,7.559,7.5236,7.483,7.4603,7.3646,7.2935,7.2732,7.2022,7.1379,7.0838,6.9925,6.9417,6.9417,6.8842,6.9011,6.9992,7.0331,7.0973,7.1921,7.3747,7.4687,7.4907,7.5631,7.6145,7.6402,7.6622,7.6816,7.7045,7.733,7.8672,8.0545,7.9994,8.0638,8.181,8.181,8.2259,8.2914,0.0,0.0,0.0,0.0,0.0,0.0,0.0,0.0,0.0,0.0,0.0,0.0,0.0,0.0,0.0,0.0,4.1643,4.1523,4.0846,4.0834,4.0834,4.0834,4.1194,4.1523,0.0,0.0,0.0,0.0,0.0,0.0,0.0,0.0,0.0,0.0,0.0,0.0,5.0893,4.6972,4.9015,5.481,5.3163,5.4795,5.8155,5.7742,5.8821,6.0512,5.9686,5.9716,5.9803,5.7254,5.476,5.2029,4.8235,4.648,0.0,0.0,0.0,0.0,0.0,0.0,0.0,4.6993,0.0,0.0,5.0112,5.0851,5.1867,5.5838,5.7839,5.9629,6.2302,6.341,6.4809,6.7415,6.8338,6.9866,7.3291,7.3785,7.4037,7.4691,7.439,7.4018,7.3713,7.2631,7.1819,7.1515,7.0804,7.006,6.9282,6.8842,6.8605,6.8605,6.7861,6.8132,6.9553,7.0014,7.0703,7.1785,7.3713,7.4734,7.5023,7.5782,7.6309,7.6622,7.6759,7.6839,7.6986,7.7156,7.8166,7.9649,7.9545,8.0258,8.1362,8.1672,8.2086,8.2431,0.0,0.0,0.0,0.0,0.0,0.0,0.0,0.0,0.0,0.0,0.0,0.0,0.0,0.0,0.0,0.0,4.2391,4.2321,4.1553,4.1523,0.0,0.0,0.0,0.0,0.0,0.0,0.0,0.0,0.0,0.0,0.0,0.0,0.0,0.0,0.0,0.0,4.778,4.6411,4.8618,5.3326,5.6385,5.8828,6.0882,6.3776,6.5414,6.6211,6.615,6.575,6.4611,6.0578,5.6515,5.2575,4.922,4.7958,4.7465,4.608,4.5761,0.0,0.0,0.0,0.0,4.9805,4.7188,0.0,5.0337,4.9066,4.7927,5.2153,5.3629,5.5137,5.8393,5.9255,6.0634,6.4216,6.5302,6.7403,7.2435,7.3195,7.3229,7.3161,7.3128,7.2891,7.2225,7.1481,7.077,7.015,6.9383,6.8639,6.7929,6.7827,6.7793,6.7793,6.7129,6.776,6.9789,7.006,7.0906,7.2293,7.3883,7.4801,7.5182,7.5863,7.6391,7.6839,7.6839,7.6986,7.7201,7.7201,7.7649,7.8465,7.9224,7.9959,8.0683,8.15,8.181,8.181,0.0,0.0,0.0,0.0,0.0,0.0,0.0,0.0,0.0,0.0,0.0,0.0,0.0,0.0,0.0,0.0,0.0,4.3439,0.0,0.0,0.0,0.0,0.0,0.0,0.0,0.0,0.0,0.0,0.0,0.0,0.0,0.0,0.0,0.0,0.0,0.0,4.5254,4.8065,5.0296,5.2182,5.4437,5.8849,6.4075,6.4443,6.6134,6.8243,6.772,6.7414,6.6768,6.3225,5.9347,5.5492,5.2606,5.0205,4.8142,4.6788,4.6788,4.7096,0.0,0.0,4.8101,4.6408,4.7578,0.0,4.528,4.6049,4.7681,4.8604,4.9805,5.1374,5.3683,5.5892,5.7397,5.7379,6.0802,6.5151,7.0119,7.1345,7.1515,7.0906,7.086,7.0793,7.0635,6.9958,6.9485,6.9316,6.8571,6.8064,6.7895,6.7354,6.6994,6.6994,6.6859,6.6994,6.7455,6.9282,7.0635,7.1526,7.3589,7.5166,7.6221,7.6357,7.6679,7.7133,7.7133,7.7156,7.7201,7.7201,7.7649,7.8465,7.9224,7.9959,8.0683,8.15,8.181,8.181,0.0,0.0,0.0,0.0,0.0,0.0,0.0,0.0,0.0,0.0,0.0,0.0,0.0,0.0,0.0,0.0,0.0,0.0,0.0,0.0,0.0,0.0,0.0,0.0,0.0,0.0,0.0,0.0,0.0,0.0,0.0,0.0,0.0,0.0,0.0,4.4557,4.5139,4.7331,4.9179,5.1106,5.6259,6.092,6.4913,6.6543,6.8311,6.9843,6.9536,6.8737,6.726,6.3168,6.0671,5.8454,5.3714,5.2175,5.1682,4.9343,4.8635,4.8419,4.7373,4.7619,4.805,4.7732,4.767,0.0,0.0,4.4849,4.5003,4.6326,4.6357,4.6973,4.9682,5.1005,5.2293,5.3999,5.6702,5.9976,6.3981,6.6828,6.8504,6.8504,6.8166,6.8255,6.8977,6.803,6.7387,6.7387,6.7387,6.7184,6.6812,6.6812,6.6643,6.6271,6.6609,6.6791,6.6791,6.8301,6.962,7.077,7.2768,7.4479,7.5971,7.6428,7.6828,7.7201,7.7201,7.7201,7.7201,7.7201,7.7442,7.789,7.9086,7.9741,8.0166,8.1362,8.181,8.181,3.5639,0.0,0.0,0.0,0.0,0.0,0.0,0.0,0.0,0.0,0.0,0.0,0.0,0.0,0.0,0.0,0.0,0.0,0.0,0.0,0.0,0.0,0.0,4.3938,0.0,0.0,0.0,0.0,0.0,0.0,0.0,0.0,0.0,4.481,4.4768,4.5289,4.6309,4.6782,4.8561,5.1727,5.8828,6.2354,6.3761,6.7817,6.9751,7.0367,7.0613,6.9659,6.7627,6.3256,6.1963,6.1163,5.5161,5.4576,5.5468,5.239,5.1159,5.0574,4.9312,4.8974,4.922,5.0389,4.8902,4.7116,0.0,0.0,0.0,4.4929,4.3925,4.3618,4.6326,4.648,4.7333,5.0781,5.2713,5.4568,5.6823,6.0831,6.4106,6.5595,6.4952,6.5121,6.688,6.5561,6.4871,6.5425,6.5662,6.5662,6.5514,6.6068,6.617,6.5717,6.6271,6.6677,6.6791,6.7565,6.8738,7.0284,7.1884,7.3628,7.5481,7.6245,7.6804,7.7201,7.7201,7.7201,7.7201,7.7201,7.7201,7.7339,7.8718,7.9373,7.9649,8.1052,8.1672,8.181,3.5639,3.6028,0.0,0.0,0.0,0.0,0.0,0.0,0.0,0.0,0.0,0.0,0.0,0.0,0.0,0.0,0.0,0.0,4.974,4.7072,0.0,0.0,0.0,0.0,4.5185,0.0,0.0,0.0,0.0,0.0,0.0,0.0,0.0,4.5256,4.6013,4.7081,4.8434,4.9178,5.2223,5.6751,5.9495,5.9979,5.9695,6.5146,6.7689,6.8398,6.9597,6.9874,6.9228,6.6304,6.4549,6.3014,5.987,5.8264,5.7124,5.4891,5.4583,5.4853,5.4091,5.5622,5.6354,5.1805,5.3521,5.4291,4.6685,0.0,4.7855,4.4498,0.0,4.3605,4.3975,0.0,0.0,4.4699,4.8554,5.1447,5.1136,5.3859,5.7374,6.1434,6.0655,6.0873,6.3714,6.2009,6.1839,6.4512,6.299,6.2753,6.4613,6.4816,6.5121,6.5683,6.5784,6.6136,6.6791,6.7768,6.8995,7.0469,7.156,7.3338,7.565,7.5798,7.6345,7.7201,7.7201,7.7201,7.7201,7.7201,7.7201,7.727,7.8189,7.8948,7.9603,8.0407,8.119,8.181,3.5639,3.6327,0.0,0.0,0.0,0.0,0.0,0.0,0.0,0.0,0.0,0.0,5.883,5.6483,5.5015,5.5576,5.1967,4.9452,4.8986,4.6912,0.0,0.0,4.5514,4.5663,0.0,0.0,0.0,0.0,4.5484,0.0,0.0,0.0,4.5786,4.6632,4.6617,4.8093,5.0637,5.0978,5.2649,5.5381,5.8563,5.8909,5.8329,6.6245,6.9659,7.0182,6.9536,6.9074,6.8212,6.4703,6.3933,6.3841,6.0301,5.9624,5.9624,5.7192,5.6416,5.6108,5.4983,5.5537,5.5876,5.3568,5.3345,5.2721,4.8994,4.7424,4.6469,4.5545,0.0,0.0,0.0,0.0,0.0,0.0,4.6689,4.8677,4.8756,4.9892,5.2536,5.7476,5.6713,5.6461,5.8186,5.8626,5.8998,5.9385,6.0182,6.0825,6.1313,6.3024,6.4106,6.441,6.5256,6.5852,6.617,6.7144,6.8425,6.9888,7.1003,7.2759,7.5077,7.5657,7.6388,7.7201,7.7201,7.7201,7.7201,7.7201,7.7201,7.7235,7.758,7.8442,7.958,8.0339,8.1121,8.181,3.6118,0.0,0.0,0.0,0.0,0.0,0.0,0.0,5.4127,5.5059,5.7124,5.9279,6.1433,5.9591,5.8396,5.8938,5.583,5.3085,5.1296,4.8814,4.7326,4.7053,4.6445,4.6544,4.7366,4.6552,0.0,0.0,0.0,4.5843,4.5843,0.0,0.0,4.7632,4.8132,4.994,5.271,5.3511,5.4789,5.6519,5.9487,6.0449,6.082,6.7135,7.0305,7.1197,6.9289,6.8212,6.7106,6.3779,6.3656,6.4334,6.1163,6.104,6.1625,5.9311,5.8264,5.7648,5.6453,5.6214,5.6091,5.4983,5.3229,5.1467,5.0143,4.8142,4.6623,4.6819,4.5772,0.0,0.0,0.0,4.4266,0.0,0.0,4.6668,4.7163,4.743,4.9307,5.3906,5.3873,5.3788,5.455,5.5294,5.5818,5.5969,5.7018,5.7983,5.8641,6.0975,6.253,6.3173,6.4613,6.5534,6.5799,6.6786,6.7952,6.9296,7.0448,7.2059,7.4122,7.5032,7.6016,7.6891,7.6891,7.6994,7.7201,7.7201,7.7201,7.7201,7.7201,7.8028,7.9293,8.0028,8.081,8.15,3.7327,3.7883,0.0,3.8439,4.0595,4.3489,4.677,4.7459,4.9434,5.4521,5.473,5.6585,6.2419,6.1722,6.2715,6.721,6.2663,5.9707,6.0083,5.489,5.0931,4.8988,4.8471,4.8017,4.7611,4.7987,4.79,4.7279,4.7249,4.7249,4.7249,4.7249,0.0,4.7753,5.1236,5.335,5.4524,5.7371,6.046,6.3475,6.3629,6.5598,6.8304,6.6673,6.7689,6.9782,6.8398,6.7506,6.6706,6.5288,6.4826,6.4764,6.3906,6.3229,6.2491,6.1101,6.0701,6.0517,5.9809,6.0116,5.9655,5.5691,5.4645,5.3353,4.8737,4.9651,5.0728,4.8112,4.9097,4.962,4.7004,0.0,0.0,0.0,0.0,0.0,0.0,4.6368,4.797,5.0964,5.2621,5.3788,5.455,5.2012,5.2131,5.6427,5.3501,5.3382,5.7697,5.8693,6.0182,6.2367,6.3869,6.5088,6.5984,6.6977,6.7954,6.8912,6.9947,7.1256,7.2795,7.352,7.4705,7.6132,7.6132,7.6546,7.7201,7.7201,7.7201,7.7201,7.7201,7.7684,7.8534,7.9258,7.9994,8.0752,0.0,0.0,0.0,3.914,4.0924,4.3499,4.68,4.9523,5.3032,5.8098,6.0138,6.3295,6.9029,6.8456,6.8363,7.0098,6.6522,6.3483,6.1921,5.8151,5.5481,5.4405,5.3399,5.2246,5.0939,5.0469,4.9531,4.8156,4.7584,4.746,4.7752,4.7581,4.7757,4.8355,5.0615,5.28,5.4988,5.7951,5.9962,6.1286,6.2583,6.6273,7.0705,6.8181,6.7783,6.8398,6.7073,6.6427,6.6119,6.5195,6.4888,6.4764,6.4029,6.3629,6.3291,6.2394,6.2148,6.2086,6.1871,6.1963,6.1255,5.7654,5.6053,5.436,5.0513,5.0697,5.0913,4.8173,4.9251,5.0026,4.7805,0.0,0.0,0.0,0.0,0.0,0.0,4.5224,4.5887,4.738,4.8868,4.951,4.8781,4.868,4.9086,5.0101,5.0371,5.1352,5.3382,5.6055,5.8355,6.008,6.2564,6.4308,6.5277,6.6759,6.8248,6.9708,7.0175,7.145,7.3451,7.3692,7.4636,7.6097,7.6097,7.6511,7.7201,7.7201,7.7201,7.7201,7.7201,7.7373,7.7753,7.9028,7.9959,8.0718,4.0068,4.0636,4.0894,4.0217,4.1972,4.4397,4.7219,5.1526,5.6087,6.0699,6.3949,6.7759,7.2798,7.2715,7.2478,7.2818,7.0557,6.7646,6.4129,6.1859,5.9832,5.7973,5.6814,5.539,5.3631,5.2916,5.1278,4.8749,4.8679,4.8339,4.7858,4.7773,4.7972,4.8507,5.1266,5.3526,5.5529,5.9624,6.1436,6.1779,6.381,6.6704,6.9659,6.815,6.7844,6.8058,6.6488,6.575,6.5472,6.5042,6.4888,6.4826,6.4364,6.3998,6.366,6.2983,6.2798,6.2737,6.2491,6.2429,6.1748,5.8879,5.7309,5.5584,5.2175,5.2298,5.2502,5.0361,5.0894,5.1518,5.0659,4.8977,0.0,0.0,0.0,0.0,0.0,4.4783,4.477,4.5263,4.638,4.6838,4.6143,4.6481,4.6752,4.68,4.7646,4.8917,5.071,5.389,5.6528,5.8558,6.1786,6.401,6.5022,6.6663,6.8152,6.9418,7.0057,7.1174,7.2623,7.3175,7.4085,7.5292,7.5546,7.6097,7.6822,7.7097,7.7201,7.7201,7.7201,7.7201,7.7373,7.8925,8.0132,8.1121,4.1583,4.2032,4.2351,4.1762,4.3678,4.6022,4.8169,5.3158,5.8153,6.2291,6.6029,6.9854,7.3837,7.4554,7.5024,7.5636,7.4761,7.2121,6.7252,6.6302,6.4101,6.0045,5.907,5.773,5.5785,5.5414,5.3317,4.9365,5.0407,4.9871,4.7796,4.7961,4.8007,4.8241,5.3154,5.5439,5.5992,6.2152,6.4857,6.5103,6.7014,6.7075,6.6119,6.6611,6.7658,6.8581,6.6581,6.5442,6.4888,6.4888,6.4888,6.4888,6.4888,6.4426,6.3722,6.3075,6.2891,6.2737,6.2148,6.1963,6.1471,5.9465,5.8467,5.7105,5.3721,5.4507,5.5635,5.4461,5.4028,5.4166,5.5193,5.2317,0.0,0.0,0.0,0.0,0.0,4.5108,4.4682,4.4702,4.5263,4.594,4.6616,4.5447,4.5244,4.6631,4.5447,4.6225,4.9812,5.2198,5.4769,5.7697,6.1434,6.4021,6.5294,6.6744,6.7719,6.8187,6.967,7.0415,7.0518,7.2002,7.3106,7.3865,7.458,7.5373,7.6166,7.6891,7.7201,7.7201,7.7201,7.7235,7.7477,7.8959,8.05,8.181,4.2171,4.3439,4.4646,4.5005,4.5185,4.6621,5.0601,5.3911,5.8378,6.5055,6.9153,7.3066,7.7335,7.8326,7.8513,7.8205,7.7442,7.6214,7.4395,7.2487,7.0373,6.8034,6.6804,6.4464,6.0761,5.9405,5.7344,5.4521,5.1652,5.0388,5.0621,4.8983,4.8239,4.8422,5.2688,5.4347,5.438,6.0477,6.4049,6.5688,6.6211,6.7104,6.7935,6.6119,6.655,6.7904,6.5873,6.5042,6.4888,6.4888,6.4888,6.4888,6.4888,6.4764,6.458,6.4426,6.4364,6.4334,6.4149,6.4087,6.3626,6.1532,6.0695,5.9779,5.7398,5.8192,5.8754,5.6431,5.6188,5.6027,5.4911,5.2061,5.0097,0.0,0.0,0.0,4.5911,4.5534,4.5602,4.6157,4.5447,4.4973,4.5142,4.5297,4.5568,4.594,4.5635,4.6312,4.836,5.1116,5.3721,5.619,6.0062,6.3144,6.5294,6.6356,6.7619,6.9,6.9966,7.0691,7.1256,7.2243,7.3106,7.3865,7.458,7.5373,7.6166,7.6891,7.7201,7.7201,7.7201,7.789,7.8959,7.9339,8.05,8.181,4.3619,4.5693,4.7646,4.8334,4.9719,5.1493,5.3813,5.6028,5.9766,6.6235,7.0557,7.4081,7.6818,7.9164,8.0278,7.9601,7.917,7.8211,7.6481,7.5525,7.4145,7.212,7.0618,6.814,6.4509,6.202,5.9088,5.5654,5.2658,5.0997,5.0607,4.9144,4.8355,4.8475,5.2642,5.4434,5.4788,6.056,6.3981,6.5503,6.578,6.6396,0.0,6.5811,6.5873,6.6457,6.5319,6.4888,6.4888,6.4888,6.4888,6.4888,6.4888,6.4888,6.4888,6.4888,6.4672,6.4426,6.4426,6.421,6.3626,6.2179,6.1962,6.1561,5.9206,5.9502,5.9838,5.8379,5.6992,5.612,5.641,5.3423,5.09,5.0719,4.9138,4.7616,4.6771,4.638,4.6346,4.6766,4.6346,4.5785,4.5142,4.4857,4.4573,4.4248,4.5128,4.594,4.6447,5.0168,5.3044,5.4684,5.9865,6.3305,6.4762,6.7033,6.8366,6.8793,6.9897,7.0622,7.107,7.2519,7.3416,7.3865,7.4925,7.5684,7.6166,7.6891,7.7201,7.7201,7.7201,7.8132,7.9477,7.9477,8.05,8.181,4.5544,4.8334,5.0727,5.1116,5.4939,5.7967,5.7932,5.9739,6.2845,6.7571,7.1933,7.4846,7.5612,7.9038,8.1021,8.0402,8.0278,7.913,7.6502,7.6946,7.6331,7.4169,7.2397,7.0182,6.7504,6.3995,5.9999,5.5506,5.3629,5.1633,4.9619,4.893,4.85,4.8517,5.2524,5.4945,5.63,6.1409,6.3937,6.4703,6.5565,6.5503,6.4949,6.5565,6.5411,6.4888,6.4888,6.4888,6.4888,6.4888,6.4888,6.4888,6.4888,6.4888,6.4888,6.4888,6.4566,6.4097,6.3868,6.3568,6.3132,6.22,6.2831,6.3037,6.0446,6.0119,6.0345,6.046,5.7542,5.5783,5.8384,5.525,5.186,5.0479,4.9086,4.8157,4.8056,4.7428,4.6989,4.7071,4.7481,0.0,4.6094,4.4674,4.3504,4.2672,4.4451,4.5345,4.4798,4.9286,5.24,5.3551,5.9855,6.3621,6.4425,6.7828,6.9143,6.8428,6.9739,7.0415,7.0484,7.2761,7.3796,7.3899,7.543,7.6097,7.6166,7.6891,7.7201,7.7201,7.7304,7.8235,7.9534,7.9741,8.072,8.1965,4.7638,5.0421,5.2366,5.1355,5.5722,6.0496,6.3928,6.6865,7.0006,7.3615,7.7399,8.0275,8.1471,8.1817,8.1883,8.1791,8.1267,8.0709,8.0183,7.9229,7.8275,7.7255,7.5352,7.3014,7.0274,6.6365,6.2856,5.9747,5.5007,5.2214,5.1247,4.9445,4.8563,4.8665,5.1137,5.4145,5.7648,6.0824,6.2522,6.3349,6.5165,6.5503,6.4918,6.5042,6.5011,6.4888,6.4888,6.4888,6.4888,6.4888,6.4888,6.4888,6.4888,6.4888,6.4888,6.4888,6.5417,6.5704,6.4209,6.4989,6.5756,6.3577,6.4409,6.5355,6.3702,6.3542,6.3585,6.302,6.0381,5.8175,5.8115,5.4902,5.2016,5.1151,5.027,4.9492,4.8883,4.8157,4.7921,4.8545,4.7665,4.7124,4.7481,4.6718,4.565,4.4296,4.4567,4.5063,4.5637,4.8252,5.1031,5.3832,5.7654,6.1787,6.6215,6.648,6.7788,7.0001,7.0277,7.0415,7.0484,7.2761,7.3796,7.3899,7.543,7.6097,7.6166,7.6891,7.7201,7.727,7.7925,7.8741,7.9661,8.0996,8.2053,8.2858,5.1738,5.3683,5.5614,5.6904,6.0959,6.5538,6.9824,7.3652,7.5805,7.515,7.721,7.8998,7.9674,8.1471,8.2622,8.2622,8.2006,8.1483,8.1113,7.9817,7.877,7.8029,7.6092,7.4061,7.2029,6.7319,6.3564,6.0794,5.5376,0.0,0.0,4.9404,4.8583,4.8706,5.1476,5.5007,5.8972,6.0948,6.221,6.2952,6.4703,6.5195,6.4888,6.4888,6.4888,6.4888,6.4888,6.4888,6.4888,6.4888,6.4888,6.4888,6.4888,6.4888,6.4888,6.4888,6.499,6.5049,6.476,6.4859,6.4938,6.4284,6.4952,6.5381,6.3957,6.412,6.4275,6.3159,6.1467,5.9708,5.8186,5.5175,5.2807,5.2452,5.1404,5.0405,4.9661,4.9255,4.9052,4.9018,4.8376,4.7767,4.7361,4.6989,4.6022,4.4113,4.5074,4.5436,4.4796,4.7971,5.072,5.2753,5.7484,6.157,6.49,6.6764,6.8172,6.9242,7.0035,7.0415,7.0484,7.2761,7.4016,7.4464,7.558,7.6304,7.6684,7.7063,7.7201,7.7235,7.7615,7.8781,8.0267,8.1042,8.2637,8.4396,5.5999,5.7524,5.9672,6.2775,6.6755,7.0709,7.4293,7.8759,8.0487,7.709,7.7514,7.8249,7.8372,8.134,8.3295,8.3295,8.2556,8.1883,8.136,7.9909,7.8832,7.8244,7.6308,7.4584,7.3229,6.815,6.3995,6.0794,5.5653,5.239,5.0882,4.9497,4.8912,4.9168,5.2306,5.5653,5.9039,6.0824,6.2148,6.3106,6.4395,6.498,6.5103,6.4949,6.4888,6.4888,6.4888,6.4888,6.4888,6.4888,6.4888,6.4888,6.4888,6.4888,6.4888,6.4888,6.4652,6.4501,6.5088,6.4735,6.4301,6.4846,6.5284,6.5248,6.395,6.4287,6.441,6.2922,6.167,6.0216,5.8272,5.575,5.3923,5.3754,5.2588,5.137,5.0473,5.0338,4.9999,4.912,4.9018,4.8425,4.6965,4.668,4.5785,4.385,4.5354,4.573,4.4286,4.789,5.0571,5.1769,5.7398,6.1436,6.3602,6.6921,6.8586,6.8601,6.9808,7.0415,7.0484,7.2761,7.4188,7.496,7.5753,7.6511,7.7201,7.7201,7.7201,7.7223,7.7562,7.8968,8.0872,8.1394,8.3343,8.5635,5.8987,6.1725,6.4285,6.5569,7.0312,7.432,7.5365,8.023,8.3664,8.326,8.3321,8.3629,8.4244,8.4157,8.4003,8.4003,8.2833,8.2099,8.2037,8.0186,7.9078,7.9016,7.7016,7.5292,7.3937,6.9782,6.5352,6.0794,5.6583,5.3506,5.159,5.0236,4.9897,5.0605,5.2737,5.4607,5.63,5.9532,6.1994,6.3783,6.458,6.5257,6.575,6.5134,6.4888,6.4888,6.4888,6.4888,6.4888,6.4888,6.4888,6.4888,6.4888,6.4888,6.4888,6.4888,6.5561,6.598,6.477,6.5747,6.6829,6.5566,6.5965,6.6449,6.5639,6.5519,6.5155,6.37,6.1177,5.8964,5.8051,5.6596,5.5259,5.46,5.3822,5.2757,5.1302,5.11,5.0592,4.9187,4.9018,4.847,4.7112,4.6249,4.549,4.4728,4.4878,4.5253,4.5835,4.7706,4.9806,5.2073,5.6083,6.0254,6.4547,6.5669,6.7551,7.0208,7.0346,7.0415,7.0484,7.2761,7.4188,7.496,7.5753,7.6511,7.7201,7.7201,7.7201,7.7359,7.8807,7.9963,8.1056,8.3337,8.48,8.5786,6.4546,6.5757,6.7787,7.1197,7.3372,7.5828,7.9554,8.2363,8.4249,8.4649,8.4711,8.4649,8.4526,8.4249,8.3941,8.351,8.2618,8.1791,8.0956,7.9755,7.8709,7.7877,7.6677,7.5569,7.4615,7.1383,6.7596,6.3256,5.9963,5.6891,5.406,5.2329,5.1867,5.2553,5.3753,5.5506,5.774,6.0301,6.2117,6.3291,6.4457,6.5072,6.5288,6.5011,6.4888,6.4888,6.4888,6.4888,6.4998,6.5646,6.5433,6.5026,6.5673,6.5122,6.4576,6.6312,6.6047,6.5427,6.6573,6.6828,6.6775,6.6866,6.684,6.6609,6.5865,6.5378,6.4749,6.3714,6.182,6.0148,5.937,5.8017,5.6765,5.6055,5.4938,5.3788,5.2739,5.1776,5.0861,4.9937,4.9036,4.8316,4.7865,4.6698,4.6221,4.692,4.5608,4.5165,4.6034,4.7269,4.9266,5.2099,5.5478,5.9219,6.3324,6.5067,6.7206,6.9759,7.0208,7.0636,7.1139,7.2968,7.4464,7.5649,7.6442,7.6925,7.7246,7.775,7.7988,7.8074,7.922,8.0792,8.2486,8.3477,8.4955,8.6554,6.9458,6.9824,7.1502,7.638,7.6998,7.8261,8.2741,8.3941,8.4557,8.505,8.5111,8.4926,8.4465,8.4218,8.3911,8.3418,8.2587,8.1694,8.074,7.9694,7.8647,7.7662,7.68,7.6,7.5323,7.3014,6.9936,6.6057,6.3133,6.0122,5.7168,5.5345,5.476,5.5253,5.5906,5.75,5.9778,6.1409,6.2706,6.3752,6.458,6.5011,6.5165,6.498,6.4888,6.4888,6.4888,6.4888,6.5081,6.6152,6.5991,6.5483,6.6284,6.562,6.4991,6.7029,6.6588,6.5877,6.8011,6.7632,6.6865,6.7692,6.7354,6.6677,6.6136,6.5628,6.4986,6.4018,6.2482,6.1061,6.025,5.9066,5.7848,5.6664,5.5667,5.4618,5.3382,5.2347,5.1344,5.0487,4.9275,4.8464,4.8411,4.721,4.6931,4.8068,4.6567,4.606,4.7096,4.784,4.955,5.2479,5.5529,5.884,6.248,6.4757,6.7034,6.9311,7.007,7.0932,7.1933,7.3671,7.5085,7.6132,7.6891,7.7357,7.7632,7.8265,7.8649,7.8943,7.976,8.1412,8.3429,8.3665,8.5277,8.7308,7.2974,7.4014,7.5824,8.0275,8.1575,8.2464,8.388,8.4649,8.508,8.5111,8.5111,8.5111,8.508,8.4495,8.4095,8.4095,8.2864,8.2099,8.2099,8.0217,7.9078,7.9078,7.7754,7.6644,7.6,7.4645,7.2275,6.8857,6.5414,6.2706,6.0701,5.9372,5.8726,5.8787,5.9465,6.0486,6.1809,6.2491,6.3995,6.5811,6.5165,6.5288,6.5811,6.5165,6.4888,6.4888,6.4888,6.4888,6.5081,6.6152,6.6491,6.6465,6.6491,6.6491,6.6491,6.6517,6.7266,6.8134,6.8522,6.8029,6.753,6.7827,6.7354,6.6791,6.6791,6.6757,6.6352,6.4884,6.2821,6.1061,6.025,5.9487,5.8269,5.6071,5.5856,5.5196,5.2919,5.2725,5.2193,5.0586,4.9858,4.9212,4.846,4.7723,4.735,4.7497,4.7463,4.8115,4.959,4.9854,5.1011,5.3322,5.6322,5.9357,6.248,6.4757,6.7034,6.9311,7.007,7.1208,7.2761,7.505,7.6063,7.6132,7.6891,7.7698,7.8483,7.8504,7.8983,7.9779,8.055,8.1925,8.3502,8.43,8.6097,8.8059,7.5623,7.7189,7.8915,8.0771,8.2402,8.3603,8.4034,8.468,8.5111,8.5111,8.5111,8.4926,8.4465,8.4649,8.4588,8.4126,8.3695,8.2864,8.1514,8.0836,7.9817,7.8398,7.7906,7.7137,7.6031,7.56,7.3937,7.1013,6.9413,6.6673,6.2829,6.1963,6.1532,6.1563,6.224,6.3041,6.3995,6.5134,6.5691,6.5903,6.5657,6.5996,6.6457,6.5319,6.5195,6.5534,6.5072,6.4888,6.5191,6.6982,6.7112,6.678,6.8197,6.7872,6.7282,6.9199,6.8838,6.8041,6.9343,6.9155,6.8482,6.8012,6.7726,6.7421,6.6893,6.6034,6.5019,6.4072,6.2482,6.1061,6.025,5.9505,5.8493,5.6891,5.6283,5.5587,5.4479,5.301,5.1912,5.1545,5.0392,4.961,4.9506,4.8764,4.8779,4.9854,4.8994,4.8538,4.8918,5.0095,5.1789,5.408,5.7598,6.0703,6.322,6.6014,6.829,7.007,7.0794,7.2222,7.4236,7.5511,7.6373,7.6856,7.7097,7.7685,7.8546,7.9069,7.9782,8.0623,8.1457,8.2769,8.4339,8.5111,8.6261,8.7509,7.7967,7.9417,8.0771,8.1698,8.308,8.4188,8.4434,8.4834,8.5111,8.5111,8.5111,8.4957,8.4526,8.4619,8.4342,8.3418,8.311,8.2468,8.1175,8.0867,8.0032,7.8429,7.8121,7.7475,7.64,7.64,7.5446,7.3476,7.1752,6.9259,6.606,6.5137,6.4706,6.4737,6.5442,6.5688,6.5719,6.6798,6.6891,6.6273,6.6273,6.655,6.6798,6.5965,6.5998,6.6478,6.635,6.6218,6.6422,6.8421,6.8474,6.8029,6.977,6.9566,6.8937,7.0302,6.9868,6.9243,7.031,6.9857,6.8977,6.847,6.7929,6.7387,6.6893,6.5865,6.4783,6.4072,6.2812,6.1515,6.0431,5.9451,5.8355,5.6983,5.6218,5.5536,5.4866,5.3083,5.2015,5.2351,5.1126,5.0361,5.0715,5.0622,5.0686,5.1065,5.1272,5.0952,5.0002,5.1227,5.3011,5.5288,5.8771,6.1841,6.4446,6.6876,6.9015,7.0829,7.2153,7.3684,7.5373,7.6166,7.6753,7.7201,7.7201,7.788,7.9004,7.9507,8.0384,8.1457,8.1985,8.3177,8.4646,8.5159,8.6444,8.8005,7.9909,8.074,8.1668,8.2926,8.3726,8.4372,8.5019,8.5111,8.5111,8.5111,8.508,8.5019,8.4957,8.4403,8.348,8.216,8.1544,8.1236,8.1175,8.0525,7.9847,7.9044,7.8367,7.769,7.6983,7.6983,7.6644,7.6,7.2737,7.0767,7.009,6.8766,6.8091,6.8121,6.8766,6.8304,6.7165,6.7752,6.7629,6.6952,6.6952,6.6952,6.6981,6.7005,6.7302,6.7755,6.8459,6.8482,6.8441,7.0188,7.0319,6.9888,7.0961,7.1289,7.1098,7.01,7.0505,7.1289,7.1289,7.0297,6.9248,6.918,6.803,6.6859,6.6791,6.6237,6.5514,6.4816,6.3642,6.2251,6.0736,5.9386,5.7994,5.6474,5.5771,5.5116,5.4326,5.3094,5.2502,5.3051,5.2024,5.1468,5.2054,5.2884,5.2839,5.1513,5.3927,5.4616,5.2686,5.341,5.4839,5.6978,6.0013,6.3048,6.6033,6.7497,6.9394,7.167,7.3856,7.5339,7.6132,7.6856,7.7201,7.7201,7.7268,7.823,7.9685,7.9779,8.075,8.2186,8.226,8.3214,8.4609,8.4792,8.6775,8.9216,8.0621,8.1822,8.2864,8.3695,8.4403,8.4926,8.508,8.5111,8.5111,8.5111,8.4649,8.4126,8.3634,8.3418,8.2772,8.1452,8.2129,8.2402,8.1914,8.1236,8.0309,7.9139,7.8367,7.769,7.6983,7.6983,7.6644,7.6,7.4153,7.2922,7.2214,7.0828,7.0213,7.0213,7.0367,6.9967,6.9197,6.9351,6.8766,6.766,6.766,6.766,6.7714,6.8054,6.8548,6.9156,6.9711,6.9472,6.9148,7.0386,7.0319,6.9888,7.0961,7.1289,7.1244,7.0984,7.1098,7.1289,7.1289,7.1052,7.0613,7.006,6.8774,6.7489,6.6927,6.6362,6.5814,6.55,6.4101,6.2559,6.1435,5.9745,5.8064,5.6644,5.5854,5.5165,5.4502,5.367,5.3168,5.3294,5.3049,5.2927,5.3053,5.3272,5.3736,5.4478,5.4134,5.4685,5.646,5.784,5.884,5.9357,6.2928,6.5723,6.7566,6.9104,7.1001,7.3278,7.4373,7.5339,7.6132,7.6856,7.7201,7.7246,7.7902,7.8779,7.976,8.0348,8.123,8.226,8.2884,8.3728,8.4829,8.6664,8.7839,8.872,8.136,8.2618,8.3664,8.4034,8.4649,8.5111,8.5111,8.5111,8.5111,8.5111,8.4773,8.4403,8.4034,8.3449,8.2803,8.2099,8.2407,8.2376,8.1698,8.1298,8.0528,7.917,7.9016,7.8337,7.7014,7.729,7.7106,7.6461,7.5415,7.4738,7.4338,7.3291,7.246,7.1875,7.2183,7.1598,7.0367,7.0367,6.9751,6.8797,6.8489,6.8683,6.9163,6.943,6.9984,7.0681,7.1262,7.0938,7.0313,7.1218,7.1038,7.0528,7.1098,7.1289,7.1289,7.1289,7.1289,7.1289,7.1289,7.1075,7.0635,6.9891,6.9079,6.8267,6.7489,6.7184,6.6833,6.5997,6.4687,6.3266,6.204,5.9828,5.7878,5.6811,5.5727,5.4865,5.4547,5.3873,5.3804,5.4839,5.4632,5.4789,5.5874,5.6288,5.6426,5.6184,5.7012,5.7805,5.8426,6.122,6.2461,6.1772,6.5083,6.762,6.9118,7.0691,7.2395,7.4326,7.4718,7.5511,7.6615,7.7028,7.7411,7.7815,7.8294,7.915,8.0274,8.0732,8.1386,8.2223,8.27,8.3581,8.4792,8.6481,8.7802,8.8923,8.2164,8.3326,8.4249,8.4249,8.4711,8.5111,8.5111,8.5111,8.5111,8.5111,8.5019,8.4957,8.4957,8.3941,8.3203,8.311,8.2591,8.1945,8.1144,8.1021,8.0405,7.9139,7.954,7.8924,7.7014,7.7567,7.7567,7.6983,7.6338,7.6,7.6,7.5323,7.4399,7.3322,7.3783,7.3014,7.1352,7.1136,7.0613,6.9873,6.9465,6.9787,7.0497,7.0925,7.1543,7.2258,7.3028,7.2591,7.1751,7.236,7.1988,7.1289,7.1289,7.1289,7.1289,7.1289,7.1289,7.1289,7.1289,7.0838,7.0195,6.9451,6.9282,6.9045,6.8141,6.8163,6.7957,6.6507,6.5362,6.4145,6.265,6.0011,5.7805,5.6943,5.5529,5.4478,5.4478,5.408,5.4529,5.6702,5.6547,5.7133,5.9323,6.0151,5.984,5.8116,6.0789,6.1824,6.0203,6.3894,6.5585,6.4496,6.6945,6.9049,7.0725,7.2174,7.3602,7.5098,7.5098,7.5822,7.7201,7.7201,7.7698,7.8504,7.8649,7.9526,8.0911,8.1035,8.1525,8.2223,8.2333,8.3287,8.4719,8.5637,8.7435,8.94,8.3018,8.4003,8.4957,8.4957,8.5019,8.5111,8.5111,8.5111,8.5111,8.5111,8.4619,8.4249,8.4249,8.4065,8.3695,8.3141,8.2987,8.2402,8.1175,8.0555,7.9909,7.9139,7.8583,7.7906,7.7014,7.7075,7.7075,7.6983,7.6338,7.6,7.6,7.5323,7.4892,7.4676,7.4214,7.3814,7.3445,7.2337,7.1105,6.9963,7.0832,7.062,7.0026,7.2509,7.3544,7.3807,7.4886,7.435,7.3195,7.3274,7.2428,7.1289,7.1289,7.1289,7.1289,7.1289,7.1289,7.1289,7.1289,7.1222,7.0973,7.0195,7.0026,6.972,6.8524,6.8394,6.8322,6.7435,6.6406,6.516,6.3424,6.0768,5.8392,5.7012,5.5529,5.4478,5.4478,5.4927,5.5858,5.7529,5.8771,6.0151,6.1806,6.2066,6.2496,6.3393,6.2875,6.3204,6.4757,6.6102,6.731,6.8379,6.8862,7.0139,7.2312,7.3209,7.4395,7.5891,7.5891,7.6373,7.7201,7.7201,7.7698,7.8546,7.921,8.003,8.0964,8.1698,8.2088,8.226,8.2957,8.3785,8.4792,8.6261,8.7895,8.94,8.5748,8.6076,8.6236,8.6236,8.559,8.5111,8.5111,8.5111,8.4988,8.4619,8.428,8.3941,8.3603,8.3541,8.3418,8.311,8.2772,8.2314,8.1698,8.0986,8.0155,7.9139,7.9139,7.8613,7.7567,7.7167,7.6983,7.6983,7.6708,7.6554,7.6521,7.6246,7.5692,7.4984,7.4676,7.4122,7.3446,7.3131,7.234,7.1431,7.2249,7.2331,7.2124,7.3467,7.4132,7.4396,7.4911,7.4153,7.2969,7.3364,7.2766,7.1887,7.1887,7.1887,7.1819,7.1447,7.1289,7.1289,7.1289,7.1401,7.1333,7.0894,7.0859,7.0687,6.9709,6.9322,6.8999,6.8371,6.7315,6.5995,6.4384,6.1631,5.9426,5.8737,5.6322,5.4805,5.5632,5.6391,5.7426,5.8944,6.084,6.2634,6.417,6.4343,6.4446,6.4669,6.4462,6.4791,6.5826,6.6999,6.831,6.9863,7.0691,7.1829,7.3278,7.3623,7.4568,7.6097,7.6097,7.6477,7.7201,7.7201,7.7888,7.915,7.9546,8.0421,8.161,8.2018,8.2186,8.226,8.3087,8.3895,8.4792,8.639,8.8005,8.9326,8.7304,8.71,8.6732,8.6732,8.5841,8.5111,8.5111,8.5111,8.4926,8.4403,8.4342,8.4126,8.3603,8.3541,8.348,8.3326,8.271,8.2283,8.2129,8.1483,8.0528,7.917,7.9293,7.886,7.7783,7.726,7.6983,7.6983,7.6983,7.6983,7.6983,7.6983,7.6624,7.5894,7.5553,7.4998,7.4341,7.4419,7.41,7.3582,7.3911,7.4248,7.4528,7.4423,7.4606,7.4864,7.4864,7.4018,7.3003,7.3544,7.3138,7.2428,7.2597,7.2428,7.209,7.1684,7.1469,7.1379,7.1312,7.1457,7.1556,7.139,7.1546,7.1484,7.0834,7.0213,6.9651,6.911,6.795,6.6585,6.5221,6.2634,6.0599,6.0254,5.7598,5.5977,5.715,5.8116,5.9323,6.1047,6.2944,6.4738,6.6275,6.6413,6.6171,6.5531,6.624,6.6689,6.6689,6.8103,6.9518,7.0898,7.2071,7.3244,7.4326,7.4154,7.4843,7.6339,7.6339,7.6782,7.75,7.75,7.8406,7.9973,7.9973,8.084,8.2186,8.2186,8.2186,8.226,8.3087,8.3895,8.4756,8.6187,8.7858,8.929,8.5567,8.5295,8.5225,8.5225,8.5184,8.5111,8.5111,8.5111,8.508,8.505,8.5019,8.5019,8.4957,8.4957,8.4711,8.4065,8.3387,8.2741,8.216,8.1483,8.0528,7.917,7.7908,7.7167,7.7075,7.7014,7.6983,7.6983,7.6983,7.6983,7.6983,7.6983,7.7574,7.8565,7.7241,7.7245,7.8206,7.6936,7.6407,7.6353,7.6108,7.6073,7.6107,7.5723,7.557,7.5608,7.5608,7.51,7.4458,7.4502,7.3578,7.2529,7.3206,7.2462,7.1492,7.2124,7.1977,7.1534,7.1356,7.1457,7.16,7.1578,7.1788,7.1836,7.1263,7.0607,6.9914,6.9368,6.8049,6.6758,6.5964,6.3894,6.1841,6.0427,5.9357,5.872,5.8823,6.0116,6.1875,6.4083,6.5152,6.6309,6.7773,6.7945,6.7911,6.7842,6.8586,6.9035,6.9035,7.0449,7.1636,7.2485,7.2623,7.3761,7.5891,7.5201,7.558,7.7132,7.7132,7.7562,7.8399,7.8399,7.9289,8.0822,8.0822,8.1317,8.2186,8.2186,8.2186,8.226,8.3087,8.3895,8.4719,8.5563,8.7399,8.929,8.711,8.7409,8.7429,8.6557,8.6381,8.6094,8.5225,8.5111,8.4957,8.4526,8.4465,8.4311,8.3911,8.4218,8.4218,8.3541,8.3233,8.2803,8.2125,8.1483,8.0528,7.917,7.8154,7.7413,7.6983,7.6983,7.6983,7.6983,7.6983,7.6983,7.6983,7.6983,7.7452,7.8247,7.7237,7.7264,7.8067,7.7827,7.7467,7.7175,7.8252,7.8152,7.7354,7.7153,7.6826,7.6386,7.5879,7.5236,7.4671,7.5134,7.4627,7.3815,7.4086,7.3626,7.2813,7.2291,7.2027,7.1832,7.1744,7.1876,7.1994,7.1898,7.2029,7.2133,7.191,7.1314,7.0759,7.0664,6.9828,6.8724,6.7482,6.5826,6.4412,6.3825,6.1875,6.0771,6.1737,6.2737,6.3738,6.46,6.6221,6.7689,6.8759,6.8862,6.9015,6.9497,6.9828,7.0173,7.0656,7.2105,7.3291,7.405,7.4063,7.4477,7.5339,7.5546,7.6166,7.7201,7.7201,7.7676,7.8504,7.8504,7.9388,8.0911,8.0911,8.1368,8.2186,8.2186,8.2186,8.226,8.3087,8.3895,8.4682,8.549,8.7325,8.9216,8.85,8.8993,8.8789,8.7178,8.7442,8.7299,8.5672,8.6005,8.626,8.579,8.5728,8.5397,8.4505,8.459,8.432,8.3212,8.2895,8.2495,8.1852,8.1175,8.0371,7.9447,7.849,7.7783,7.7321,7.7106,7.6983,7.6983,7.6983,7.7181,7.7604,7.7604,7.8219,7.934,7.838,7.8406,7.9188,7.9023,7.8808,7.8619,7.9499,7.9397,7.8619,7.8204,7.7536,7.6826,7.6284,7.5608,7.5033,7.5635,7.5283,7.4661,7.4968,7.4521,7.3685,7.2637,7.2234,7.2094,7.2094,7.2266,7.2373,7.2137,7.2266,7.2437,7.2437,7.1853,7.1345,7.1477,7.0912,7.007,6.9015,6.7827,6.6827,6.6309,6.4462,6.3393,6.4186,6.4945,6.5497,6.5738,6.7152,6.8428,6.9207,6.9311,6.9621,7.0346,7.0863,7.1532,7.2533,7.3809,7.4636,7.4891,7.5373,7.5511,7.527,7.5822,7.6477,7.7201,7.7201,7.7793,7.8882,7.8882,7.9779,8.1299,8.1299,8.1664,8.2186,8.2186,8.2186,8.2296,8.3361,8.4115,8.4719,8.5783,8.7399,8.8849,8.9185,8.9277,8.866,8.6578,8.7937,8.8628,8.6544,8.7969,8.9283,8.9283,8.9283,8.8753,8.736,8.659,8.5344,8.3252,8.2464,8.1822,8.1144,8.0463,8.0124,8.0094,7.8737,7.7998,7.7998,7.7321,7.6983,7.6983,7.6983,7.7638,7.8911,7.8911,8.0262,8.2651,8.1166,8.1223,8.2306,8.0818,8.0615,8.1156,7.9701,7.9566,8.004,7.8551,7.7536,7.6927,7.6927,7.6386,7.5757,7.6028,7.5425,7.4809,7.579,7.5102,7.381,7.3251,7.2719,7.2309,7.2309,7.2501,7.2628,7.2373,7.2501,7.2692,7.2692,7.2071,7.1498,7.1498,7.0912,7.0415,7.0415,6.9828,6.8828,6.7275,6.7034,6.6792,6.6033,6.6585,6.731,6.8014,6.8118,6.8428,6.9242,6.9311,6.9621,7.038,7.1864,7.336,7.4822,7.5684,7.5753,7.4903,7.6408,7.6856,7.6097,7.6097,7.6477,7.7201,7.7201,7.8082,7.9721,7.9721,8.0605,8.2186,8.2186,8.2186,8.2186,8.2186,8.2186,8.237,8.3985,8.4609,8.4792,8.639,8.7509,8.8206,8.7973,8.9435,9.0321,8.8662,8.974,9.0289,8.8628,8.889,8.9283,8.9283,8.8862,8.8013,8.6666,8.5861,8.4619,8.2573,8.2222,8.1822,8.1144,8.0929,8.0586,8.0124,7.8737,7.7998,7.7998,7.7321,7.7229,7.769,7.7229,7.7886,7.9574,7.9132,8.0262,8.2651,8.1166,8.1223,8.2306,8.0818,8.031,8.0513,8.0615,8.0445,8.0141,7.9701,7.9092,7.8382,7.7841,7.7624,7.7522,7.705,7.6805,7.6605,7.6017,7.5504,7.5058,7.4525,7.3878,7.346,7.399,7.3456,7.2671,7.2607,7.2628,7.2692,7.2692,7.2519,7.2347,7.2347,7.2174,7.1829,7.1277,7.1001,7.0518,6.9552,6.938,6.9311,6.9104,6.9242,6.9483,6.969,6.9725,7.0035,7.0794,7.1346,7.2002,7.2726,7.4223,7.505,7.4925,7.6166,7.6511,7.5753,7.6684,7.7097,7.6856,7.6856,7.6994,7.7201,7.7201,7.8082,7.9721,7.9721,8.0605,8.2186,8.2186,8.2186,8.2186,8.2186,8.2517,8.3087,8.3564,8.4462,8.549,8.5967,8.7031,8.8133,8.9429,9.0914,9.1799,9.0025,9.1169,9.1735,8.9993,9.0477,9.0991,9.0991,9.0595,8.9795,8.8438,8.7371,8.6044,8.4265,8.3116,8.21,8.1148,8.0867,8.0525,8.0124,7.9209,7.8729,7.8729,7.7864,7.7864,7.8729,7.867,7.9317,8.0643,8.0812,8.1802,8.3415,8.2212,8.1953,8.234,8.1122,8.0479,8.0242,8.0682,8.0581,8.0209,8.0209,7.981,7.9207,7.8733,7.8589,7.849,7.8108,7.8056,7.8015,7.6919,7.6381,7.6049,7.5514,7.4822,7.4326,7.4787,7.4236,7.3567,7.3567,7.3347,7.314,7.314,7.314,7.3037,7.2761,7.2692,7.2554,7.2071,7.1967,7.1705,7.0967,7.0863,7.0725,7.0449,7.0415,7.0415,7.0415,7.0415,7.0691,7.1429,7.2243,7.3278,7.4602,7.5568,7.6029,7.5822,7.6684,7.6994,7.6546,7.6959,7.7201,7.7201,7.7201,7.7201,7.7201,7.7201,7.8082,7.9721,7.9721,8.0605,8.2186,8.2186,8.2186,8.2186,8.2186,8.2663,8.3418,8.3748,8.4646,8.582,8.6151,8.6885,8.7655,9.2392,9.3064,9.2976,9.1029,9.2319,9.2946,9.0965,9.2349,9.3601,9.3601,9.3567,9.2962,9.155,9.0136,8.8659,8.7081,8.4467,8.2448,8.1358,8.0699,8.0394,8.0437,8.0323,8.027,8.0269,7.9022,7.8956,8.0175,8.0935,8.1598,8.2212,8.3387,8.4189,8.4647,8.3862,8.3118,8.2441,8.1697,8.0953,8.031,8.0302,8.0268,8.0259,8.0284,8.0028,7.9614,7.9614,7.9367,7.905,7.9207,7.9175,7.9003,7.835,7.7594,7.6861,7.6432,7.5684,7.5029,7.5098,7.4994,7.4903,7.5063,7.4568,7.4003,7.3934,7.3865,7.3623,7.2933,7.2761,7.2692,7.2692,7.2692,7.245,7.1726,7.1622,7.136,7.0691,7.0622,7.0622,7.0691,7.0691,7.1001,7.1705,7.2554,7.3878,7.6029,7.6201,7.6477,7.7166,7.7201,7.7201,7.7201,7.7201,7.7201,7.7201,7.7201,7.7201,7.7201,7.7201,7.8082,7.9721,7.9721,8.0605,8.2186,8.2186,8.2186,8.2186,8.2186,8.2663,8.3454,8.4205,8.4976,8.5783,8.6591,8.6867,8.6904,9.2392,9.3064,9.3445,9.2976,9.3288,9.3445,9.2976,9.3288,9.3601,9.3601,9.3064,9.2154,9.0784,8.9835,8.8088,8.5108,8.2817,8.1873,8.2648,8.2524,8.2672,8.3194,8.3218,8.3125,8.3031,8.1749,8.1489,8.2345,8.2536,8.35,8.506,8.4288,8.4489,8.5486,8.4099,8.3422,8.3219,8.2475,8.1731,8.108,8.1308,8.1044,8.056,8.0759,8.0755,8.0668,8.0668,8.076,8.0762,8.0405,7.9889,7.9373,7.9235,7.8649,7.8052,7.7925,7.6925,7.596,7.6546,7.5822,7.5201,7.6408,7.6132,7.5442,7.4822,7.4223,7.3761,7.3589,7.3106,7.2692,7.2692,7.2692,7.2623,7.2485,7.245,7.2381,7.2209,7.2209,7.2416,7.3002,7.3071,7.3347,7.4085,7.4878,7.5809,7.6891,7.6959,7.7028,7.7201,7.7201,7.7201,7.7201,7.7201,7.7201,7.7201,7.7201,7.7201,7.7201,7.7201,7.8082,7.9721,7.9721,8.0605,8.2186,8.2186,8.2186,8.2186,8.2186,8.2663,8.3418,8.3601,8.4168,8.4976,8.5747,8.604,8.6151,9.2962,9.33,9.3601,9.3601,9.3601,9.3601,9.3601,9.3601,9.3601,9.3601,9.3233,9.2727,9.2001,9.0635,8.851,8.5373,8.473,8.4346,8.4059,8.4027,8.4058,8.41,8.4681,8.482,8.4403,8.4312,8.3998,8.3385,8.4099,8.4817,8.55,8.5735,8.585,8.5784,8.4971,8.4167,8.3456,8.3084,8.2553,8.2029,8.2157,8.1841,8.1319,8.1468,8.1386,8.12,8.12,8.1369,8.1551,8.128,8.0914,8.0534,8.0132,7.9752,7.9396,7.9051,7.8339,7.7787,7.8201,7.7718,7.7304,7.8097,7.7718,7.6891,7.5753,7.4856,7.4223,7.3865,7.3485,7.3209,7.3209,7.3498,7.374,7.374,7.374,7.374,7.374,7.374,7.3878,7.4292,7.4326,7.4636,7.5395,7.5856,7.6408,7.7132,7.7201,7.7201,7.7201,7.7201,7.7201,7.7201,7.7201,7.7201,7.7201,7.7632,7.7815,7.7815,7.7815,7.8469,7.9685,8.0086,8.0983,8.2186,8.2186,8.2186,8.2223,8.2627,8.303,8.3454,8.3821,8.4242,8.4682,8.549,8.604,8.6444,9.3601,9.3601,9.3639,9.3774,9.3702,9.3639,9.3774,9.3702,9.3601,9.3601,9.3601,9.3601,9.3601,9.1529,8.918,8.6845,8.7266,8.7025,8.5543,8.5449,8.5312,8.497,8.596,8.6218,8.5516,8.641,8.6074,8.4333,8.5691,8.5957,8.5287,8.701,8.7076,8.5817,8.5736,8.4957,8.3772,8.3825,8.354,8.3092,8.3117,8.2758,8.2172,8.2222,8.1924,8.1466,8.1466,8.1585,8.181,8.181,8.181,8.1672,8.0994,8.0718,8.0476,7.9856,7.9603,7.9477,7.9477,7.9477,7.9465,7.9362,7.8844,7.8051,7.6615,7.5684,7.4925,7.4326,7.4003,7.383,7.3947,7.4395,7.4753,7.4891,7.4925,7.4925,7.4925,7.4925,7.496,7.5098,7.5235,7.558,7.6201,7.627,7.6546,7.7132,7.7201,7.7201,7.7201,7.7201,7.7201,7.7201,7.7201,7.729,7.7411,7.8159,7.8566,7.8732,7.8841,7.9249,7.9916,8.0623,8.1388,8.2186,8.2186,8.2186,8.226,8.3067,8.3381,8.3491,8.4278,8.4609,8.4682,8.549,8.6297,8.6978,9.3601,9.3601,9.3774,9.4451,9.4011,9.3808,9.4451,9.4011,9.3601,9.3601,9.3601,9.3601,9.3601,9.1125,8.9279,8.8898,8.6792,8.5886,8.6792,8.6852,8.7294,8.8361,8.8593,8.834,8.7632,8.7129,8.6757,8.6491,8.73,8.7334,8.6626,8.6926,8.6602,8.5784,8.5381,8.5105,8.4901,8.5136,8.4822,8.4216,8.4444,8.3688,8.2467,8.2687,8.2335,8.1763,8.1763,8.1787,8.181,8.181,8.181,8.1776,8.1672,8.1155,8.058,8.0476,7.9994,7.9477,7.9477,7.9477,7.9339,7.8706,7.8465,7.8154,7.727,7.6477,7.5891,7.5787,7.474,7.3981,7.4615,7.4326,7.4154,7.4787,7.4925,7.4925,7.4925,7.4925,7.5167,7.5856,7.6511,7.6925,7.7028,7.7063,7.7097,7.7201,7.7201,7.7201,7.7201,7.7201,7.7201,7.7201,7.7201,7.7566,7.8315,7.8441,7.8841,7.9565,8.0236,8.0623,8.075,8.0857,8.1388,8.2186,8.2186,8.2186,8.226,8.3067,8.3381,8.3491,8.4278,8.4609,8.4682,8.549,8.6297,8.6978,9.3601,9.3601,9.3673,9.4011,9.3808,9.3706,9.4045,9.3808,9.3601,9.3601,9.3601,9.3601,9.3601,9.2086,9.0527,8.9371,8.8436,8.8028,8.8214,8.8209,8.8501,8.9072,8.91,8.8965,8.8598,8.7482,8.6907,8.6907,8.7245,8.7211,8.6907,8.7313,8.7192,8.6609,8.5996,8.555,8.5299,8.4985,8.4737,8.4572,8.4261,8.3586,8.2745,8.2866,8.2431,8.181,8.181,8.181,8.181,8.181,8.181,8.181,8.181,8.1569,8.1293,8.1293,8.1052,8.0776,8.0776,8.0776,8.0707,8.0396,7.9982,7.9431,7.8649,7.789,7.7154,7.627,7.5201,7.4649,7.5442,7.5304,7.5326,7.6063,7.6201,7.6201,7.6201,7.6201,7.6339,7.6649,7.6994,7.7201,7.7201,7.7201,7.7201,7.7201,7.7201,7.7201,7.7201,7.7201,7.7201,7.7201,7.7201,7.7632,7.8483,7.8963,7.9585,8.0366,8.1212,8.1351,8.0929,8.1386,8.1815,8.2223,8.27,8.2627,8.2296,8.3544,8.3821,8.3454,8.3785,8.4205,8.4682,8.549,8.6297,8.6978]}]]